<?xml version="1.0" encoding="UTF-8" standalone="no" ?>
<gpx xmlns="http://www.topografix.com/GPX/1/1" xmlns:xsi="http://www.w3.org/2001/XMLSchema-instance" xsi:schemaLocation="http://www.topografix.com/GPX/1/1 http://www.topografix.com/GPX/1/1/gpx.xsd" version="1.1" creator="VisuGPX - https://www.visugpx.com">
  <metadata>
    <name>Jouy le Moutier - Bords de l'Oise - Cergy</name>
  </metadata>
  <trk>
    <name><![CDATA[Jouy le Moutier - Bords de l'Oise - Cergy_1]]></name>
    <extensions>
      <line xmlns="http://www.topografix.com/GPX/gpx_style/0/2">
        <color>0000FF</color>
        <width>4</width>
      </line>
    </extensions>
    <trkseg>
      <trkpt lat="49.01432" lon="2.05842">
        <ele>25</ele>
        <time>2022-06-28T08:36:01Z</time>
      </trkpt>
      <trkpt lat="49.01399" lon="2.05769">
        <ele>25.2</ele>
      </trkpt>
      <trkpt lat="49.0141" lon="2.0575">
        <ele>27.5</ele>
      </trkpt>
      <trkpt lat="49.01334" lon="2.05581">
        <ele>27.5</ele>
      </trkpt>
      <trkpt lat="49.01363" lon="2.05564">
        <ele>23</ele>
      </trkpt>
      <trkpt lat="49.01379" lon="2.05563">
        <ele>22.8</ele>
      </trkpt>
      <trkpt lat="49.01388" lon="2.05578">
        <ele>22.2</ele>
      </trkpt>
      <trkpt lat="49.01513" lon="2.05322">
        <ele>22.3</ele>
      </trkpt>
      <trkpt lat="49.01708" lon="2.05013">
        <ele>22.5</ele>
      </trkpt>
      <trkpt lat="49.01849" lon="2.04801">
        <ele>22</ele>
      </trkpt>
      <trkpt lat="49.01907" lon="2.0473">
        <ele>22.8</ele>
      </trkpt>
      <trkpt lat="49.02018" lon="2.04602">
        <ele>22.1</ele>
      </trkpt>
      <trkpt lat="49.02132" lon="2.04463">
        <ele>21.8</ele>
      </trkpt>
      <trkpt lat="49.0216" lon="2.04404">
        <ele>21.7</ele>
      </trkpt>
      <trkpt lat="49.02215" lon="2.04294">
        <ele>21.8</ele>
      </trkpt>
      <trkpt lat="49.0225" lon="2.0425">
        <ele>23</ele>
      </trkpt>
      <trkpt lat="49.02301" lon="2.04201">
        <ele>21.9</ele>
      </trkpt>
      <trkpt lat="49.02368" lon="2.04163">
        <ele>21.9</ele>
      </trkpt>
      <trkpt lat="49.02417" lon="2.04133">
        <ele>21.2</ele>
      </trkpt>
      <trkpt lat="49.02488" lon="2.04076">
        <ele>21.8</ele>
      </trkpt>
      <trkpt lat="49.02525" lon="2.04043">
        <ele>22</ele>
      </trkpt>
      <trkpt lat="49.02662" lon="2.03935">
        <ele>21.9</ele>
      </trkpt>
      <trkpt lat="49.02781" lon="2.03801">
        <ele>22.8</ele>
      </trkpt>
      <trkpt lat="49.02881" lon="2.03697">
        <ele>22.2</ele>
      </trkpt>
      <trkpt lat="49.02967" lon="2.0361">
        <ele>22.2</ele>
      </trkpt>
      <trkpt lat="49.03044" lon="2.03543">
        <ele>28.6</ele>
        <time>2022-06-28T08:36:06Z</time>
      </trkpt>
      <trkpt lat="49.03049" lon="2.0354">
        <ele>28.3</ele>
        <time>2022-06-28T08:36:11Z</time>
      </trkpt>
      <trkpt lat="49.03053" lon="2.03539">
        <ele>26.7</ele>
        <time>2022-06-28T08:36:14Z</time>
      </trkpt>
      <trkpt lat="49.03059" lon="2.03538">
        <ele>23.7</ele>
        <time>2022-06-28T08:36:18Z</time>
      </trkpt>
      <trkpt lat="49.03063" lon="2.03538">
        <ele>23.2</ele>
        <time>2022-06-28T08:36:22Z</time>
      </trkpt>
      <trkpt lat="49.03068" lon="2.03537">
        <ele>22.6</ele>
        <time>2022-06-28T08:36:26Z</time>
      </trkpt>
      <trkpt lat="49.03073" lon="2.03536">
        <ele>24.6</ele>
        <time>2022-06-28T08:36:32Z</time>
      </trkpt>
      <trkpt lat="49.03077" lon="2.03537">
        <ele>24.4</ele>
        <time>2022-06-28T08:36:36Z</time>
      </trkpt>
      <trkpt lat="49.03083" lon="2.03539">
        <ele>25</ele>
        <time>2022-06-28T08:36:41Z</time>
      </trkpt>
      <trkpt lat="49.03088" lon="2.03537">
        <ele>24.9</ele>
        <time>2022-06-28T08:36:45Z</time>
      </trkpt>
      <trkpt lat="49.03092" lon="2.03533">
        <ele>24.5</ele>
        <time>2022-06-28T08:36:49Z</time>
      </trkpt>
      <trkpt lat="49.03095" lon="2.03528">
        <ele>23.8</ele>
        <time>2022-06-28T08:36:55Z</time>
      </trkpt>
      <trkpt lat="49.03095" lon="2.0352">
        <ele>26.9</ele>
        <time>2022-06-28T08:37:03Z</time>
      </trkpt>
      <trkpt lat="49.03099" lon="2.03517">
        <ele>27.3</ele>
        <time>2022-06-28T08:37:09Z</time>
      </trkpt>
      <trkpt lat="49.03104" lon="2.03516">
        <ele>31.8</ele>
        <time>2022-06-28T08:37:12Z</time>
      </trkpt>
      <trkpt lat="49.03109" lon="2.03518">
        <ele>27.2</ele>
        <time>2022-06-28T08:37:16Z</time>
      </trkpt>
      <trkpt lat="49.03114" lon="2.03519">
        <ele>23.6</ele>
        <time>2022-06-28T08:37:19Z</time>
      </trkpt>
      <trkpt lat="49.0312" lon="2.03519">
        <ele>23.2</ele>
        <time>2022-06-28T08:37:23Z</time>
      </trkpt>
      <trkpt lat="49.03128" lon="2.03517">
        <ele>18.6</ele>
        <time>2022-06-28T08:37:27Z</time>
      </trkpt>
      <trkpt lat="49.03133" lon="2.03514">
        <ele>16.9</ele>
        <time>2022-06-28T08:37:31Z</time>
      </trkpt>
      <trkpt lat="49.03137" lon="2.03511">
        <ele>16</ele>
        <time>2022-06-28T08:37:34Z</time>
      </trkpt>
      <trkpt lat="49.0314" lon="2.03518">
        <ele>13.3</ele>
        <time>2022-06-28T08:37:40Z</time>
      </trkpt>
      <trkpt lat="49.03142" lon="2.03527">
        <ele>9.3</ele>
        <time>2022-06-28T08:37:48Z</time>
      </trkpt>
      <trkpt lat="49.0314" lon="2.03535">
        <ele>7.9</ele>
        <time>2022-06-28T08:37:57Z</time>
      </trkpt>
      <trkpt lat="49.03139" lon="2.03545">
        <ele>7.7</ele>
        <time>2022-06-28T08:38:02Z</time>
      </trkpt>
      <trkpt lat="49.03135" lon="2.03552">
        <ele>8.8</ele>
        <time>2022-06-28T08:38:06Z</time>
      </trkpt>
      <trkpt lat="49.03131" lon="2.03556">
        <ele>7.6</ele>
        <time>2022-06-28T08:38:16Z</time>
      </trkpt>
      <trkpt lat="49.03133" lon="2.03562">
        <ele>-4</ele>
        <time>2022-06-28T08:38:31Z</time>
      </trkpt>
      <trkpt lat="49.0314" lon="2.03559">
        <ele>-0.9</ele>
        <time>2022-06-28T08:38:34Z</time>
      </trkpt>
      <trkpt lat="49.03146" lon="2.03557">
        <ele>1.6</ele>
        <time>2022-06-28T08:38:37Z</time>
      </trkpt>
      <trkpt lat="49.03151" lon="2.03558">
        <ele>0.9</ele>
        <time>2022-06-28T08:38:40Z</time>
      </trkpt>
      <trkpt lat="49.03155" lon="2.0356">
        <ele>0.8</ele>
        <time>2022-06-28T08:38:43Z</time>
      </trkpt>
      <trkpt lat="49.03161" lon="2.03561">
        <ele>4.4</ele>
        <time>2022-06-28T08:38:46Z</time>
      </trkpt>
      <trkpt lat="49.03166" lon="2.03562">
        <ele>6</ele>
        <time>2022-06-28T08:38:48Z</time>
      </trkpt>
      <trkpt lat="49.0317" lon="2.03563">
        <ele>6.1</ele>
        <time>2022-06-28T08:38:51Z</time>
      </trkpt>
      <trkpt lat="49.03176" lon="2.03564">
        <ele>5.9</ele>
        <time>2022-06-28T08:38:54Z</time>
      </trkpt>
      <trkpt lat="49.03182" lon="2.03565">
        <ele>8.3</ele>
        <time>2022-06-28T08:38:57Z</time>
      </trkpt>
      <trkpt lat="49.03188" lon="2.03568">
        <ele>9.5</ele>
        <time>2022-06-28T08:39:01Z</time>
      </trkpt>
      <trkpt lat="49.03193" lon="2.03571">
        <ele>11.3</ele>
        <time>2022-06-28T08:39:04Z</time>
      </trkpt>
      <trkpt lat="49.03197" lon="2.03573">
        <ele>12.2</ele>
        <time>2022-06-28T08:39:07Z</time>
      </trkpt>
      <trkpt lat="49.03202" lon="2.03575">
        <ele>10.6</ele>
        <time>2022-06-28T08:39:11Z</time>
      </trkpt>
      <trkpt lat="49.03208" lon="2.03577">
        <ele>11.5</ele>
        <time>2022-06-28T08:39:16Z</time>
      </trkpt>
      <trkpt lat="49.03214" lon="2.03579">
        <ele>9.3</ele>
        <time>2022-06-28T08:39:20Z</time>
      </trkpt>
      <trkpt lat="49.03218" lon="2.0358">
        <ele>9.9</ele>
        <time>2022-06-28T08:39:23Z</time>
      </trkpt>
      <trkpt lat="49.03223" lon="2.03583">
        <ele>7.5</ele>
        <time>2022-06-28T08:39:27Z</time>
      </trkpt>
      <trkpt lat="49.03228" lon="2.03585">
        <ele>7</ele>
        <time>2022-06-28T08:39:31Z</time>
      </trkpt>
      <trkpt lat="49.03232" lon="2.03588">
        <ele>6.4</ele>
        <time>2022-06-28T08:39:35Z</time>
      </trkpt>
      <trkpt lat="49.03236" lon="2.03591">
        <ele>5.7</ele>
        <time>2022-06-28T08:39:40Z</time>
      </trkpt>
      <trkpt lat="49.03241" lon="2.03595">
        <ele>5.7</ele>
        <time>2022-06-28T08:39:44Z</time>
      </trkpt>
      <trkpt lat="49.03245" lon="2.03598">
        <ele>3</ele>
        <time>2022-06-28T08:39:48Z</time>
      </trkpt>
      <trkpt lat="49.0325" lon="2.036">
        <ele>2.9</ele>
        <time>2022-06-28T08:39:52Z</time>
      </trkpt>
      <trkpt lat="49.03255" lon="2.03603">
        <ele>5.4</ele>
        <time>2022-06-28T08:39:56Z</time>
      </trkpt>
      <trkpt lat="49.0326" lon="2.03606">
        <ele>3.8</ele>
        <time>2022-06-28T08:40:00Z</time>
      </trkpt>
      <trkpt lat="49.03264" lon="2.0361">
        <ele>2.2</ele>
        <time>2022-06-28T08:40:05Z</time>
      </trkpt>
      <trkpt lat="49.03269" lon="2.03613">
        <ele>3.5</ele>
        <time>2022-06-28T08:40:10Z</time>
      </trkpt>
      <trkpt lat="49.03273" lon="2.03617">
        <ele>2.8</ele>
        <time>2022-06-28T08:40:14Z</time>
      </trkpt>
      <trkpt lat="49.03278" lon="2.03619">
        <ele>1.4</ele>
        <time>2022-06-28T08:40:18Z</time>
      </trkpt>
      <trkpt lat="49.03283" lon="2.03618">
        <ele>0.2</ele>
        <time>2022-06-28T08:40:28Z</time>
      </trkpt>
      <trkpt lat="49.03288" lon="2.03623">
        <ele>-0.5</ele>
        <time>2022-06-28T08:40:32Z</time>
      </trkpt>
      <trkpt lat="49.03292" lon="2.03627">
        <ele>-1.5</ele>
        <time>2022-06-28T08:40:36Z</time>
      </trkpt>
      <trkpt lat="49.03296" lon="2.03628">
        <ele>-4.2</ele>
        <time>2022-06-28T08:40:40Z</time>
      </trkpt>
      <trkpt lat="49.03301" lon="2.03631">
        <ele>-4.6</ele>
        <time>2022-06-28T08:40:45Z</time>
      </trkpt>
      <trkpt lat="49.03306" lon="2.03633">
        <ele>-7.1</ele>
        <time>2022-06-28T08:40:49Z</time>
      </trkpt>
      <trkpt lat="49.03312" lon="2.03635">
        <ele>-5.4</ele>
        <time>2022-06-28T08:40:54Z</time>
      </trkpt>
      <trkpt lat="49.03316" lon="2.03642">
        <ele>-5.2</ele>
        <time>2022-06-28T08:40:58Z</time>
      </trkpt>
      <trkpt lat="49.03318" lon="2.03649">
        <ele>-4.5</ele>
        <time>2022-06-28T08:41:01Z</time>
      </trkpt>
      <trkpt lat="49.03321" lon="2.03656">
        <ele>-3.8</ele>
        <time>2022-06-28T08:41:06Z</time>
      </trkpt>
      <trkpt lat="49.03324" lon="2.03662">
        <ele>-1.8</ele>
        <time>2022-06-28T08:41:10Z</time>
      </trkpt>
      <trkpt lat="49.03327" lon="2.03667">
        <ele>-2.9</ele>
        <time>2022-06-28T08:41:14Z</time>
      </trkpt>
      <trkpt lat="49.03333" lon="2.03668">
        <ele>-5.2</ele>
        <time>2022-06-28T08:41:19Z</time>
      </trkpt>
      <trkpt lat="49.03337" lon="2.03671">
        <ele>-5.1</ele>
        <time>2022-06-28T08:41:23Z</time>
      </trkpt>
      <trkpt lat="49.03341" lon="2.03675">
        <ele>-6.6</ele>
        <time>2022-06-28T08:41:28Z</time>
      </trkpt>
      <trkpt lat="49.03346" lon="2.03678">
        <ele>-6.2</ele>
        <time>2022-06-28T08:41:32Z</time>
      </trkpt>
      <trkpt lat="49.0335" lon="2.0368">
        <ele>-2.8</ele>
        <time>2022-06-28T08:41:36Z</time>
      </trkpt>
      <trkpt lat="49.03355" lon="2.03683">
        <ele>-1.5</ele>
        <time>2022-06-28T08:41:41Z</time>
      </trkpt>
      <trkpt lat="49.03359" lon="2.03687">
        <ele>-3.6</ele>
        <time>2022-06-28T08:41:45Z</time>
      </trkpt>
      <trkpt lat="49.03363" lon="2.03691">
        <ele>-4.3</ele>
        <time>2022-06-28T08:41:49Z</time>
      </trkpt>
      <trkpt lat="49.03367" lon="2.03696">
        <ele>-5.9</ele>
        <time>2022-06-28T08:41:53Z</time>
      </trkpt>
      <trkpt lat="49.03372" lon="2.037">
        <ele>-5.7</ele>
        <time>2022-06-28T08:41:57Z</time>
      </trkpt>
      <trkpt lat="49.03375" lon="2.03705">
        <ele>-3</ele>
        <time>2022-06-28T08:42:01Z</time>
      </trkpt>
      <trkpt lat="49.0338" lon="2.03709">
        <ele>-1.7</ele>
        <time>2022-06-28T08:42:06Z</time>
      </trkpt>
      <trkpt lat="49.03385" lon="2.03712">
        <ele>-3.3</ele>
        <time>2022-06-28T08:42:10Z</time>
      </trkpt>
      <trkpt lat="49.0339" lon="2.03715">
        <ele>-3.6</ele>
        <time>2022-06-28T08:42:15Z</time>
      </trkpt>
      <trkpt lat="49.03395" lon="2.03718">
        <ele>-1.5</ele>
        <time>2022-06-28T08:42:19Z</time>
      </trkpt>
      <trkpt lat="49.03399" lon="2.03721">
        <ele>-0.7</ele>
        <time>2022-06-28T08:42:23Z</time>
      </trkpt>
      <trkpt lat="49.03404" lon="2.03726">
        <ele>0.9</ele>
        <time>2022-06-28T08:42:27Z</time>
      </trkpt>
      <trkpt lat="49.03408" lon="2.0373">
        <ele>2.1</ele>
        <time>2022-06-28T08:42:31Z</time>
      </trkpt>
      <trkpt lat="49.03413" lon="2.03735">
        <ele>0.9</ele>
        <time>2022-06-28T08:42:35Z</time>
      </trkpt>
      <trkpt lat="49.03417" lon="2.03738">
        <ele>-1.6</ele>
        <time>2022-06-28T08:42:39Z</time>
      </trkpt>
      <trkpt lat="49.03421" lon="2.03742">
        <ele>-1.6</ele>
        <time>2022-06-28T08:42:42Z</time>
      </trkpt>
      <trkpt lat="49.03426" lon="2.03747">
        <ele>0.2</ele>
        <time>2022-06-28T08:42:46Z</time>
      </trkpt>
      <trkpt lat="49.0343" lon="2.0375">
        <ele>0.9</ele>
        <time>2022-06-28T08:42:51Z</time>
      </trkpt>
      <trkpt lat="49.03435" lon="2.03753">
        <ele>0.6</ele>
        <time>2022-06-28T08:42:56Z</time>
      </trkpt>
      <trkpt lat="49.03439" lon="2.03757">
        <ele>1.2</ele>
        <time>2022-06-28T08:43:00Z</time>
      </trkpt>
      <trkpt lat="49.03444" lon="2.0376">
        <ele>-1.1</ele>
        <time>2022-06-28T08:43:04Z</time>
      </trkpt>
      <trkpt lat="49.03448" lon="2.03764">
        <ele>-1.4</ele>
        <time>2022-06-28T08:43:08Z</time>
      </trkpt>
      <trkpt lat="49.03452" lon="2.03768">
        <ele>-0.7</ele>
        <time>2022-06-28T08:43:12Z</time>
      </trkpt>
      <trkpt lat="49.03456" lon="2.03773">
        <ele>1.4</ele>
        <time>2022-06-28T08:43:16Z</time>
      </trkpt>
      <trkpt lat="49.0346" lon="2.03777">
        <ele>3.1</ele>
        <time>2022-06-28T08:43:20Z</time>
      </trkpt>
      <trkpt lat="49.03463" lon="2.03782">
        <ele>2.6</ele>
        <time>2022-06-28T08:43:24Z</time>
      </trkpt>
      <trkpt lat="49.03468" lon="2.03785">
        <ele>4.3</ele>
        <time>2022-06-28T08:43:28Z</time>
      </trkpt>
      <trkpt lat="49.03472" lon="2.03789">
        <ele>6.8</ele>
        <time>2022-06-28T08:43:32Z</time>
      </trkpt>
      <trkpt lat="49.03477" lon="2.03793">
        <ele>7.6</ele>
        <time>2022-06-28T08:43:37Z</time>
      </trkpt>
      <trkpt lat="49.03481" lon="2.03796">
        <ele>6.9</ele>
        <time>2022-06-28T08:43:42Z</time>
      </trkpt>
      <trkpt lat="49.03485" lon="2.03801">
        <ele>7.1</ele>
        <time>2022-06-28T08:43:46Z</time>
      </trkpt>
      <trkpt lat="49.03489" lon="2.03806">
        <ele>7.7</ele>
        <time>2022-06-28T08:43:50Z</time>
      </trkpt>
      <trkpt lat="49.03493" lon="2.03812">
        <ele>7.4</ele>
        <time>2022-06-28T08:43:54Z</time>
      </trkpt>
      <trkpt lat="49.03497" lon="2.03818">
        <ele>6.8</ele>
        <time>2022-06-28T08:43:58Z</time>
      </trkpt>
      <trkpt lat="49.03501" lon="2.03824">
        <ele>6.4</ele>
        <time>2022-06-28T08:44:02Z</time>
      </trkpt>
      <trkpt lat="49.03504" lon="2.03829">
        <ele>8.4</ele>
        <time>2022-06-28T08:44:06Z</time>
      </trkpt>
      <trkpt lat="49.03508" lon="2.03835">
        <ele>8.5</ele>
        <time>2022-06-28T08:44:10Z</time>
      </trkpt>
      <trkpt lat="49.03513" lon="2.03841">
        <ele>7.6</ele>
        <time>2022-06-28T08:44:15Z</time>
      </trkpt>
      <trkpt lat="49.03516" lon="2.03846">
        <ele>6.7</ele>
        <time>2022-06-28T08:44:19Z</time>
      </trkpt>
      <trkpt lat="49.0352" lon="2.03852">
        <ele>7.1</ele>
        <time>2022-06-28T08:44:24Z</time>
      </trkpt>
      <trkpt lat="49.03523" lon="2.03858">
        <ele>6.2</ele>
        <time>2022-06-28T08:44:27Z</time>
      </trkpt>
      <trkpt lat="49.03526" lon="2.03863">
        <ele>4.6</ele>
        <time>2022-06-28T08:44:31Z</time>
      </trkpt>
      <trkpt lat="49.03531" lon="2.0387">
        <ele>5.9</ele>
        <time>2022-06-28T08:44:35Z</time>
      </trkpt>
      <trkpt lat="49.03535" lon="2.03877">
        <ele>6.2</ele>
        <time>2022-06-28T08:44:39Z</time>
      </trkpt>
      <trkpt lat="49.03539" lon="2.03881">
        <ele>5.9</ele>
        <time>2022-06-28T08:44:43Z</time>
      </trkpt>
      <trkpt lat="49.03543" lon="2.03886">
        <ele>6.7</ele>
        <time>2022-06-28T08:44:47Z</time>
      </trkpt>
      <trkpt lat="49.03548" lon="2.03889">
        <ele>4.3</ele>
        <time>2022-06-28T08:44:51Z</time>
      </trkpt>
      <trkpt lat="49.03553" lon="2.03891">
        <ele>5.3</ele>
        <time>2022-06-28T08:44:55Z</time>
      </trkpt>
      <trkpt lat="49.03558" lon="2.03894">
        <ele>3.1</ele>
        <time>2022-06-28T08:44:59Z</time>
      </trkpt>
      <trkpt lat="49.03562" lon="2.03897">
        <ele>4.7</ele>
        <time>2022-06-28T08:45:03Z</time>
      </trkpt>
      <trkpt lat="49.03567" lon="2.039">
        <ele>3.5</ele>
        <time>2022-06-28T08:45:07Z</time>
      </trkpt>
      <trkpt lat="49.03571" lon="2.03903">
        <ele>2.5</ele>
        <time>2022-06-28T08:45:11Z</time>
      </trkpt>
      <trkpt lat="49.03575" lon="2.03907">
        <ele>2.7</ele>
        <time>2022-06-28T08:45:15Z</time>
      </trkpt>
      <trkpt lat="49.03579" lon="2.03911">
        <ele>1.3</ele>
        <time>2022-06-28T08:45:19Z</time>
      </trkpt>
      <trkpt lat="49.03584" lon="2.03914">
        <ele>0.5</ele>
        <time>2022-06-28T08:45:23Z</time>
      </trkpt>
      <trkpt lat="49.03588" lon="2.03916">
        <ele>0.2</ele>
        <time>2022-06-28T08:45:27Z</time>
      </trkpt>
      <trkpt lat="49.03593" lon="2.03919">
        <ele>0.7</ele>
        <time>2022-06-28T08:45:31Z</time>
      </trkpt>
      <trkpt lat="49.03597" lon="2.03922">
        <ele>1.8</ele>
        <time>2022-06-28T08:45:35Z</time>
      </trkpt>
      <trkpt lat="49.03602" lon="2.03927">
        <ele>0.9</ele>
        <time>2022-06-28T08:45:40Z</time>
      </trkpt>
      <trkpt lat="49.03606" lon="2.03929">
        <ele>0.1</ele>
        <time>2022-06-28T08:45:44Z</time>
      </trkpt>
      <trkpt lat="49.03611" lon="2.03932">
        <ele>-2.4</ele>
        <time>2022-06-28T08:45:48Z</time>
      </trkpt>
      <trkpt lat="49.03615" lon="2.03935">
        <ele>-2.1</ele>
        <time>2022-06-28T08:45:52Z</time>
      </trkpt>
      <trkpt lat="49.0362" lon="2.03939">
        <ele>-0.7</ele>
        <time>2022-06-28T08:45:56Z</time>
      </trkpt>
      <trkpt lat="49.03625" lon="2.03943">
        <ele>-0.3</ele>
        <time>2022-06-28T08:46:01Z</time>
      </trkpt>
      <trkpt lat="49.03629" lon="2.03947">
        <ele>-0.8</ele>
        <time>2022-06-28T08:46:05Z</time>
      </trkpt>
      <trkpt lat="49.03633" lon="2.0395">
        <ele>-2.2</ele>
        <time>2022-06-28T08:46:09Z</time>
      </trkpt>
      <trkpt lat="49.03638" lon="2.03955">
        <ele>-2</ele>
        <time>2022-06-28T08:46:13Z</time>
      </trkpt>
      <trkpt lat="49.03643" lon="2.03959">
        <ele>-0.7</ele>
        <time>2022-06-28T08:46:18Z</time>
      </trkpt>
      <trkpt lat="49.03648" lon="2.03963">
        <ele>0.3</ele>
        <time>2022-06-28T08:46:22Z</time>
      </trkpt>
      <trkpt lat="49.03653" lon="2.03967">
        <ele>1.5</ele>
        <time>2022-06-28T08:46:27Z</time>
      </trkpt>
      <trkpt lat="49.03657" lon="2.03972">
        <ele>2.9</ele>
        <time>2022-06-28T08:46:31Z</time>
      </trkpt>
      <trkpt lat="49.03663" lon="2.03975">
        <ele>3.7</ele>
        <time>2022-06-28T08:46:36Z</time>
      </trkpt>
      <trkpt lat="49.03668" lon="2.03978">
        <ele>3.5</ele>
        <time>2022-06-28T08:46:40Z</time>
      </trkpt>
      <trkpt lat="49.03674" lon="2.0398">
        <ele>3.9</ele>
        <time>2022-06-28T08:46:45Z</time>
      </trkpt>
      <trkpt lat="49.03679" lon="2.03983">
        <ele>7.4</ele>
        <time>2022-06-28T08:46:49Z</time>
      </trkpt>
      <trkpt lat="49.03684" lon="2.03987">
        <ele>6.3</ele>
        <time>2022-06-28T08:46:54Z</time>
      </trkpt>
      <trkpt lat="49.03689" lon="2.03992">
        <ele>4.9</ele>
        <time>2022-06-28T08:46:58Z</time>
      </trkpt>
      <trkpt lat="49.03692" lon="2.03997">
        <ele>5</ele>
        <time>2022-06-28T08:47:01Z</time>
      </trkpt>
      <trkpt lat="49.03695" lon="2.04003">
        <ele>3.8</ele>
        <time>2022-06-28T08:47:05Z</time>
      </trkpt>
      <trkpt lat="49.03699" lon="2.0401">
        <ele>4.1</ele>
        <time>2022-06-28T08:47:09Z</time>
      </trkpt>
      <trkpt lat="49.03703" lon="2.04015">
        <ele>3.3</ele>
        <time>2022-06-28T08:47:13Z</time>
      </trkpt>
      <trkpt lat="49.03707" lon="2.04019">
        <ele>1.7</ele>
        <time>2022-06-28T08:47:17Z</time>
      </trkpt>
      <trkpt lat="49.03711" lon="2.04024">
        <ele>2.5</ele>
        <time>2022-06-28T08:47:21Z</time>
      </trkpt>
      <trkpt lat="49.03716" lon="2.04028">
        <ele>3.7</ele>
        <time>2022-06-28T08:47:25Z</time>
      </trkpt>
      <trkpt lat="49.03721" lon="2.04032">
        <ele>2.3</ele>
        <time>2022-06-28T08:47:29Z</time>
      </trkpt>
      <trkpt lat="49.03726" lon="2.04037">
        <ele>4.6</ele>
        <time>2022-06-28T08:47:33Z</time>
      </trkpt>
      <trkpt lat="49.0373" lon="2.04042">
        <ele>5.1</ele>
        <time>2022-06-28T08:47:37Z</time>
      </trkpt>
      <trkpt lat="49.03733" lon="2.04049">
        <ele>7.4</ele>
        <time>2022-06-28T08:47:41Z</time>
      </trkpt>
      <trkpt lat="49.03737" lon="2.04055">
        <ele>9.3</ele>
        <time>2022-06-28T08:47:45Z</time>
      </trkpt>
      <trkpt lat="49.0374" lon="2.04061">
        <ele>8.7</ele>
        <time>2022-06-28T08:47:49Z</time>
      </trkpt>
      <trkpt lat="49.03744" lon="2.04066">
        <ele>7.2</ele>
        <time>2022-06-28T08:47:53Z</time>
      </trkpt>
      <trkpt lat="49.03749" lon="2.04071">
        <ele>5.3</ele>
        <time>2022-06-28T08:47:57Z</time>
      </trkpt>
      <trkpt lat="49.03753" lon="2.04075">
        <ele>7.3</ele>
        <time>2022-06-28T08:48:01Z</time>
      </trkpt>
      <trkpt lat="49.03757" lon="2.0408">
        <ele>6.7</ele>
        <time>2022-06-28T08:48:05Z</time>
      </trkpt>
      <trkpt lat="49.03761" lon="2.04086">
        <ele>7.8</ele>
        <time>2022-06-28T08:48:09Z</time>
      </trkpt>
      <trkpt lat="49.03765" lon="2.04091">
        <ele>8.7</ele>
        <time>2022-06-28T08:48:13Z</time>
      </trkpt>
      <trkpt lat="49.03769" lon="2.04097">
        <ele>9.4</ele>
        <time>2022-06-28T08:48:17Z</time>
      </trkpt>
      <trkpt lat="49.03773" lon="2.04102">
        <ele>8.5</ele>
        <time>2022-06-28T08:48:21Z</time>
      </trkpt>
      <trkpt lat="49.03776" lon="2.04108">
        <ele>9.5</ele>
        <time>2022-06-28T08:48:25Z</time>
      </trkpt>
      <trkpt lat="49.03779" lon="2.04115">
        <ele>9.7</ele>
        <time>2022-06-28T08:48:29Z</time>
      </trkpt>
      <trkpt lat="49.03781" lon="2.04122">
        <ele>9.6</ele>
        <time>2022-06-28T08:48:33Z</time>
      </trkpt>
      <trkpt lat="49.03784" lon="2.0413">
        <ele>10.4</ele>
        <time>2022-06-28T08:48:37Z</time>
      </trkpt>
      <trkpt lat="49.03788" lon="2.04134">
        <ele>8.7</ele>
        <time>2022-06-28T08:48:42Z</time>
      </trkpt>
      <trkpt lat="49.03792" lon="2.0413">
        <ele>5.5</ele>
        <time>2022-06-28T08:48:46Z</time>
      </trkpt>
      <trkpt lat="49.03796" lon="2.04124">
        <ele>1.4</ele>
        <time>2022-06-28T08:48:51Z</time>
      </trkpt>
      <trkpt lat="49.03799" lon="2.0412">
        <ele>2</ele>
        <time>2022-06-28T08:48:56Z</time>
      </trkpt>
      <trkpt lat="49.03803" lon="2.04116">
        <ele>-0.2</ele>
        <time>2022-06-28T08:49:05Z</time>
      </trkpt>
      <trkpt lat="49.03807" lon="2.04112">
        <ele>0.2</ele>
        <time>2022-06-28T08:49:12Z</time>
      </trkpt>
      <trkpt lat="49.03811" lon="2.04108">
        <ele>1.3</ele>
        <time>2022-06-28T08:49:19Z</time>
      </trkpt>
      <trkpt lat="49.03817" lon="2.04106">
        <ele>2.9</ele>
        <time>2022-06-28T08:49:27Z</time>
      </trkpt>
      <trkpt lat="49.03822" lon="2.04106">
        <ele>5.1</ele>
        <time>2022-06-28T08:49:34Z</time>
      </trkpt>
      <trkpt lat="49.03828" lon="2.04108">
        <ele>3.4</ele>
        <time>2022-06-28T08:49:42Z</time>
      </trkpt>
      <trkpt lat="49.03831" lon="2.04113">
        <ele>13.9</ele>
        <time>2022-06-28T08:50:22Z</time>
      </trkpt>
      <trkpt lat="49.03836" lon="2.04111">
        <ele>12.9</ele>
        <time>2022-06-28T08:50:59Z</time>
      </trkpt>
      <trkpt lat="49.0384" lon="2.04106">
        <ele>14.9</ele>
        <time>2022-06-28T08:51:34Z</time>
      </trkpt>
      <trkpt lat="49.03843" lon="2.04102">
        <ele>19.9</ele>
        <time>2022-06-28T08:53:48Z</time>
      </trkpt>
      <trkpt lat="49.03848" lon="2.04097">
        <ele>18.6</ele>
        <time>2022-06-28T08:53:54Z</time>
      </trkpt>
      <trkpt lat="49.03854" lon="2.04095">
        <ele>20.3</ele>
        <time>2022-06-28T08:53:58Z</time>
      </trkpt>
      <trkpt lat="49.03859" lon="2.04093">
        <ele>18.7</ele>
        <time>2022-06-28T08:54:02Z</time>
      </trkpt>
      <trkpt lat="49.03863" lon="2.04091">
        <ele>17.7</ele>
        <time>2022-06-28T08:54:06Z</time>
      </trkpt>
      <trkpt lat="49.03868" lon="2.0409">
        <ele>17.6</ele>
        <time>2022-06-28T08:54:11Z</time>
      </trkpt>
      <trkpt lat="49.03873" lon="2.04088">
        <ele>18.4</ele>
        <time>2022-06-28T08:54:15Z</time>
      </trkpt>
      <trkpt lat="49.03878" lon="2.04086">
        <ele>17.8</ele>
        <time>2022-06-28T08:54:19Z</time>
      </trkpt>
      <trkpt lat="49.03883" lon="2.04082">
        <ele>17.7</ele>
        <time>2022-06-28T08:54:23Z</time>
      </trkpt>
      <trkpt lat="49.03887" lon="2.04078">
        <ele>18.9</ele>
        <time>2022-06-28T08:54:27Z</time>
      </trkpt>
      <trkpt lat="49.03892" lon="2.04074">
        <ele>19.6</ele>
        <time>2022-06-28T08:54:31Z</time>
      </trkpt>
      <trkpt lat="49.03896" lon="2.04072">
        <ele>18.6</ele>
        <time>2022-06-28T08:54:35Z</time>
      </trkpt>
      <trkpt lat="49.03901" lon="2.0407">
        <ele>18.4</ele>
        <time>2022-06-28T08:54:38Z</time>
      </trkpt>
      <trkpt lat="49.03906" lon="2.04071">
        <ele>16.9</ele>
        <time>2022-06-28T08:54:42Z</time>
      </trkpt>
      <trkpt lat="49.03912" lon="2.04069">
        <ele>18.4</ele>
        <time>2022-06-28T08:54:46Z</time>
      </trkpt>
      <trkpt lat="49.03916" lon="2.04073">
        <ele>15.7</ele>
        <time>2022-06-28T08:54:52Z</time>
      </trkpt>
      <trkpt lat="49.0392" lon="2.04077">
        <ele>12.3</ele>
        <time>2022-06-28T08:54:57Z</time>
      </trkpt>
      <trkpt lat="49.03924" lon="2.04076">
        <ele>5.7</ele>
        <time>2022-06-28T08:55:02Z</time>
      </trkpt>
      <trkpt lat="49.03929" lon="2.04079">
        <ele>3.3</ele>
        <time>2022-06-28T08:55:09Z</time>
      </trkpt>
      <trkpt lat="49.03931" lon="2.04085">
        <ele>3.8</ele>
        <time>2022-06-28T08:55:13Z</time>
      </trkpt>
      <trkpt lat="49.03928" lon="2.04091">
        <ele>4.6</ele>
        <time>2022-06-28T08:55:16Z</time>
      </trkpt>
      <trkpt lat="49.03927" lon="2.04099">
        <ele>4</ele>
        <time>2022-06-28T08:55:20Z</time>
      </trkpt>
      <trkpt lat="49.03925" lon="2.04109">
        <ele>13.8</ele>
        <time>2022-06-28T08:55:48Z</time>
      </trkpt>
      <trkpt lat="49.03926" lon="2.04118">
        <ele>12.6</ele>
        <time>2022-06-28T08:55:51Z</time>
      </trkpt>
      <trkpt lat="49.03927" lon="2.04127">
        <ele>12</ele>
        <time>2022-06-28T08:55:55Z</time>
      </trkpt>
      <trkpt lat="49.03931" lon="2.04132">
        <ele>11.5</ele>
        <time>2022-06-28T08:55:58Z</time>
      </trkpt>
      <trkpt lat="49.03936" lon="2.0413">
        <ele>12</ele>
        <time>2022-06-28T08:56:02Z</time>
      </trkpt>
      <trkpt lat="49.0394" lon="2.04132">
        <ele>12.3</ele>
        <time>2022-06-28T08:56:05Z</time>
      </trkpt>
      <trkpt lat="49.03943" lon="2.04138">
        <ele>12.7</ele>
        <time>2022-06-28T08:56:10Z</time>
      </trkpt>
      <trkpt lat="49.03947" lon="2.04145">
        <ele>13.4</ele>
        <time>2022-06-28T08:56:15Z</time>
      </trkpt>
      <trkpt lat="49.0395" lon="2.04151">
        <ele>13</ele>
        <time>2022-06-28T08:56:19Z</time>
      </trkpt>
      <trkpt lat="49.03954" lon="2.04156">
        <ele>12.4</ele>
        <time>2022-06-28T08:56:23Z</time>
      </trkpt>
      <trkpt lat="49.03959" lon="2.04161">
        <ele>11.4</ele>
        <time>2022-06-28T08:56:29Z</time>
      </trkpt>
      <trkpt lat="49.03964" lon="2.04159">
        <ele>13.8</ele>
        <time>2022-06-28T08:56:35Z</time>
      </trkpt>
      <trkpt lat="49.03967" lon="2.04154">
        <ele>12.4</ele>
        <time>2022-06-28T08:56:40Z</time>
      </trkpt>
      <trkpt lat="49.03971" lon="2.04149">
        <ele>13.3</ele>
        <time>2022-06-28T08:56:46Z</time>
      </trkpt>
      <trkpt lat="49.03975" lon="2.04147">
        <ele>18.4</ele>
        <time>2022-06-28T08:56:55Z</time>
      </trkpt>
      <trkpt lat="49.03979" lon="2.04141">
        <ele>19.9</ele>
        <time>2022-06-28T08:57:04Z</time>
      </trkpt>
      <trkpt lat="49.03981" lon="2.04135">
        <ele>24.1</ele>
        <time>2022-06-28T08:57:11Z</time>
      </trkpt>
      <trkpt lat="49.0398" lon="2.04128">
        <ele>28.5</ele>
        <time>2022-06-28T08:57:18Z</time>
      </trkpt>
      <trkpt lat="49.0398" lon="2.0412">
        <ele>29.3</ele>
        <time>2022-06-28T08:57:25Z</time>
      </trkpt>
      <trkpt lat="49.03979" lon="2.04112">
        <ele>28.6</ele>
        <time>2022-06-28T08:57:29Z</time>
      </trkpt>
      <trkpt lat="49.03978" lon="2.04105">
        <ele>30.5</ele>
        <time>2022-06-28T08:57:34Z</time>
      </trkpt>
      <trkpt lat="49.03977" lon="2.04097">
        <ele>30.6</ele>
        <time>2022-06-28T08:57:38Z</time>
      </trkpt>
      <trkpt lat="49.03976" lon="2.04088">
        <ele>29.2</ele>
        <time>2022-06-28T08:57:44Z</time>
      </trkpt>
      <trkpt lat="49.03973" lon="2.04081">
        <ele>30.3</ele>
        <time>2022-06-28T08:57:49Z</time>
      </trkpt>
      <trkpt lat="49.03972" lon="2.04074">
        <ele>30.2</ele>
        <time>2022-06-28T08:57:54Z</time>
      </trkpt>
      <trkpt lat="49.03974" lon="2.04067">
        <ele>30.8</ele>
        <time>2022-06-28T08:58:00Z</time>
      </trkpt>
      <trkpt lat="49.03979" lon="2.04063">
        <ele>31.3</ele>
        <time>2022-06-28T08:58:05Z</time>
      </trkpt>
      <trkpt lat="49.03983" lon="2.04059">
        <ele>28.4</ele>
        <time>2022-06-28T08:58:10Z</time>
      </trkpt>
      <trkpt lat="49.03987" lon="2.04055">
        <ele>28.2</ele>
        <time>2022-06-28T08:58:14Z</time>
      </trkpt>
      <trkpt lat="49.03991" lon="2.04051">
        <ele>28.2</ele>
        <time>2022-06-28T08:58:19Z</time>
      </trkpt>
      <trkpt lat="49.03995" lon="2.04045">
        <ele>27.1</ele>
        <time>2022-06-28T08:58:24Z</time>
      </trkpt>
      <trkpt lat="49.03999" lon="2.04041">
        <ele>27.8</ele>
        <time>2022-06-28T08:58:29Z</time>
      </trkpt>
      <trkpt lat="49.04004" lon="2.04036">
        <ele>27.5</ele>
        <time>2022-06-28T08:58:34Z</time>
      </trkpt>
      <trkpt lat="49.04008" lon="2.04032">
        <ele>25.5</ele>
        <time>2022-06-28T08:58:39Z</time>
      </trkpt>
      <trkpt lat="49.04012" lon="2.04027">
        <ele>26.8</ele>
        <time>2022-06-28T08:58:43Z</time>
      </trkpt>
      <trkpt lat="49.04016" lon="2.04021">
        <ele>30.3</ele>
        <time>2022-06-28T08:58:48Z</time>
      </trkpt>
      <trkpt lat="49.04021" lon="2.04018">
        <ele>31.6</ele>
        <time>2022-06-28T08:58:55Z</time>
      </trkpt>
      <trkpt lat="49.04024" lon="2.04013">
        <ele>31.7</ele>
        <time>2022-06-28T08:58:59Z</time>
      </trkpt>
      <trkpt lat="49.04029" lon="2.04007">
        <ele>32.6</ele>
        <time>2022-06-28T08:59:05Z</time>
      </trkpt>
      <trkpt lat="49.04032" lon="2.04003">
        <ele>34.2</ele>
        <time>2022-06-28T08:59:11Z</time>
      </trkpt>
      <trkpt lat="49.04037" lon="2.04">
        <ele>35.4</ele>
        <time>2022-06-28T08:59:16Z</time>
      </trkpt>
      <trkpt lat="49.04041" lon="2.03996">
        <ele>36.4</ele>
        <time>2022-06-28T08:59:22Z</time>
      </trkpt>
      <trkpt lat="49.04045" lon="2.03992">
        <ele>38.6</ele>
        <time>2022-06-28T08:59:27Z</time>
      </trkpt>
      <trkpt lat="49.04049" lon="2.03988">
        <ele>39.3</ele>
        <time>2022-06-28T08:59:32Z</time>
      </trkpt>
      <trkpt lat="49.04053" lon="2.03984">
        <ele>39.2</ele>
        <time>2022-06-28T08:59:37Z</time>
      </trkpt>
      <trkpt lat="49.04057" lon="2.0398">
        <ele>40.5</ele>
        <time>2022-06-28T08:59:41Z</time>
      </trkpt>
      <trkpt lat="49.04061" lon="2.03975">
        <ele>39.4</ele>
        <time>2022-06-28T08:59:46Z</time>
      </trkpt>
      <trkpt lat="49.04065" lon="2.0397">
        <ele>39.7</ele>
        <time>2022-06-28T08:59:51Z</time>
      </trkpt>
      <trkpt lat="49.04069" lon="2.03964">
        <ele>39.3</ele>
        <time>2022-06-28T08:59:56Z</time>
      </trkpt>
      <trkpt lat="49.04072" lon="2.03959">
        <ele>38.7</ele>
        <time>2022-06-28T09:00:01Z</time>
      </trkpt>
      <trkpt lat="49.04077" lon="2.03955">
        <ele>38.2</ele>
        <time>2022-06-28T09:00:07Z</time>
      </trkpt>
      <trkpt lat="49.0408" lon="2.03949">
        <ele>36.4</ele>
        <time>2022-06-28T09:00:12Z</time>
      </trkpt>
      <trkpt lat="49.04085" lon="2.03941">
        <ele>35.4</ele>
        <time>2022-06-28T09:00:16Z</time>
      </trkpt>
      <trkpt lat="49.04089" lon="2.03936">
        <ele>35.5</ele>
        <time>2022-06-28T09:00:21Z</time>
      </trkpt>
      <trkpt lat="49.04094" lon="2.0393">
        <ele>39.2</ele>
        <time>2022-06-28T09:00:26Z</time>
      </trkpt>
      <trkpt lat="49.04098" lon="2.03925">
        <ele>42.3</ele>
        <time>2022-06-28T09:00:31Z</time>
      </trkpt>
      <trkpt lat="49.04102" lon="2.03922">
        <ele>41.4</ele>
        <time>2022-06-28T09:00:36Z</time>
      </trkpt>
      <trkpt lat="49.04106" lon="2.03918">
        <ele>42.2</ele>
        <time>2022-06-28T09:00:42Z</time>
      </trkpt>
      <trkpt lat="49.04111" lon="2.03914">
        <ele>41.8</ele>
        <time>2022-06-28T09:00:48Z</time>
      </trkpt>
      <trkpt lat="49.04115" lon="2.03909">
        <ele>42.7</ele>
        <time>2022-06-28T09:00:54Z</time>
      </trkpt>
      <trkpt lat="49.04119" lon="2.03903">
        <ele>44.9</ele>
        <time>2022-06-28T09:00:59Z</time>
      </trkpt>
      <trkpt lat="49.04122" lon="2.03898">
        <ele>45.4</ele>
        <time>2022-06-28T09:01:03Z</time>
      </trkpt>
      <trkpt lat="49.04126" lon="2.03894">
        <ele>45.6</ele>
        <time>2022-06-28T09:01:09Z</time>
      </trkpt>
      <trkpt lat="49.04131" lon="2.0389">
        <ele>44.3</ele>
        <time>2022-06-28T09:01:13Z</time>
      </trkpt>
      <trkpt lat="49.04134" lon="2.03884">
        <ele>45</ele>
        <time>2022-06-28T09:01:18Z</time>
      </trkpt>
      <trkpt lat="49.04138" lon="2.0388">
        <ele>43.9</ele>
        <time>2022-06-28T09:01:22Z</time>
      </trkpt>
      <trkpt lat="49.04142" lon="2.03875">
        <ele>43.7</ele>
        <time>2022-06-28T09:01:27Z</time>
      </trkpt>
      <trkpt lat="49.04149" lon="2.03863">
        <ele>40</ele>
        <time>2022-06-28T09:01:37Z</time>
      </trkpt>
      <trkpt lat="49.04151" lon="2.03857">
        <ele>40</ele>
        <time>2022-06-28T09:01:42Z</time>
      </trkpt>
      <trkpt lat="49.04155" lon="2.03852">
        <ele>39.5</ele>
        <time>2022-06-28T09:01:49Z</time>
      </trkpt>
      <trkpt lat="49.04159" lon="2.03849">
        <ele>40.7</ele>
        <time>2022-06-28T09:01:58Z</time>
      </trkpt>
      <trkpt lat="49.04164" lon="2.03848">
        <ele>39.2</ele>
        <time>2022-06-28T09:02:06Z</time>
      </trkpt>
      <trkpt lat="49.04168" lon="2.03843">
        <ele>42.7</ele>
        <time>2022-06-28T09:02:16Z</time>
      </trkpt>
      <trkpt lat="49.04172" lon="2.0384">
        <ele>58.1</ele>
        <time>2022-06-28T09:03:17Z</time>
      </trkpt>
      <trkpt lat="49.04176" lon="2.03838">
        <ele>59.7</ele>
        <time>2022-06-28T09:03:23Z</time>
      </trkpt>
      <trkpt lat="49.0418" lon="2.03834">
        <ele>60.5</ele>
        <time>2022-06-28T09:03:28Z</time>
      </trkpt>
      <trkpt lat="49.04185" lon="2.0383">
        <ele>63</ele>
        <time>2022-06-28T09:03:35Z</time>
      </trkpt>
      <trkpt lat="49.04189" lon="2.03826">
        <ele>62.8</ele>
        <time>2022-06-28T09:03:41Z</time>
      </trkpt>
      <trkpt lat="49.04194" lon="2.03822">
        <ele>64.4</ele>
        <time>2022-06-28T09:03:47Z</time>
      </trkpt>
      <trkpt lat="49.04198" lon="2.03817">
        <ele>67.4</ele>
        <time>2022-06-28T09:03:54Z</time>
      </trkpt>
      <trkpt lat="49.04202" lon="2.03812">
        <ele>70.4</ele>
        <time>2022-06-28T09:04:01Z</time>
      </trkpt>
      <trkpt lat="49.04205" lon="2.03808">
        <ele>69.8</ele>
        <time>2022-06-28T09:04:07Z</time>
      </trkpt>
      <trkpt lat="49.04208" lon="2.03802">
        <ele>73.6</ele>
        <time>2022-06-28T09:04:18Z</time>
      </trkpt>
      <trkpt lat="49.04212" lon="2.03798">
        <ele>82</ele>
        <time>2022-06-28T09:04:28Z</time>
      </trkpt>
      <trkpt lat="49.04214" lon="2.03792">
        <ele>82.3</ele>
        <time>2022-06-28T09:04:33Z</time>
      </trkpt>
      <trkpt lat="49.04217" lon="2.03787">
        <ele>82.4</ele>
        <time>2022-06-28T09:04:39Z</time>
      </trkpt>
      <trkpt lat="49.0422" lon="2.03781">
        <ele>83.3</ele>
        <time>2022-06-28T09:04:51Z</time>
      </trkpt>
      <trkpt lat="49.04218" lon="2.03788">
        <ele>88.6</ele>
        <time>2022-06-28T09:06:31Z</time>
      </trkpt>
      <trkpt lat="49.04222" lon="2.03783">
        <ele>85.5</ele>
        <time>2022-06-28T09:07:01Z</time>
      </trkpt>
      <trkpt lat="49.04219" lon="2.03789">
        <ele>90</ele>
        <time>2022-06-28T09:09:48Z</time>
      </trkpt>
      <trkpt lat="49.04216" lon="2.03795">
        <ele>87.6</ele>
        <time>2022-06-28T09:12:43Z</time>
      </trkpt>
      <trkpt lat="49.04212" lon="2.03798">
        <ele>85.3</ele>
        <time>2022-06-28T09:12:48Z</time>
      </trkpt>
      <trkpt lat="49.04207" lon="2.03801">
        <ele>83.4</ele>
        <time>2022-06-28T09:12:54Z</time>
      </trkpt>
      <trkpt lat="49.04203" lon="2.03804">
        <ele>80.9</ele>
        <time>2022-06-28T09:13:02Z</time>
      </trkpt>
      <trkpt lat="49.04198" lon="2.03809">
        <ele>81.2</ele>
        <time>2022-06-28T09:13:07Z</time>
      </trkpt>
      <trkpt lat="49.04195" lon="2.03815">
        <ele>79.9</ele>
        <time>2022-06-28T09:13:28Z</time>
      </trkpt>
      <trkpt lat="49.04191" lon="2.03819">
        <ele>77.8</ele>
        <time>2022-06-28T09:13:33Z</time>
      </trkpt>
      <trkpt lat="49.04188" lon="2.03824">
        <ele>74.9</ele>
        <time>2022-06-28T09:13:40Z</time>
      </trkpt>
      <trkpt lat="49.04184" lon="2.03829">
        <ele>73.3</ele>
        <time>2022-06-28T09:13:47Z</time>
      </trkpt>
      <trkpt lat="49.0418" lon="2.03832">
        <ele>71.5</ele>
        <time>2022-06-28T09:13:57Z</time>
      </trkpt>
      <trkpt lat="49.04176" lon="2.03835">
        <ele>70.7</ele>
        <time>2022-06-28T09:14:03Z</time>
      </trkpt>
      <trkpt lat="49.04172" lon="2.0384">
        <ele>71</ele>
        <time>2022-06-28T09:14:07Z</time>
      </trkpt>
      <trkpt lat="49.04168" lon="2.03844">
        <ele>69</ele>
        <time>2022-06-28T09:14:11Z</time>
      </trkpt>
      <trkpt lat="49.04164" lon="2.03849">
        <ele>66.9</ele>
        <time>2022-06-28T09:14:19Z</time>
      </trkpt>
      <trkpt lat="49.04161" lon="2.03854">
        <ele>65.9</ele>
        <time>2022-06-28T09:14:25Z</time>
      </trkpt>
      <trkpt lat="49.04159" lon="2.0386">
        <ele>66.1</ele>
        <time>2022-06-28T09:14:32Z</time>
      </trkpt>
      <trkpt lat="49.04163" lon="2.03859">
        <ele>62.7</ele>
        <time>2022-06-28T09:15:14Z</time>
      </trkpt>
      <trkpt lat="49.04162" lon="2.03851">
        <ele>60.8</ele>
        <time>2022-06-28T09:17:29Z</time>
      </trkpt>
      <trkpt lat="49.0416" lon="2.03844">
        <ele>59.4</ele>
        <time>2022-06-28T09:17:34Z</time>
      </trkpt>
      <trkpt lat="49.04156" lon="2.03839">
        <ele>60</ele>
        <time>2022-06-28T09:17:38Z</time>
      </trkpt>
      <trkpt lat="49.04153" lon="2.03832">
        <ele>61.5</ele>
        <time>2022-06-28T09:17:42Z</time>
      </trkpt>
      <trkpt lat="49.0415" lon="2.03826">
        <ele>62.8</ele>
        <time>2022-06-28T09:17:47Z</time>
      </trkpt>
      <trkpt lat="49.04146" lon="2.03821">
        <ele>61.9</ele>
        <time>2022-06-28T09:17:51Z</time>
      </trkpt>
      <trkpt lat="49.04143" lon="2.03816">
        <ele>60.2</ele>
        <time>2022-06-28T09:17:55Z</time>
      </trkpt>
      <trkpt lat="49.04139" lon="2.03811">
        <ele>60.3</ele>
        <time>2022-06-28T09:18:00Z</time>
      </trkpt>
      <trkpt lat="49.04135" lon="2.03805">
        <ele>61</ele>
        <time>2022-06-28T09:18:04Z</time>
      </trkpt>
      <trkpt lat="49.04131" lon="2.038">
        <ele>60.9</ele>
        <time>2022-06-28T09:18:08Z</time>
      </trkpt>
      <trkpt lat="49.04127" lon="2.03794">
        <ele>61.3</ele>
        <time>2022-06-28T09:18:12Z</time>
      </trkpt>
      <trkpt lat="49.04124" lon="2.03789">
        <ele>61.7</ele>
        <time>2022-06-28T09:18:15Z</time>
      </trkpt>
      <trkpt lat="49.0412" lon="2.03783">
        <ele>63</ele>
        <time>2022-06-28T09:18:19Z</time>
      </trkpt>
      <trkpt lat="49.04116" lon="2.03778">
        <ele>60.9</ele>
        <time>2022-06-28T09:18:23Z</time>
      </trkpt>
      <trkpt lat="49.04112" lon="2.03772">
        <ele>64.2</ele>
        <time>2022-06-28T09:18:27Z</time>
      </trkpt>
      <trkpt lat="49.04108" lon="2.03767">
        <ele>63.2</ele>
        <time>2022-06-28T09:18:31Z</time>
      </trkpt>
      <trkpt lat="49.041" lon="2.03769">
        <ele>63.5</ele>
        <time>2022-06-28T09:18:47Z</time>
      </trkpt>
      <trkpt lat="49.04097" lon="2.03763">
        <ele>63.2</ele>
        <time>2022-06-28T09:18:50Z</time>
      </trkpt>
      <trkpt lat="49.04094" lon="2.03756">
        <ele>63.9</ele>
        <time>2022-06-28T09:18:55Z</time>
      </trkpt>
      <trkpt lat="49.04093" lon="2.03749">
        <ele>63.1</ele>
        <time>2022-06-28T09:19:01Z</time>
      </trkpt>
      <trkpt lat="49.04084" lon="2.0373">
        <ele>65.7</ele>
        <time>2022-06-28T09:19:08Z</time>
      </trkpt>
      <trkpt lat="49.0408" lon="2.03724">
        <ele>64.3</ele>
        <time>2022-06-28T09:19:11Z</time>
      </trkpt>
      <trkpt lat="49.04076" lon="2.03719">
        <ele>64.7</ele>
        <time>2022-06-28T09:19:14Z</time>
      </trkpt>
      <trkpt lat="49.04072" lon="2.03713">
        <ele>64.6</ele>
        <time>2022-06-28T09:19:17Z</time>
      </trkpt>
      <trkpt lat="49.04069" lon="2.03709">
        <ele>65</ele>
        <time>2022-06-28T09:19:20Z</time>
      </trkpt>
      <trkpt lat="49.04065" lon="2.03703">
        <ele>65.1</ele>
        <time>2022-06-28T09:19:23Z</time>
      </trkpt>
      <trkpt lat="49.04061" lon="2.03699">
        <ele>64.8</ele>
        <time>2022-06-28T09:19:26Z</time>
      </trkpt>
      <trkpt lat="49.04057" lon="2.03694">
        <ele>64.3</ele>
        <time>2022-06-28T09:19:30Z</time>
      </trkpt>
      <trkpt lat="49.04053" lon="2.03689">
        <ele>65.5</ele>
        <time>2022-06-28T09:19:34Z</time>
      </trkpt>
      <trkpt lat="49.04048" lon="2.03684">
        <ele>61.5</ele>
        <time>2022-06-28T09:19:38Z</time>
      </trkpt>
      <trkpt lat="49.04044" lon="2.03679">
        <ele>60.6</ele>
        <time>2022-06-28T09:19:42Z</time>
      </trkpt>
      <trkpt lat="49.0404" lon="2.03675">
        <ele>58.2</ele>
        <time>2022-06-28T09:19:46Z</time>
      </trkpt>
      <trkpt lat="49.04036" lon="2.03669">
        <ele>57.4</ele>
        <time>2022-06-28T09:19:50Z</time>
      </trkpt>
      <trkpt lat="49.04033" lon="2.03662">
        <ele>57.2</ele>
        <time>2022-06-28T09:19:54Z</time>
      </trkpt>
      <trkpt lat="49.04029" lon="2.03657">
        <ele>56.5</ele>
        <time>2022-06-28T09:19:58Z</time>
      </trkpt>
      <trkpt lat="49.04024" lon="2.03653">
        <ele>57</ele>
        <time>2022-06-28T09:20:02Z</time>
      </trkpt>
      <trkpt lat="49.0402" lon="2.03648">
        <ele>57.4</ele>
        <time>2022-06-28T09:20:06Z</time>
      </trkpt>
      <trkpt lat="49.04016" lon="2.03643">
        <ele>59.6</ele>
        <time>2022-06-28T09:20:10Z</time>
      </trkpt>
      <trkpt lat="49.04012" lon="2.03639">
        <ele>61.5</ele>
        <time>2022-06-28T09:20:14Z</time>
      </trkpt>
      <trkpt lat="49.04008" lon="2.03635">
        <ele>59.8</ele>
        <time>2022-06-28T09:20:18Z</time>
      </trkpt>
      <trkpt lat="49.04003" lon="2.0363">
        <ele>57.1</ele>
        <time>2022-06-28T09:20:22Z</time>
      </trkpt>
      <trkpt lat="49.03999" lon="2.03627">
        <ele>57</ele>
        <time>2022-06-28T09:20:26Z</time>
      </trkpt>
      <trkpt lat="49.03995" lon="2.03623">
        <ele>57.1</ele>
        <time>2022-06-28T09:20:29Z</time>
      </trkpt>
      <trkpt lat="49.0399" lon="2.03616">
        <ele>56.8</ele>
        <time>2022-06-28T09:20:33Z</time>
      </trkpt>
      <trkpt lat="49.03987" lon="2.03612">
        <ele>55.9</ele>
        <time>2022-06-28T09:20:37Z</time>
      </trkpt>
      <trkpt lat="49.03982" lon="2.03606">
        <ele>55.9</ele>
        <time>2022-06-28T09:20:41Z</time>
      </trkpt>
      <trkpt lat="49.03979" lon="2.03601">
        <ele>54.8</ele>
        <time>2022-06-28T09:20:45Z</time>
      </trkpt>
      <trkpt lat="49.03975" lon="2.03595">
        <ele>55.3</ele>
        <time>2022-06-28T09:20:49Z</time>
      </trkpt>
      <trkpt lat="49.03971" lon="2.03591">
        <ele>56.7</ele>
        <time>2022-06-28T09:20:52Z</time>
      </trkpt>
      <trkpt lat="49.03966" lon="2.03587">
        <ele>58.7</ele>
        <time>2022-06-28T09:20:57Z</time>
      </trkpt>
      <trkpt lat="49.0396" lon="2.03582">
        <ele>60.2</ele>
        <time>2022-06-28T09:21:02Z</time>
      </trkpt>
      <trkpt lat="49.03955" lon="2.03578">
        <ele>58.2</ele>
        <time>2022-06-28T09:21:06Z</time>
      </trkpt>
      <trkpt lat="49.0395" lon="2.03575">
        <ele>55.7</ele>
        <time>2022-06-28T09:21:10Z</time>
      </trkpt>
      <trkpt lat="49.03946" lon="2.03571">
        <ele>56.2</ele>
        <time>2022-06-28T09:21:14Z</time>
      </trkpt>
      <trkpt lat="49.03941" lon="2.03567">
        <ele>55.6</ele>
        <time>2022-06-28T09:21:18Z</time>
      </trkpt>
      <trkpt lat="49.03937" lon="2.03563">
        <ele>54.8</ele>
        <time>2022-06-28T09:21:22Z</time>
      </trkpt>
      <trkpt lat="49.03933" lon="2.03557">
        <ele>53.5</ele>
        <time>2022-06-28T09:21:26Z</time>
      </trkpt>
      <trkpt lat="49.03929" lon="2.03552">
        <ele>54.1</ele>
        <time>2022-06-28T09:21:30Z</time>
      </trkpt>
      <trkpt lat="49.03925" lon="2.03547">
        <ele>54.1</ele>
        <time>2022-06-28T09:21:34Z</time>
      </trkpt>
      <trkpt lat="49.03921" lon="2.03543">
        <ele>55.7</ele>
        <time>2022-06-28T09:21:38Z</time>
      </trkpt>
      <trkpt lat="49.03917" lon="2.03537">
        <ele>55.4</ele>
        <time>2022-06-28T09:21:42Z</time>
      </trkpt>
      <trkpt lat="49.03913" lon="2.03533">
        <ele>55.9</ele>
        <time>2022-06-28T09:21:46Z</time>
      </trkpt>
      <trkpt lat="49.03908" lon="2.03529">
        <ele>54.1</ele>
        <time>2022-06-28T09:21:50Z</time>
      </trkpt>
      <trkpt lat="49.03904" lon="2.03526">
        <ele>54.4</ele>
        <time>2022-06-28T09:21:54Z</time>
      </trkpt>
      <trkpt lat="49.03899" lon="2.03523">
        <ele>54.1</ele>
        <time>2022-06-28T09:21:58Z</time>
      </trkpt>
      <trkpt lat="49.03894" lon="2.03519">
        <ele>54.4</ele>
        <time>2022-06-28T09:22:02Z</time>
      </trkpt>
      <trkpt lat="49.0389" lon="2.03515">
        <ele>52</ele>
        <time>2022-06-28T09:22:06Z</time>
      </trkpt>
      <trkpt lat="49.03886" lon="2.0351">
        <ele>52</ele>
        <time>2022-06-28T09:22:10Z</time>
      </trkpt>
      <trkpt lat="49.03882" lon="2.03506">
        <ele>51.3</ele>
        <time>2022-06-28T09:22:14Z</time>
      </trkpt>
      <trkpt lat="49.03877" lon="2.03502">
        <ele>51.1</ele>
        <time>2022-06-28T09:22:18Z</time>
      </trkpt>
      <trkpt lat="49.03872" lon="2.03498">
        <ele>49.5</ele>
        <time>2022-06-28T09:22:23Z</time>
      </trkpt>
      <trkpt lat="49.03867" lon="2.03493">
        <ele>50.1</ele>
        <time>2022-06-28T09:22:28Z</time>
      </trkpt>
      <trkpt lat="49.03862" lon="2.03488">
        <ele>52.7</ele>
        <time>2022-06-28T09:22:32Z</time>
      </trkpt>
      <trkpt lat="49.03858" lon="2.03483">
        <ele>50.9</ele>
        <time>2022-06-28T09:22:36Z</time>
      </trkpt>
      <trkpt lat="49.03853" lon="2.03479">
        <ele>50.7</ele>
        <time>2022-06-28T09:22:40Z</time>
      </trkpt>
      <trkpt lat="49.03848" lon="2.03476">
        <ele>50.5</ele>
        <time>2022-06-28T09:22:44Z</time>
      </trkpt>
      <trkpt lat="49.03844" lon="2.03472">
        <ele>50</ele>
        <time>2022-06-28T09:22:48Z</time>
      </trkpt>
      <trkpt lat="49.0384" lon="2.03468">
        <ele>50.6</ele>
        <time>2022-06-28T09:22:52Z</time>
      </trkpt>
      <trkpt lat="49.03836" lon="2.03464">
        <ele>49.9</ele>
        <time>2022-06-28T09:22:56Z</time>
      </trkpt>
      <trkpt lat="49.03831" lon="2.03459">
        <ele>50.4</ele>
        <time>2022-06-28T09:23:00Z</time>
      </trkpt>
      <trkpt lat="49.03826" lon="2.03455">
        <ele>50.1</ele>
        <time>2022-06-28T09:23:05Z</time>
      </trkpt>
      <trkpt lat="49.03821" lon="2.03451">
        <ele>48.7</ele>
        <time>2022-06-28T09:23:09Z</time>
      </trkpt>
      <trkpt lat="49.03817" lon="2.03447">
        <ele>49.8</ele>
        <time>2022-06-28T09:23:13Z</time>
      </trkpt>
      <trkpt lat="49.03811" lon="2.03443">
        <ele>49.3</ele>
        <time>2022-06-28T09:23:18Z</time>
      </trkpt>
      <trkpt lat="49.03807" lon="2.0344">
        <ele>50.3</ele>
        <time>2022-06-28T09:23:22Z</time>
      </trkpt>
      <trkpt lat="49.03802" lon="2.03437">
        <ele>50.1</ele>
        <time>2022-06-28T09:23:26Z</time>
      </trkpt>
      <trkpt lat="49.03797" lon="2.03435">
        <ele>51.7</ele>
        <time>2022-06-28T09:23:30Z</time>
      </trkpt>
      <trkpt lat="49.03791" lon="2.03431">
        <ele>52.5</ele>
        <time>2022-06-28T09:23:34Z</time>
      </trkpt>
      <trkpt lat="49.03787" lon="2.03427">
        <ele>54.3</ele>
        <time>2022-06-28T09:23:38Z</time>
      </trkpt>
      <trkpt lat="49.03782" lon="2.03422">
        <ele>53.2</ele>
        <time>2022-06-28T09:23:42Z</time>
      </trkpt>
      <trkpt lat="49.03777" lon="2.03418">
        <ele>53.1</ele>
        <time>2022-06-28T09:23:46Z</time>
      </trkpt>
      <trkpt lat="49.03772" lon="2.03415">
        <ele>52</ele>
        <time>2022-06-28T09:23:50Z</time>
      </trkpt>
      <trkpt lat="49.03768" lon="2.03412">
        <ele>51.9</ele>
        <time>2022-06-28T09:23:54Z</time>
      </trkpt>
      <trkpt lat="49.03763" lon="2.03408">
        <ele>52</ele>
        <time>2022-06-28T09:23:58Z</time>
      </trkpt>
      <trkpt lat="49.03759" lon="2.03402">
        <ele>50.7</ele>
        <time>2022-06-28T09:24:02Z</time>
      </trkpt>
      <trkpt lat="49.03755" lon="2.03397">
        <ele>49.1</ele>
        <time>2022-06-28T09:24:06Z</time>
      </trkpt>
      <trkpt lat="49.03752" lon="2.03391">
        <ele>49.9</ele>
        <time>2022-06-28T09:24:10Z</time>
      </trkpt>
      <trkpt lat="49.03748" lon="2.03385">
        <ele>49.6</ele>
        <time>2022-06-28T09:24:15Z</time>
      </trkpt>
      <trkpt lat="49.03744" lon="2.03379">
        <ele>47.2</ele>
        <time>2022-06-28T09:24:19Z</time>
      </trkpt>
      <trkpt lat="49.0374" lon="2.03372">
        <ele>45.1</ele>
        <time>2022-06-28T09:24:24Z</time>
      </trkpt>
      <trkpt lat="49.03737" lon="2.03365">
        <ele>45.1</ele>
        <time>2022-06-28T09:24:28Z</time>
      </trkpt>
      <trkpt lat="49.03734" lon="2.0336">
        <ele>45.7</ele>
        <time>2022-06-28T09:24:32Z</time>
      </trkpt>
      <trkpt lat="49.0373" lon="2.03354">
        <ele>44.9</ele>
        <time>2022-06-28T09:24:36Z</time>
      </trkpt>
      <trkpt lat="49.03727" lon="2.03348">
        <ele>44.9</ele>
        <time>2022-06-28T09:24:40Z</time>
      </trkpt>
      <trkpt lat="49.03725" lon="2.03342">
        <ele>45.6</ele>
        <time>2022-06-28T09:24:44Z</time>
      </trkpt>
      <trkpt lat="49.03722" lon="2.03334">
        <ele>43.7</ele>
        <time>2022-06-28T09:24:48Z</time>
      </trkpt>
      <trkpt lat="49.03719" lon="2.03328">
        <ele>45.7</ele>
        <time>2022-06-28T09:24:52Z</time>
      </trkpt>
      <trkpt lat="49.03717" lon="2.03321">
        <ele>46.5</ele>
        <time>2022-06-28T09:24:56Z</time>
      </trkpt>
      <trkpt lat="49.03715" lon="2.03313">
        <ele>46.7</ele>
        <time>2022-06-28T09:25:00Z</time>
      </trkpt>
      <trkpt lat="49.03712" lon="2.03306">
        <ele>47.5</ele>
        <time>2022-06-28T09:25:04Z</time>
      </trkpt>
      <trkpt lat="49.0371" lon="2.03298">
        <ele>49.6</ele>
        <time>2022-06-28T09:25:08Z</time>
      </trkpt>
      <trkpt lat="49.03707" lon="2.03291">
        <ele>50.9</ele>
        <time>2022-06-28T09:25:13Z</time>
      </trkpt>
      <trkpt lat="49.03705" lon="2.03285">
        <ele>50.9</ele>
        <time>2022-06-28T09:25:16Z</time>
      </trkpt>
      <trkpt lat="49.03702" lon="2.03276">
        <ele>48.6</ele>
        <time>2022-06-28T09:25:21Z</time>
      </trkpt>
      <trkpt lat="49.03699" lon="2.03269">
        <ele>48.3</ele>
        <time>2022-06-28T09:25:25Z</time>
      </trkpt>
      <trkpt lat="49.03697" lon="2.03262">
        <ele>46.3</ele>
        <time>2022-06-28T09:25:28Z</time>
      </trkpt>
      <trkpt lat="49.03696" lon="2.03254">
        <ele>44.4</ele>
        <time>2022-06-28T09:25:33Z</time>
      </trkpt>
      <trkpt lat="49.03695" lon="2.03245">
        <ele>47.6</ele>
        <time>2022-06-28T09:25:38Z</time>
      </trkpt>
      <trkpt lat="49.03695" lon="2.03236">
        <ele>47.9</ele>
        <time>2022-06-28T09:25:42Z</time>
      </trkpt>
      <trkpt lat="49.03694" lon="2.03228">
        <ele>46.3</ele>
        <time>2022-06-28T09:25:46Z</time>
      </trkpt>
      <trkpt lat="49.03693" lon="2.0322">
        <ele>47.1</ele>
        <time>2022-06-28T09:25:50Z</time>
      </trkpt>
      <trkpt lat="49.03692" lon="2.03212">
        <ele>45.7</ele>
        <time>2022-06-28T09:25:54Z</time>
      </trkpt>
      <trkpt lat="49.03693" lon="2.03204">
        <ele>48.1</ele>
        <time>2022-06-28T09:25:58Z</time>
      </trkpt>
      <trkpt lat="49.03692" lon="2.03196">
        <ele>48</ele>
        <time>2022-06-28T09:26:02Z</time>
      </trkpt>
      <trkpt lat="49.03691" lon="2.03187">
        <ele>47.7</ele>
        <time>2022-06-28T09:26:06Z</time>
      </trkpt>
      <trkpt lat="49.0369" lon="2.0318">
        <ele>49.5</ele>
        <time>2022-06-28T09:26:09Z</time>
      </trkpt>
      <trkpt lat="49.03689" lon="2.03174">
        <ele>48.4</ele>
        <time>2022-06-28T09:26:13Z</time>
      </trkpt>
      <trkpt lat="49.03688" lon="2.03166">
        <ele>48</ele>
        <time>2022-06-28T09:26:17Z</time>
      </trkpt>
      <trkpt lat="49.03687" lon="2.03158">
        <ele>48.5</ele>
        <time>2022-06-28T09:26:21Z</time>
      </trkpt>
      <trkpt lat="49.03687" lon="2.03151">
        <ele>49.2</ele>
        <time>2022-06-28T09:26:24Z</time>
      </trkpt>
      <trkpt lat="49.03685" lon="2.03141">
        <ele>48.2</ele>
        <time>2022-06-28T09:26:29Z</time>
      </trkpt>
      <trkpt lat="49.03684" lon="2.03131">
        <ele>47.7</ele>
        <time>2022-06-28T09:26:34Z</time>
      </trkpt>
      <trkpt lat="49.03682" lon="2.03122">
        <ele>48.1</ele>
        <time>2022-06-28T09:26:39Z</time>
      </trkpt>
      <trkpt lat="49.03681" lon="2.03115">
        <ele>47.3</ele>
        <time>2022-06-28T09:26:44Z</time>
      </trkpt>
      <trkpt lat="49.0368" lon="2.03107">
        <ele>46</ele>
        <time>2022-06-28T09:26:48Z</time>
      </trkpt>
      <trkpt lat="49.03679" lon="2.03099">
        <ele>47.1</ele>
        <time>2022-06-28T09:26:52Z</time>
      </trkpt>
      <trkpt lat="49.03677" lon="2.03091">
        <ele>46.8</ele>
        <time>2022-06-28T09:26:56Z</time>
      </trkpt>
      <trkpt lat="49.03675" lon="2.03084">
        <ele>48.2</ele>
        <time>2022-06-28T09:27:00Z</time>
      </trkpt>
      <trkpt lat="49.03674" lon="2.03076">
        <ele>49</ele>
        <time>2022-06-28T09:27:04Z</time>
      </trkpt>
      <trkpt lat="49.03672" lon="2.03068">
        <ele>48</ele>
        <time>2022-06-28T09:27:08Z</time>
      </trkpt>
      <trkpt lat="49.0367" lon="2.03061">
        <ele>47.6</ele>
        <time>2022-06-28T09:27:13Z</time>
      </trkpt>
      <trkpt lat="49.03667" lon="2.03053">
        <ele>46.3</ele>
        <time>2022-06-28T09:27:17Z</time>
      </trkpt>
      <trkpt lat="49.03665" lon="2.03047">
        <ele>46.2</ele>
        <time>2022-06-28T09:27:21Z</time>
      </trkpt>
      <trkpt lat="49.03663" lon="2.0304">
        <ele>46.5</ele>
        <time>2022-06-28T09:27:24Z</time>
      </trkpt>
      <trkpt lat="49.03661" lon="2.03032">
        <ele>46.6</ele>
        <time>2022-06-28T09:27:28Z</time>
      </trkpt>
      <trkpt lat="49.03658" lon="2.03025">
        <ele>44.2</ele>
        <time>2022-06-28T09:27:32Z</time>
      </trkpt>
      <trkpt lat="49.03655" lon="2.03018">
        <ele>44.2</ele>
        <time>2022-06-28T09:27:36Z</time>
      </trkpt>
      <trkpt lat="49.03652" lon="2.03012">
        <ele>42.9</ele>
        <time>2022-06-28T09:27:40Z</time>
      </trkpt>
      <trkpt lat="49.03648" lon="2.03007">
        <ele>43</ele>
        <time>2022-06-28T09:27:44Z</time>
      </trkpt>
      <trkpt lat="49.03643" lon="2.03002">
        <ele>44.1</ele>
        <time>2022-06-28T09:27:48Z</time>
      </trkpt>
      <trkpt lat="49.03639" lon="2.02998">
        <ele>41.9</ele>
        <time>2022-06-28T09:27:52Z</time>
      </trkpt>
      <trkpt lat="49.03635" lon="2.02994">
        <ele>41.9</ele>
        <time>2022-06-28T09:27:56Z</time>
      </trkpt>
      <trkpt lat="49.0363" lon="2.02989">
        <ele>39.8</ele>
        <time>2022-06-28T09:28:00Z</time>
      </trkpt>
      <trkpt lat="49.03626" lon="2.02986">
        <ele>41.3</ele>
        <time>2022-06-28T09:28:04Z</time>
      </trkpt>
      <trkpt lat="49.03621" lon="2.02982">
        <ele>41.8</ele>
        <time>2022-06-28T09:28:08Z</time>
      </trkpt>
      <trkpt lat="49.03617" lon="2.02979">
        <ele>41.9</ele>
        <time>2022-06-28T09:28:12Z</time>
      </trkpt>
      <trkpt lat="49.03613" lon="2.02976">
        <ele>41.7</ele>
        <time>2022-06-28T09:28:15Z</time>
      </trkpt>
      <trkpt lat="49.03607" lon="2.02973">
        <ele>44</ele>
        <time>2022-06-28T09:28:19Z</time>
      </trkpt>
      <trkpt lat="49.03602" lon="2.02971">
        <ele>42.3</ele>
        <time>2022-06-28T09:28:23Z</time>
      </trkpt>
      <trkpt lat="49.03596" lon="2.02969">
        <ele>40</ele>
        <time>2022-06-28T09:28:27Z</time>
      </trkpt>
      <trkpt lat="49.03592" lon="2.02967">
        <ele>41.7</ele>
        <time>2022-06-28T09:28:31Z</time>
      </trkpt>
      <trkpt lat="49.03588" lon="2.02965">
        <ele>42.9</ele>
        <time>2022-06-28T09:28:34Z</time>
      </trkpt>
      <trkpt lat="49.03583" lon="2.02963">
        <ele>42.7</ele>
        <time>2022-06-28T09:28:37Z</time>
      </trkpt>
      <trkpt lat="49.03578" lon="2.02962">
        <ele>42.3</ele>
        <time>2022-06-28T09:28:42Z</time>
      </trkpt>
      <trkpt lat="49.03573" lon="2.02961">
        <ele>41.8</ele>
        <time>2022-06-28T09:28:45Z</time>
      </trkpt>
      <trkpt lat="49.03568" lon="2.02961">
        <ele>40</ele>
        <time>2022-06-28T09:28:49Z</time>
      </trkpt>
      <trkpt lat="49.03562" lon="2.02962">
        <ele>42.5</ele>
        <time>2022-06-28T09:28:53Z</time>
      </trkpt>
      <trkpt lat="49.03557" lon="2.02963">
        <ele>43.5</ele>
        <time>2022-06-28T09:28:58Z</time>
      </trkpt>
      <trkpt lat="49.03552" lon="2.02965">
        <ele>39.8</ele>
        <time>2022-06-28T09:29:02Z</time>
      </trkpt>
      <trkpt lat="49.03547" lon="2.02967">
        <ele>38</ele>
        <time>2022-06-28T09:29:06Z</time>
      </trkpt>
      <trkpt lat="49.03542" lon="2.02968">
        <ele>36.8</ele>
        <time>2022-06-28T09:29:10Z</time>
      </trkpt>
      <trkpt lat="49.03537" lon="2.0297">
        <ele>37.3</ele>
        <time>2022-06-28T09:29:14Z</time>
      </trkpt>
      <trkpt lat="49.03532" lon="2.02972">
        <ele>40.7</ele>
        <time>2022-06-28T09:29:18Z</time>
      </trkpt>
      <trkpt lat="49.03527" lon="2.02974">
        <ele>40.6</ele>
        <time>2022-06-28T09:29:22Z</time>
      </trkpt>
      <trkpt lat="49.03521" lon="2.02976">
        <ele>41.7</ele>
        <time>2022-06-28T09:29:26Z</time>
      </trkpt>
      <trkpt lat="49.03516" lon="2.02978">
        <ele>45.2</ele>
        <time>2022-06-28T09:29:30Z</time>
      </trkpt>
      <trkpt lat="49.03512" lon="2.02982">
        <ele>47.4</ele>
        <time>2022-06-28T09:29:35Z</time>
      </trkpt>
      <trkpt lat="49.03508" lon="2.02987">
        <ele>46.9</ele>
        <time>2022-06-28T09:29:39Z</time>
      </trkpt>
      <trkpt lat="49.03503" lon="2.0299">
        <ele>46.4</ele>
        <time>2022-06-28T09:29:44Z</time>
      </trkpt>
      <trkpt lat="49.03498" lon="2.02991">
        <ele>46.7</ele>
        <time>2022-06-28T09:29:49Z</time>
      </trkpt>
      <trkpt lat="49.03496" lon="2.03">
        <ele>47.9</ele>
        <time>2022-06-28T09:29:56Z</time>
      </trkpt>
      <trkpt lat="49.03497" lon="2.03007">
        <ele>48.9</ele>
        <time>2022-06-28T09:30:01Z</time>
      </trkpt>
      <trkpt lat="49.035" lon="2.03002">
        <ele>47.1</ele>
        <time>2022-06-28T09:30:17Z</time>
      </trkpt>
      <trkpt lat="49.03501" lon="2.02994">
        <ele>45.5</ele>
        <time>2022-06-28T09:33:35Z</time>
      </trkpt>
      <trkpt lat="49.03501" lon="2.03001">
        <ele>46.3</ele>
        <time>2022-06-28T09:35:37Z</time>
      </trkpt>
      <trkpt lat="49.03502" lon="2.0301">
        <ele>47.3</ele>
        <time>2022-06-28T09:35:42Z</time>
      </trkpt>
      <trkpt lat="49.03503" lon="2.03017">
        <ele>47</ele>
        <time>2022-06-28T09:35:45Z</time>
      </trkpt>
      <trkpt lat="49.03505" lon="2.03026">
        <ele>47.7</ele>
        <time>2022-06-28T09:35:48Z</time>
      </trkpt>
      <trkpt lat="49.03506" lon="2.03033">
        <ele>48.4</ele>
        <time>2022-06-28T09:35:51Z</time>
      </trkpt>
      <trkpt lat="49.03507" lon="2.03043">
        <ele>48.5</ele>
        <time>2022-06-28T09:35:55Z</time>
      </trkpt>
      <trkpt lat="49.03503" lon="2.03048">
        <ele>48.9</ele>
        <time>2022-06-28T09:35:59Z</time>
      </trkpt>
      <trkpt lat="49.03501" lon="2.03054">
        <ele>46.4</ele>
        <time>2022-06-28T09:36:03Z</time>
      </trkpt>
      <trkpt lat="49.03501" lon="2.03062">
        <ele>45</ele>
        <time>2022-06-28T09:36:07Z</time>
      </trkpt>
      <trkpt lat="49.03501" lon="2.0307">
        <ele>43.7</ele>
        <time>2022-06-28T09:36:12Z</time>
      </trkpt>
      <trkpt lat="49.03498" lon="2.03078">
        <ele>44.8</ele>
        <time>2022-06-28T09:36:17Z</time>
      </trkpt>
      <trkpt lat="49.03495" lon="2.03083">
        <ele>43.6</ele>
        <time>2022-06-28T09:36:21Z</time>
      </trkpt>
      <trkpt lat="49.03491" lon="2.03088">
        <ele>43.6</ele>
        <time>2022-06-28T09:36:25Z</time>
      </trkpt>
      <trkpt lat="49.03487" lon="2.03093">
        <ele>44.8</ele>
        <time>2022-06-28T09:36:30Z</time>
      </trkpt>
      <trkpt lat="49.03484" lon="2.031">
        <ele>46.1</ele>
        <time>2022-06-28T09:36:35Z</time>
      </trkpt>
      <trkpt lat="49.03482" lon="2.03106">
        <ele>45.9</ele>
        <time>2022-06-28T09:36:39Z</time>
      </trkpt>
      <trkpt lat="49.03479" lon="2.03112">
        <ele>44.6</ele>
        <time>2022-06-28T09:36:43Z</time>
      </trkpt>
      <trkpt lat="49.03476" lon="2.03119">
        <ele>43.8</ele>
        <time>2022-06-28T09:36:47Z</time>
      </trkpt>
      <trkpt lat="49.03474" lon="2.03126">
        <ele>44.1</ele>
        <time>2022-06-28T09:36:51Z</time>
      </trkpt>
      <trkpt lat="49.03471" lon="2.03132">
        <ele>46.5</ele>
        <time>2022-06-28T09:36:55Z</time>
      </trkpt>
      <trkpt lat="49.03468" lon="2.03138">
        <ele>46</ele>
        <time>2022-06-28T09:36:59Z</time>
      </trkpt>
      <trkpt lat="49.03463" lon="2.0314">
        <ele>43.8</ele>
        <time>2022-06-28T09:37:04Z</time>
      </trkpt>
      <trkpt lat="49.03458" lon="2.03138">
        <ele>44.2</ele>
        <time>2022-06-28T09:37:08Z</time>
      </trkpt>
      <trkpt lat="49.03453" lon="2.03135">
        <ele>45.5</ele>
        <time>2022-06-28T09:37:12Z</time>
      </trkpt>
      <trkpt lat="49.03448" lon="2.03132">
        <ele>45.3</ele>
        <time>2022-06-28T09:37:17Z</time>
      </trkpt>
      <trkpt lat="49.03443" lon="2.0313">
        <ele>46</ele>
        <time>2022-06-28T09:37:22Z</time>
      </trkpt>
      <trkpt lat="49.03438" lon="2.0313">
        <ele>46.6</ele>
        <time>2022-06-28T09:37:27Z</time>
      </trkpt>
      <trkpt lat="49.03432" lon="2.03132">
        <ele>47.3</ele>
        <time>2022-06-28T09:37:32Z</time>
      </trkpt>
      <trkpt lat="49.03427" lon="2.03133">
        <ele>48.4</ele>
        <time>2022-06-28T09:37:37Z</time>
      </trkpt>
      <trkpt lat="49.03422" lon="2.03132">
        <ele>47.5</ele>
        <time>2022-06-28T09:37:41Z</time>
      </trkpt>
      <trkpt lat="49.03417" lon="2.03133">
        <ele>46.2</ele>
        <time>2022-06-28T09:37:46Z</time>
      </trkpt>
      <trkpt lat="49.03413" lon="2.03137">
        <ele>46</ele>
        <time>2022-06-28T09:37:50Z</time>
      </trkpt>
      <trkpt lat="49.0341" lon="2.03142">
        <ele>44.6</ele>
        <time>2022-06-28T09:37:54Z</time>
      </trkpt>
      <trkpt lat="49.03406" lon="2.03148">
        <ele>45.8</ele>
        <time>2022-06-28T09:37:58Z</time>
      </trkpt>
      <trkpt lat="49.03401" lon="2.03151">
        <ele>45.1</ele>
        <time>2022-06-28T09:38:02Z</time>
      </trkpt>
      <trkpt lat="49.03397" lon="2.03153">
        <ele>43.9</ele>
        <time>2022-06-28T09:38:06Z</time>
      </trkpt>
      <trkpt lat="49.03391" lon="2.03156">
        <ele>40.4</ele>
        <time>2022-06-28T09:38:11Z</time>
      </trkpt>
      <trkpt lat="49.03387" lon="2.03158">
        <ele>39.2</ele>
        <time>2022-06-28T09:38:15Z</time>
      </trkpt>
      <trkpt lat="49.03382" lon="2.03158">
        <ele>40.3</ele>
        <time>2022-06-28T09:38:19Z</time>
      </trkpt>
      <trkpt lat="49.03377" lon="2.03158">
        <ele>41.1</ele>
        <time>2022-06-28T09:38:23Z</time>
      </trkpt>
      <trkpt lat="49.03372" lon="2.03159">
        <ele>43.3</ele>
        <time>2022-06-28T09:38:27Z</time>
      </trkpt>
      <trkpt lat="49.03367" lon="2.03156">
        <ele>45.1</ele>
        <time>2022-06-28T09:38:31Z</time>
      </trkpt>
      <trkpt lat="49.03367" lon="2.03147">
        <ele>49.1</ele>
        <time>2022-06-28T09:38:36Z</time>
      </trkpt>
      <trkpt lat="49.03368" lon="2.03139">
        <ele>51.5</ele>
        <time>2022-06-28T09:38:40Z</time>
      </trkpt>
      <trkpt lat="49.03368" lon="2.03131">
        <ele>49.9</ele>
        <time>2022-06-28T09:38:44Z</time>
      </trkpt>
      <trkpt lat="49.0337" lon="2.03124">
        <ele>45.7</ele>
        <time>2022-06-28T09:38:48Z</time>
      </trkpt>
      <trkpt lat="49.03372" lon="2.03117">
        <ele>48.9</ele>
        <time>2022-06-28T09:38:52Z</time>
      </trkpt>
      <trkpt lat="49.03375" lon="2.0311">
        <ele>51.5</ele>
        <time>2022-06-28T09:38:57Z</time>
      </trkpt>
      <trkpt lat="49.03378" lon="2.03105">
        <ele>52.4</ele>
        <time>2022-06-28T09:39:02Z</time>
      </trkpt>
      <trkpt lat="49.03381" lon="2.031">
        <ele>54.5</ele>
        <time>2022-06-28T09:39:07Z</time>
      </trkpt>
      <trkpt lat="49.03381" lon="2.03091">
        <ele>54</ele>
        <time>2022-06-28T09:39:12Z</time>
      </trkpt>
      <trkpt lat="49.03382" lon="2.03084">
        <ele>54.7</ele>
        <time>2022-06-28T09:39:18Z</time>
      </trkpt>
      <trkpt lat="49.03384" lon="2.03076">
        <ele>53.6</ele>
        <time>2022-06-28T09:39:24Z</time>
      </trkpt>
      <trkpt lat="49.03385" lon="2.03069">
        <ele>54.8</ele>
        <time>2022-06-28T09:39:29Z</time>
      </trkpt>
      <trkpt lat="49.03386" lon="2.03062">
        <ele>53.5</ele>
        <time>2022-06-28T09:39:34Z</time>
      </trkpt>
      <trkpt lat="49.03389" lon="2.03054">
        <ele>55.8</ele>
        <time>2022-06-28T09:39:39Z</time>
      </trkpt>
      <trkpt lat="49.03391" lon="2.03046">
        <ele>56.4</ele>
        <time>2022-06-28T09:39:44Z</time>
      </trkpt>
      <trkpt lat="49.03393" lon="2.03039">
        <ele>55</ele>
        <time>2022-06-28T09:39:48Z</time>
      </trkpt>
      <trkpt lat="49.03395" lon="2.03032">
        <ele>58.5</ele>
        <time>2022-06-28T09:39:53Z</time>
      </trkpt>
      <trkpt lat="49.03397" lon="2.03023">
        <ele>60.8</ele>
        <time>2022-06-28T09:39:57Z</time>
      </trkpt>
      <trkpt lat="49.03398" lon="2.03016">
        <ele>60.4</ele>
        <time>2022-06-28T09:40:01Z</time>
      </trkpt>
      <trkpt lat="49.034" lon="2.03008">
        <ele>60</ele>
        <time>2022-06-28T09:40:05Z</time>
      </trkpt>
      <trkpt lat="49.03401" lon="2.03001">
        <ele>62.5</ele>
        <time>2022-06-28T09:40:10Z</time>
      </trkpt>
      <trkpt lat="49.03403" lon="2.02994">
        <ele>63.9</ele>
        <time>2022-06-28T09:40:14Z</time>
      </trkpt>
      <trkpt lat="49.03405" lon="2.02986">
        <ele>62.8</ele>
        <time>2022-06-28T09:40:19Z</time>
      </trkpt>
      <trkpt lat="49.03407" lon="2.02979">
        <ele>62.5</ele>
        <time>2022-06-28T09:40:24Z</time>
      </trkpt>
      <trkpt lat="49.03408" lon="2.02972">
        <ele>63.1</ele>
        <time>2022-06-28T09:40:28Z</time>
      </trkpt>
      <trkpt lat="49.03408" lon="2.02963">
        <ele>64.6</ele>
        <time>2022-06-28T09:40:33Z</time>
      </trkpt>
      <trkpt lat="49.03408" lon="2.02956">
        <ele>64.4</ele>
        <time>2022-06-28T09:40:37Z</time>
      </trkpt>
      <trkpt lat="49.03404" lon="2.0296">
        <ele>61.5</ele>
        <time>2022-06-28T09:40:43Z</time>
      </trkpt>
      <trkpt lat="49.03403" lon="2.02968">
        <ele>61.8</ele>
        <time>2022-06-28T09:40:48Z</time>
      </trkpt>
      <trkpt lat="49.03402" lon="2.02976">
        <ele>60.7</ele>
        <time>2022-06-28T09:40:52Z</time>
      </trkpt>
      <trkpt lat="49.034" lon="2.02983">
        <ele>62.9</ele>
        <time>2022-06-28T09:40:56Z</time>
      </trkpt>
      <trkpt lat="49.03399" lon="2.02991">
        <ele>62</ele>
        <time>2022-06-28T09:41:00Z</time>
      </trkpt>
      <trkpt lat="49.03397" lon="2.02998">
        <ele>62.3</ele>
        <time>2022-06-28T09:41:05Z</time>
      </trkpt>
      <trkpt lat="49.03393" lon="2.03003">
        <ele>64.1</ele>
        <time>2022-06-28T09:41:09Z</time>
      </trkpt>
      <trkpt lat="49.03388" lon="2.03004">
        <ele>68</ele>
        <time>2022-06-28T09:41:14Z</time>
      </trkpt>
      <trkpt lat="49.03383" lon="2.03004">
        <ele>66.7</ele>
        <time>2022-06-28T09:41:18Z</time>
      </trkpt>
      <trkpt lat="49.03377" lon="2.03003">
        <ele>66.1</ele>
        <time>2022-06-28T09:41:22Z</time>
      </trkpt>
      <trkpt lat="49.03372" lon="2.03002">
        <ele>67.3</ele>
        <time>2022-06-28T09:41:27Z</time>
      </trkpt>
      <trkpt lat="49.03367" lon="2.03">
        <ele>70.6</ele>
        <time>2022-06-28T09:41:31Z</time>
      </trkpt>
      <trkpt lat="49.03362" lon="2.02997">
        <ele>70.6</ele>
        <time>2022-06-28T09:41:36Z</time>
      </trkpt>
      <trkpt lat="49.03357" lon="2.02992">
        <ele>73.2</ele>
        <time>2022-06-28T09:41:41Z</time>
      </trkpt>
      <trkpt lat="49.03353" lon="2.02987">
        <ele>72.8</ele>
        <time>2022-06-28T09:41:48Z</time>
      </trkpt>
      <trkpt lat="49.03348" lon="2.02983">
        <ele>70.4</ele>
        <time>2022-06-28T09:41:53Z</time>
      </trkpt>
      <trkpt lat="49.03344" lon="2.02985">
        <ele>73.4</ele>
        <time>2022-06-28T09:41:57Z</time>
      </trkpt>
      <trkpt lat="49.03339" lon="2.02989">
        <ele>73.7</ele>
        <time>2022-06-28T09:42:02Z</time>
      </trkpt>
      <trkpt lat="49.03334" lon="2.02992">
        <ele>75</ele>
        <time>2022-06-28T09:42:06Z</time>
      </trkpt>
      <trkpt lat="49.0333" lon="2.02991">
        <ele>74.8</ele>
        <time>2022-06-28T09:42:11Z</time>
      </trkpt>
      <trkpt lat="49.03326" lon="2.02984">
        <ele>76.1</ele>
        <time>2022-06-28T09:42:16Z</time>
      </trkpt>
      <trkpt lat="49.03324" lon="2.02977">
        <ele>76.1</ele>
        <time>2022-06-28T09:42:19Z</time>
      </trkpt>
      <trkpt lat="49.03322" lon="2.02969">
        <ele>73</ele>
        <time>2022-06-28T09:42:24Z</time>
      </trkpt>
      <trkpt lat="49.03319" lon="2.02962">
        <ele>71.2</ele>
        <time>2022-06-28T09:42:28Z</time>
      </trkpt>
      <trkpt lat="49.03317" lon="2.02956">
        <ele>70.8</ele>
        <time>2022-06-28T09:42:33Z</time>
      </trkpt>
      <trkpt lat="49.03317" lon="2.02949">
        <ele>71.9</ele>
        <time>2022-06-28T09:42:37Z</time>
      </trkpt>
      <trkpt lat="49.03314" lon="2.02943">
        <ele>72.3</ele>
        <time>2022-06-28T09:42:43Z</time>
      </trkpt>
      <trkpt lat="49.03309" lon="2.02941">
        <ele>76.1</ele>
        <time>2022-06-28T09:42:47Z</time>
      </trkpt>
      <trkpt lat="49.03304" lon="2.02939">
        <ele>74.8</ele>
        <time>2022-06-28T09:42:52Z</time>
      </trkpt>
      <trkpt lat="49.03299" lon="2.02944">
        <ele>76.9</ele>
        <time>2022-06-28T09:42:56Z</time>
      </trkpt>
      <trkpt lat="49.03295" lon="2.02946">
        <ele>80</ele>
        <time>2022-06-28T09:43:00Z</time>
      </trkpt>
      <trkpt lat="49.03291" lon="2.02942">
        <ele>83.1</ele>
        <time>2022-06-28T09:43:06Z</time>
      </trkpt>
      <trkpt lat="49.03285" lon="2.02939">
        <ele>83.7</ele>
        <time>2022-06-28T09:43:11Z</time>
      </trkpt>
      <trkpt lat="49.03281" lon="2.02935">
        <ele>83.6</ele>
        <time>2022-06-28T09:43:16Z</time>
      </trkpt>
      <trkpt lat="49.03277" lon="2.02934">
        <ele>83.8</ele>
        <time>2022-06-28T09:43:21Z</time>
      </trkpt>
      <trkpt lat="49.03273" lon="2.02938">
        <ele>83.6</ele>
        <time>2022-06-28T09:43:25Z</time>
      </trkpt>
      <trkpt lat="49.03269" lon="2.02942">
        <ele>84.9</ele>
        <time>2022-06-28T09:43:29Z</time>
      </trkpt>
      <trkpt lat="49.03264" lon="2.02944">
        <ele>88</ele>
        <time>2022-06-28T09:43:34Z</time>
      </trkpt>
      <trkpt lat="49.03259" lon="2.02941">
        <ele>87</ele>
        <time>2022-06-28T09:43:39Z</time>
      </trkpt>
      <trkpt lat="49.03254" lon="2.02938">
        <ele>88.6</ele>
        <time>2022-06-28T09:43:43Z</time>
      </trkpt>
      <trkpt lat="49.03249" lon="2.02934">
        <ele>87.7</ele>
        <time>2022-06-28T09:43:48Z</time>
      </trkpt>
      <trkpt lat="49.03246" lon="2.02928">
        <ele>90</ele>
        <time>2022-06-28T09:43:53Z</time>
      </trkpt>
      <trkpt lat="49.03241" lon="2.02927">
        <ele>87.8</ele>
        <time>2022-06-28T09:43:58Z</time>
      </trkpt>
      <trkpt lat="49.03236" lon="2.02927">
        <ele>88.6</ele>
        <time>2022-06-28T09:44:03Z</time>
      </trkpt>
      <trkpt lat="49.0323" lon="2.02927">
        <ele>88.3</ele>
        <time>2022-06-28T09:44:08Z</time>
      </trkpt>
      <trkpt lat="49.03225" lon="2.02928">
        <ele>89.9</ele>
        <time>2022-06-28T09:44:13Z</time>
      </trkpt>
      <trkpt lat="49.03219" lon="2.02929">
        <ele>90.3</ele>
        <time>2022-06-28T09:44:18Z</time>
      </trkpt>
      <trkpt lat="49.03215" lon="2.02928">
        <ele>90.1</ele>
        <time>2022-06-28T09:44:22Z</time>
      </trkpt>
      <trkpt lat="49.0321" lon="2.02925">
        <ele>89.7</ele>
        <time>2022-06-28T09:44:26Z</time>
      </trkpt>
      <trkpt lat="49.03207" lon="2.0292">
        <ele>86.2</ele>
        <time>2022-06-28T09:44:30Z</time>
      </trkpt>
      <trkpt lat="49.03205" lon="2.02913">
        <ele>85.5</ele>
        <time>2022-06-28T09:44:35Z</time>
      </trkpt>
      <trkpt lat="49.03204" lon="2.02906">
        <ele>86.3</ele>
        <time>2022-06-28T09:44:39Z</time>
      </trkpt>
      <trkpt lat="49.03202" lon="2.02897">
        <ele>84.6</ele>
        <time>2022-06-28T09:44:44Z</time>
      </trkpt>
      <trkpt lat="49.032" lon="2.0289">
        <ele>85.1</ele>
        <time>2022-06-28T09:44:48Z</time>
      </trkpt>
      <trkpt lat="49.03196" lon="2.02884">
        <ele>85.3</ele>
        <time>2022-06-28T09:44:52Z</time>
      </trkpt>
      <trkpt lat="49.03194" lon="2.02877">
        <ele>84.2</ele>
        <time>2022-06-28T09:44:57Z</time>
      </trkpt>
      <trkpt lat="49.03192" lon="2.02869">
        <ele>83.3</ele>
        <time>2022-06-28T09:45:01Z</time>
      </trkpt>
      <trkpt lat="49.03191" lon="2.02862">
        <ele>83.5</ele>
        <time>2022-06-28T09:45:06Z</time>
      </trkpt>
      <trkpt lat="49.03186" lon="2.02863">
        <ele>80.3</ele>
        <time>2022-06-28T09:48:02Z</time>
      </trkpt>
      <trkpt lat="49.0318" lon="2.02864">
        <ele>81.2</ele>
        <time>2022-06-28T09:48:07Z</time>
      </trkpt>
      <trkpt lat="49.03175" lon="2.02867">
        <ele>81.8</ele>
        <time>2022-06-28T09:48:11Z</time>
      </trkpt>
      <trkpt lat="49.03171" lon="2.0287">
        <ele>80.6</ele>
        <time>2022-06-28T09:48:15Z</time>
      </trkpt>
      <trkpt lat="49.03166" lon="2.02872">
        <ele>82</ele>
        <time>2022-06-28T09:48:19Z</time>
      </trkpt>
      <trkpt lat="49.0316" lon="2.02874">
        <ele>81.2</ele>
        <time>2022-06-28T09:48:23Z</time>
      </trkpt>
      <trkpt lat="49.03156" lon="2.02875">
        <ele>83.2</ele>
        <time>2022-06-28T09:48:27Z</time>
      </trkpt>
      <trkpt lat="49.03151" lon="2.02878">
        <ele>83.2</ele>
        <time>2022-06-28T09:48:31Z</time>
      </trkpt>
      <trkpt lat="49.03147" lon="2.02881">
        <ele>83.1</ele>
        <time>2022-06-28T09:48:35Z</time>
      </trkpt>
      <trkpt lat="49.03142" lon="2.02882">
        <ele>82.1</ele>
        <time>2022-06-28T09:48:40Z</time>
      </trkpt>
      <trkpt lat="49.03137" lon="2.02883">
        <ele>80.1</ele>
        <time>2022-06-28T09:48:44Z</time>
      </trkpt>
      <trkpt lat="49.03132" lon="2.02885">
        <ele>83.2</ele>
        <time>2022-06-28T09:48:48Z</time>
      </trkpt>
      <trkpt lat="49.03128" lon="2.02887">
        <ele>81.4</ele>
        <time>2022-06-28T09:48:53Z</time>
      </trkpt>
      <trkpt lat="49.03123" lon="2.02889">
        <ele>80.1</ele>
        <time>2022-06-28T09:48:57Z</time>
      </trkpt>
      <trkpt lat="49.03119" lon="2.02891">
        <ele>77.9</ele>
        <time>2022-06-28T09:49:02Z</time>
      </trkpt>
      <trkpt lat="49.03114" lon="2.02892">
        <ele>76.7</ele>
        <time>2022-06-28T09:49:06Z</time>
      </trkpt>
      <trkpt lat="49.03108" lon="2.0289">
        <ele>79.6</ele>
        <time>2022-06-28T09:49:12Z</time>
      </trkpt>
      <trkpt lat="49.03103" lon="2.0289">
        <ele>78.8</ele>
        <time>2022-06-28T09:49:16Z</time>
      </trkpt>
      <trkpt lat="49.03099" lon="2.02892">
        <ele>78.6</ele>
        <time>2022-06-28T09:49:21Z</time>
      </trkpt>
      <trkpt lat="49.03094" lon="2.02893">
        <ele>79</ele>
        <time>2022-06-28T09:49:28Z</time>
      </trkpt>
      <trkpt lat="49.03091" lon="2.02904">
        <ele>75.6</ele>
        <time>2022-06-28T09:49:53Z</time>
      </trkpt>
      <trkpt lat="49.03092" lon="2.02912">
        <ele>81</ele>
        <time>2022-06-28T09:49:59Z</time>
      </trkpt>
      <trkpt lat="49.03088" lon="2.02908">
        <ele>88.2</ele>
        <time>2022-06-28T09:50:44Z</time>
      </trkpt>
      <trkpt lat="49.03086" lon="2.02902">
        <ele>87.3</ele>
        <time>2022-06-28T09:51:59Z</time>
      </trkpt>
      <trkpt lat="49.03084" lon="2.02894">
        <ele>87.4</ele>
        <time>2022-06-28T09:52:05Z</time>
      </trkpt>
      <trkpt lat="49.03086" lon="2.02886">
        <ele>86.2</ele>
        <time>2022-06-28T09:52:11Z</time>
      </trkpt>
      <trkpt lat="49.0309" lon="2.02889">
        <ele>83.8</ele>
        <time>2022-06-28T09:52:30Z</time>
      </trkpt>
      <trkpt lat="49.03095" lon="2.02888">
        <ele>84.1</ele>
        <time>2022-06-28T09:52:35Z</time>
      </trkpt>
      <trkpt lat="49.031" lon="2.02885">
        <ele>82.1</ele>
        <time>2022-06-28T09:52:39Z</time>
      </trkpt>
      <trkpt lat="49.03105" lon="2.02883">
        <ele>83.3</ele>
        <time>2022-06-28T09:52:43Z</time>
      </trkpt>
      <trkpt lat="49.0311" lon="2.02882">
        <ele>86.7</ele>
        <time>2022-06-28T09:52:47Z</time>
      </trkpt>
      <trkpt lat="49.03115" lon="2.02884">
        <ele>85.6</ele>
        <time>2022-06-28T09:52:53Z</time>
      </trkpt>
      <trkpt lat="49.0312" lon="2.02886">
        <ele>84.1</ele>
        <time>2022-06-28T09:52:59Z</time>
      </trkpt>
      <trkpt lat="49.03125" lon="2.02884">
        <ele>87</ele>
        <time>2022-06-28T09:53:04Z</time>
      </trkpt>
      <trkpt lat="49.03129" lon="2.02891">
        <ele>84.1</ele>
        <time>2022-06-28T09:53:12Z</time>
      </trkpt>
      <trkpt lat="49.03129" lon="2.02899">
        <ele>81.7</ele>
        <time>2022-06-28T09:53:17Z</time>
      </trkpt>
      <trkpt lat="49.03128" lon="2.02907">
        <ele>80.7</ele>
        <time>2022-06-28T09:53:22Z</time>
      </trkpt>
      <trkpt lat="49.03129" lon="2.02916">
        <ele>80.9</ele>
        <time>2022-06-28T09:53:27Z</time>
      </trkpt>
      <trkpt lat="49.03127" lon="2.02923">
        <ele>82.1</ele>
        <time>2022-06-28T09:53:31Z</time>
      </trkpt>
      <trkpt lat="49.03125" lon="2.0293">
        <ele>80.2</ele>
        <time>2022-06-28T09:53:35Z</time>
      </trkpt>
      <trkpt lat="49.03124" lon="2.02937">
        <ele>82.3</ele>
        <time>2022-06-28T09:53:40Z</time>
      </trkpt>
      <trkpt lat="49.03123" lon="2.02944">
        <ele>82.2</ele>
        <time>2022-06-28T09:53:45Z</time>
      </trkpt>
      <trkpt lat="49.03124" lon="2.02951">
        <ele>82</ele>
        <time>2022-06-28T09:53:50Z</time>
      </trkpt>
      <trkpt lat="49.03127" lon="2.02956">
        <ele>81.9</ele>
        <time>2022-06-28T09:53:53Z</time>
      </trkpt>
      <trkpt lat="49.03129" lon="2.02964">
        <ele>79.7</ele>
        <time>2022-06-28T09:53:58Z</time>
      </trkpt>
      <trkpt lat="49.0313" lon="2.02971">
        <ele>77.1</ele>
        <time>2022-06-28T09:54:05Z</time>
      </trkpt>
      <trkpt lat="49.03131" lon="2.02978">
        <ele>77.2</ele>
        <time>2022-06-28T09:54:12Z</time>
      </trkpt>
      <trkpt lat="49.03132" lon="2.02986">
        <ele>76.6</ele>
        <time>2022-06-28T09:54:19Z</time>
      </trkpt>
      <trkpt lat="49.03132" lon="2.02994">
        <ele>77.6</ele>
        <time>2022-06-28T09:54:27Z</time>
      </trkpt>
      <trkpt lat="49.03129" lon="2.02999">
        <ele>78.1</ele>
        <time>2022-06-28T09:54:36Z</time>
      </trkpt>
      <trkpt lat="49.03125" lon="2.03002">
        <ele>78.5</ele>
        <time>2022-06-28T09:54:43Z</time>
      </trkpt>
      <trkpt lat="49.03121" lon="2.03006">
        <ele>80.3</ele>
        <time>2022-06-28T09:54:50Z</time>
      </trkpt>
      <trkpt lat="49.0312" lon="2.03013">
        <ele>79.2</ele>
        <time>2022-06-28T09:54:57Z</time>
      </trkpt>
      <trkpt lat="49.03121" lon="2.03021">
        <ele>76.4</ele>
        <time>2022-06-28T09:55:08Z</time>
      </trkpt>
      <trkpt lat="49.03121" lon="2.03029">
        <ele>73.2</ele>
        <time>2022-06-28T09:55:18Z</time>
      </trkpt>
      <trkpt lat="49.0312" lon="2.03037">
        <ele>71.9</ele>
        <time>2022-06-28T09:55:25Z</time>
      </trkpt>
      <trkpt lat="49.03119" lon="2.03045">
        <ele>66.6</ele>
        <time>2022-06-28T09:55:30Z</time>
      </trkpt>
      <trkpt lat="49.03119" lon="2.03052">
        <ele>64</ele>
        <time>2022-06-28T09:55:36Z</time>
      </trkpt>
      <trkpt lat="49.03118" lon="2.0306">
        <ele>64.1</ele>
        <time>2022-06-28T09:55:42Z</time>
      </trkpt>
      <trkpt lat="49.03118" lon="2.03068">
        <ele>64.3</ele>
        <time>2022-06-28T09:55:48Z</time>
      </trkpt>
      <trkpt lat="49.03113" lon="2.0307">
        <ele>63.7</ele>
        <time>2022-06-28T09:55:54Z</time>
      </trkpt>
      <trkpt lat="49.03108" lon="2.03067">
        <ele>61</ele>
        <time>2022-06-28T09:55:58Z</time>
      </trkpt>
      <trkpt lat="49.03104" lon="2.03063">
        <ele>59.5</ele>
        <time>2022-06-28T09:56:02Z</time>
      </trkpt>
      <trkpt lat="49.03099" lon="2.03059">
        <ele>59.6</ele>
        <time>2022-06-28T09:56:08Z</time>
      </trkpt>
      <trkpt lat="49.03095" lon="2.03056">
        <ele>61.3</ele>
        <time>2022-06-28T09:56:13Z</time>
      </trkpt>
      <trkpt lat="49.0309" lon="2.03055">
        <ele>57</ele>
        <time>2022-06-28T09:56:18Z</time>
      </trkpt>
      <trkpt lat="49.03084" lon="2.03053">
        <ele>55</ele>
        <time>2022-06-28T09:56:23Z</time>
      </trkpt>
      <trkpt lat="49.03079" lon="2.03052">
        <ele>56.5</ele>
        <time>2022-06-28T09:56:28Z</time>
      </trkpt>
      <trkpt lat="49.03074" lon="2.03051">
        <ele>53.7</ele>
        <time>2022-06-28T09:56:33Z</time>
      </trkpt>
      <trkpt lat="49.03069" lon="2.03051">
        <ele>50.9</ele>
        <time>2022-06-28T09:56:38Z</time>
      </trkpt>
      <trkpt lat="49.03064" lon="2.03052">
        <ele>50.2</ele>
        <time>2022-06-28T09:56:42Z</time>
      </trkpt>
      <trkpt lat="49.03059" lon="2.03053">
        <ele>50.7</ele>
        <time>2022-06-28T09:56:47Z</time>
      </trkpt>
      <trkpt lat="49.03054" lon="2.03054">
        <ele>50.4</ele>
        <time>2022-06-28T09:56:53Z</time>
      </trkpt>
      <trkpt lat="49.0305" lon="2.03051">
        <ele>51.3</ele>
        <time>2022-06-28T09:57:04Z</time>
      </trkpt>
      <trkpt lat="49.03044" lon="2.03053">
        <ele>50.5</ele>
        <time>2022-06-28T09:57:08Z</time>
      </trkpt>
      <trkpt lat="49.03038" lon="2.03056">
        <ele>48.9</ele>
        <time>2022-06-28T09:57:12Z</time>
      </trkpt>
      <trkpt lat="49.03032" lon="2.03059">
        <ele>49.5</ele>
        <time>2022-06-28T09:57:17Z</time>
      </trkpt>
      <trkpt lat="49.03027" lon="2.03062">
        <ele>50.6</ele>
        <time>2022-06-28T09:57:22Z</time>
      </trkpt>
      <trkpt lat="49.03022" lon="2.03065">
        <ele>50</ele>
        <time>2022-06-28T09:57:27Z</time>
      </trkpt>
      <trkpt lat="49.03018" lon="2.03067">
        <ele>49.8</ele>
        <time>2022-06-28T09:57:33Z</time>
      </trkpt>
      <trkpt lat="49.03013" lon="2.03069">
        <ele>51.1</ele>
        <time>2022-06-28T09:57:39Z</time>
      </trkpt>
      <trkpt lat="49.03008" lon="2.03072">
        <ele>53.4</ele>
        <time>2022-06-28T09:57:45Z</time>
      </trkpt>
      <trkpt lat="49.03004" lon="2.03075">
        <ele>54.4</ele>
        <time>2022-06-28T09:57:50Z</time>
      </trkpt>
      <trkpt lat="49.03" lon="2.03078">
        <ele>56.8</ele>
        <time>2022-06-28T09:57:54Z</time>
      </trkpt>
      <trkpt lat="49.02995" lon="2.03079">
        <ele>49.6</ele>
        <time>2022-06-28T09:58:00Z</time>
      </trkpt>
      <trkpt lat="49.02991" lon="2.03079">
        <ele>46.9</ele>
        <time>2022-06-28T09:58:05Z</time>
      </trkpt>
      <trkpt lat="49.02985" lon="2.03079">
        <ele>47.4</ele>
        <time>2022-06-28T09:58:11Z</time>
      </trkpt>
      <trkpt lat="49.02981" lon="2.03081">
        <ele>44.4</ele>
        <time>2022-06-28T09:58:15Z</time>
      </trkpt>
      <trkpt lat="49.02975" lon="2.03084">
        <ele>45.7</ele>
        <time>2022-06-28T09:58:20Z</time>
      </trkpt>
      <trkpt lat="49.02971" lon="2.03086">
        <ele>47.6</ele>
        <time>2022-06-28T09:58:24Z</time>
      </trkpt>
      <trkpt lat="49.02966" lon="2.03089">
        <ele>48.7</ele>
        <time>2022-06-28T09:58:28Z</time>
      </trkpt>
      <trkpt lat="49.0296" lon="2.03089">
        <ele>50.8</ele>
        <time>2022-06-28T09:58:33Z</time>
      </trkpt>
      <trkpt lat="49.02954" lon="2.03089">
        <ele>52</ele>
        <time>2022-06-28T09:58:38Z</time>
      </trkpt>
      <trkpt lat="49.02949" lon="2.03092">
        <ele>51.5</ele>
        <time>2022-06-28T09:58:43Z</time>
      </trkpt>
      <trkpt lat="49.02943" lon="2.03096">
        <ele>51.2</ele>
        <time>2022-06-28T09:58:48Z</time>
      </trkpt>
      <trkpt lat="49.02939" lon="2.03095">
        <ele>50.8</ele>
        <time>2022-06-28T09:58:53Z</time>
      </trkpt>
      <trkpt lat="49.02934" lon="2.03096">
        <ele>51.1</ele>
        <time>2022-06-28T09:58:58Z</time>
      </trkpt>
      <trkpt lat="49.02928" lon="2.03097">
        <ele>51.2</ele>
        <time>2022-06-28T09:59:03Z</time>
      </trkpt>
      <trkpt lat="49.02923" lon="2.03098">
        <ele>51.4</ele>
        <time>2022-06-28T09:59:08Z</time>
      </trkpt>
      <trkpt lat="49.02917" lon="2.031">
        <ele>49.5</ele>
        <time>2022-06-28T09:59:13Z</time>
      </trkpt>
      <trkpt lat="49.02911" lon="2.03103">
        <ele>51.2</ele>
        <time>2022-06-28T09:59:18Z</time>
      </trkpt>
      <trkpt lat="49.02906" lon="2.03105">
        <ele>51.3</ele>
        <time>2022-06-28T09:59:23Z</time>
      </trkpt>
      <trkpt lat="49.02901" lon="2.03106">
        <ele>52.4</ele>
        <time>2022-06-28T09:59:28Z</time>
      </trkpt>
      <trkpt lat="49.02895" lon="2.03108">
        <ele>54.8</ele>
        <time>2022-06-28T09:59:33Z</time>
      </trkpt>
      <trkpt lat="49.0289" lon="2.0311">
        <ele>57</ele>
        <time>2022-06-28T09:59:38Z</time>
      </trkpt>
      <trkpt lat="49.02885" lon="2.03114">
        <ele>54.3</ele>
        <time>2022-06-28T09:59:42Z</time>
      </trkpt>
      <trkpt lat="49.0288" lon="2.03117">
        <ele>54.1</ele>
        <time>2022-06-28T09:59:46Z</time>
      </trkpt>
      <trkpt lat="49.02875" lon="2.03121">
        <ele>58</ele>
        <time>2022-06-28T09:59:50Z</time>
      </trkpt>
      <trkpt lat="49.0287" lon="2.03124">
        <ele>59.3</ele>
        <time>2022-06-28T09:59:55Z</time>
      </trkpt>
      <trkpt lat="49.02865" lon="2.03128">
        <ele>59.9</ele>
        <time>2022-06-28T09:59:59Z</time>
      </trkpt>
      <trkpt lat="49.02861" lon="2.03131">
        <ele>56.4</ele>
        <time>2022-06-28T10:00:03Z</time>
      </trkpt>
      <trkpt lat="49.02855" lon="2.03134">
        <ele>57.6</ele>
        <time>2022-06-28T10:00:07Z</time>
      </trkpt>
      <trkpt lat="49.0285" lon="2.03138">
        <ele>56.4</ele>
        <time>2022-06-28T10:00:12Z</time>
      </trkpt>
      <trkpt lat="49.02845" lon="2.0314">
        <ele>55.4</ele>
        <time>2022-06-28T10:00:16Z</time>
      </trkpt>
      <trkpt lat="49.0284" lon="2.03143">
        <ele>53.5</ele>
        <time>2022-06-28T10:00:20Z</time>
      </trkpt>
      <trkpt lat="49.02834" lon="2.03145">
        <ele>51.4</ele>
        <time>2022-06-28T10:00:24Z</time>
      </trkpt>
      <trkpt lat="49.0283" lon="2.03148">
        <ele>50.2</ele>
        <time>2022-06-28T10:00:28Z</time>
      </trkpt>
      <trkpt lat="49.02825" lon="2.03152">
        <ele>50.2</ele>
        <time>2022-06-28T10:00:32Z</time>
      </trkpt>
      <trkpt lat="49.0282" lon="2.03154">
        <ele>52.8</ele>
        <time>2022-06-28T10:00:36Z</time>
      </trkpt>
      <trkpt lat="49.02815" lon="2.03157">
        <ele>54.9</ele>
        <time>2022-06-28T10:00:41Z</time>
      </trkpt>
      <trkpt lat="49.0281" lon="2.03161">
        <ele>54.6</ele>
        <time>2022-06-28T10:00:45Z</time>
      </trkpt>
      <trkpt lat="49.02805" lon="2.03163">
        <ele>55.1</ele>
        <time>2022-06-28T10:00:49Z</time>
      </trkpt>
      <trkpt lat="49.02801" lon="2.03166">
        <ele>56.5</ele>
        <time>2022-06-28T10:00:53Z</time>
      </trkpt>
      <trkpt lat="49.02796" lon="2.03169">
        <ele>59.2</ele>
        <time>2022-06-28T10:00:58Z</time>
      </trkpt>
      <trkpt lat="49.02792" lon="2.03172">
        <ele>57.7</ele>
        <time>2022-06-28T10:01:02Z</time>
      </trkpt>
      <trkpt lat="49.02787" lon="2.03176">
        <ele>58.5</ele>
        <time>2022-06-28T10:01:07Z</time>
      </trkpt>
      <trkpt lat="49.02783" lon="2.0318">
        <ele>58.8</ele>
        <time>2022-06-28T10:01:10Z</time>
      </trkpt>
      <trkpt lat="49.02779" lon="2.03185">
        <ele>58.7</ele>
        <time>2022-06-28T10:01:15Z</time>
      </trkpt>
      <trkpt lat="49.02776" lon="2.03192">
        <ele>59.1</ele>
        <time>2022-06-28T10:01:19Z</time>
      </trkpt>
      <trkpt lat="49.02775" lon="2.03199">
        <ele>59.2</ele>
        <time>2022-06-28T10:01:24Z</time>
      </trkpt>
      <trkpt lat="49.02775" lon="2.03207">
        <ele>58.8</ele>
        <time>2022-06-28T10:01:29Z</time>
      </trkpt>
      <trkpt lat="49.02777" lon="2.03213">
        <ele>58.1</ele>
        <time>2022-06-28T10:01:33Z</time>
      </trkpt>
      <trkpt lat="49.0278" lon="2.03221">
        <ele>56.1</ele>
        <time>2022-06-28T10:01:52Z</time>
      </trkpt>
      <trkpt lat="49.02782" lon="2.03228">
        <ele>53.1</ele>
        <time>2022-06-28T10:01:56Z</time>
      </trkpt>
      <trkpt lat="49.02782" lon="2.03236">
        <ele>52</ele>
        <time>2022-06-28T10:01:59Z</time>
      </trkpt>
      <trkpt lat="49.02784" lon="2.03243">
        <ele>52.7</ele>
        <time>2022-06-28T10:02:03Z</time>
      </trkpt>
      <trkpt lat="49.02787" lon="2.03238">
        <ele>49.2</ele>
        <time>2022-06-28T10:02:17Z</time>
      </trkpt>
      <trkpt lat="49.02789" lon="2.03245">
        <ele>49.4</ele>
        <time>2022-06-28T10:02:32Z</time>
      </trkpt>
      <trkpt lat="49.0279" lon="2.03252">
        <ele>49.4</ele>
        <time>2022-06-28T10:02:36Z</time>
      </trkpt>
      <trkpt lat="49.02792" lon="2.03259">
        <ele>49.4</ele>
        <time>2022-06-28T10:02:41Z</time>
      </trkpt>
      <trkpt lat="49.02795" lon="2.03266">
        <ele>48.2</ele>
        <time>2022-06-28T10:02:47Z</time>
      </trkpt>
      <trkpt lat="49.02797" lon="2.03272">
        <ele>46</ele>
        <time>2022-06-28T10:02:52Z</time>
      </trkpt>
      <trkpt lat="49.02799" lon="2.03279">
        <ele>44.8</ele>
        <time>2022-06-28T10:02:57Z</time>
      </trkpt>
      <trkpt lat="49.02801" lon="2.03286">
        <ele>46.5</ele>
        <time>2022-06-28T10:03:01Z</time>
      </trkpt>
      <trkpt lat="49.028" lon="2.03293">
        <ele>49.6</ele>
        <time>2022-06-28T10:03:06Z</time>
      </trkpt>
      <trkpt lat="49.02797" lon="2.03283">
        <ele>47.6</ele>
        <time>2022-06-28T10:03:14Z</time>
      </trkpt>
      <trkpt lat="49.02786" lon="2.03291">
        <ele>46.5</ele>
        <time>2022-06-28T10:03:45Z</time>
      </trkpt>
      <trkpt lat="49.02784" lon="2.03298">
        <ele>45.7</ele>
        <time>2022-06-28T10:03:49Z</time>
      </trkpt>
      <trkpt lat="49.02783" lon="2.03305">
        <ele>51.2</ele>
        <time>2022-06-28T10:03:58Z</time>
      </trkpt>
      <trkpt lat="49.02779" lon="2.03309">
        <ele>49.3</ele>
        <time>2022-06-28T10:04:02Z</time>
      </trkpt>
      <trkpt lat="49.02777" lon="2.03316">
        <ele>49.2</ele>
        <time>2022-06-28T10:04:09Z</time>
      </trkpt>
      <trkpt lat="49.02773" lon="2.0332">
        <ele>49.5</ele>
        <time>2022-06-28T10:04:13Z</time>
      </trkpt>
      <trkpt lat="49.02769" lon="2.03325">
        <ele>45.7</ele>
        <time>2022-06-28T10:04:17Z</time>
      </trkpt>
      <trkpt lat="49.02765" lon="2.0333">
        <ele>44.5</ele>
        <time>2022-06-28T10:04:21Z</time>
      </trkpt>
      <trkpt lat="49.02761" lon="2.03334">
        <ele>44.9</ele>
        <time>2022-06-28T10:04:25Z</time>
      </trkpt>
      <trkpt lat="49.02757" lon="2.03338">
        <ele>44.8</ele>
        <time>2022-06-28T10:04:43Z</time>
      </trkpt>
      <trkpt lat="49.02752" lon="2.03337">
        <ele>43.5</ele>
        <time>2022-06-28T10:05:01Z</time>
      </trkpt>
      <trkpt lat="49.02749" lon="2.03343">
        <ele>45.6</ele>
        <time>2022-06-28T10:05:15Z</time>
      </trkpt>
      <trkpt lat="49.02744" lon="2.03348">
        <ele>45.1</ele>
        <time>2022-06-28T10:05:20Z</time>
      </trkpt>
      <trkpt lat="49.02739" lon="2.0335">
        <ele>45.1</ele>
        <time>2022-06-28T10:05:23Z</time>
      </trkpt>
      <trkpt lat="49.02734" lon="2.03352">
        <ele>44.9</ele>
        <time>2022-06-28T10:05:26Z</time>
      </trkpt>
      <trkpt lat="49.02729" lon="2.03355">
        <ele>44.1</ele>
        <time>2022-06-28T10:05:30Z</time>
      </trkpt>
      <trkpt lat="49.02724" lon="2.03358">
        <ele>45.8</ele>
        <time>2022-06-28T10:05:34Z</time>
      </trkpt>
      <trkpt lat="49.0272" lon="2.03363">
        <ele>44.3</ele>
        <time>2022-06-28T10:05:38Z</time>
      </trkpt>
      <trkpt lat="49.02716" lon="2.03368">
        <ele>44.5</ele>
        <time>2022-06-28T10:05:42Z</time>
      </trkpt>
      <trkpt lat="49.02712" lon="2.03372">
        <ele>43.3</ele>
        <time>2022-06-28T10:05:46Z</time>
      </trkpt>
      <trkpt lat="49.02709" lon="2.03377">
        <ele>43.5</ele>
        <time>2022-06-28T10:05:50Z</time>
      </trkpt>
      <trkpt lat="49.02704" lon="2.03382">
        <ele>42.7</ele>
        <time>2022-06-28T10:05:55Z</time>
      </trkpt>
      <trkpt lat="49.027" lon="2.03387">
        <ele>43.6</ele>
        <time>2022-06-28T10:05:59Z</time>
      </trkpt>
      <trkpt lat="49.02696" lon="2.03391">
        <ele>42.6</ele>
        <time>2022-06-28T10:06:03Z</time>
      </trkpt>
      <trkpt lat="49.02691" lon="2.03395">
        <ele>41.7</ele>
        <time>2022-06-28T10:06:07Z</time>
      </trkpt>
      <trkpt lat="49.02686" lon="2.034">
        <ele>40.1</ele>
        <time>2022-06-28T10:06:12Z</time>
      </trkpt>
      <trkpt lat="49.02682" lon="2.03403">
        <ele>39.7</ele>
        <time>2022-06-28T10:06:15Z</time>
      </trkpt>
      <trkpt lat="49.02677" lon="2.03408">
        <ele>39.6</ele>
        <time>2022-06-28T10:06:19Z</time>
      </trkpt>
      <trkpt lat="49.02672" lon="2.03413">
        <ele>41.1</ele>
        <time>2022-06-28T10:06:23Z</time>
      </trkpt>
      <trkpt lat="49.02667" lon="2.03418">
        <ele>40.7</ele>
        <time>2022-06-28T10:06:27Z</time>
      </trkpt>
      <trkpt lat="49.02663" lon="2.03423">
        <ele>38.9</ele>
        <time>2022-06-28T10:06:30Z</time>
      </trkpt>
      <trkpt lat="49.02659" lon="2.03427">
        <ele>40.8</ele>
        <time>2022-06-28T10:06:34Z</time>
      </trkpt>
      <trkpt lat="49.02654" lon="2.03432">
        <ele>42.1</ele>
        <time>2022-06-28T10:06:38Z</time>
      </trkpt>
      <trkpt lat="49.0265" lon="2.03437">
        <ele>40.8</ele>
        <time>2022-06-28T10:06:42Z</time>
      </trkpt>
      <trkpt lat="49.02645" lon="2.03442">
        <ele>42.5</ele>
        <time>2022-06-28T10:06:46Z</time>
      </trkpt>
      <trkpt lat="49.0264" lon="2.03447">
        <ele>43.6</ele>
        <time>2022-06-28T10:06:50Z</time>
      </trkpt>
      <trkpt lat="49.02635" lon="2.03451">
        <ele>42.7</ele>
        <time>2022-06-28T10:06:54Z</time>
      </trkpt>
      <trkpt lat="49.0263" lon="2.03456">
        <ele>39.9</ele>
        <time>2022-06-28T10:06:58Z</time>
      </trkpt>
      <trkpt lat="49.02626" lon="2.0346">
        <ele>41.1</ele>
        <time>2022-06-28T10:07:01Z</time>
      </trkpt>
      <trkpt lat="49.02621" lon="2.03466">
        <ele>41.2</ele>
        <time>2022-06-28T10:07:06Z</time>
      </trkpt>
      <trkpt lat="49.02616" lon="2.03472">
        <ele>40.7</ele>
        <time>2022-06-28T10:07:11Z</time>
      </trkpt>
      <trkpt lat="49.02611" lon="2.03478">
        <ele>41</ele>
        <time>2022-06-28T10:07:15Z</time>
      </trkpt>
      <trkpt lat="49.02607" lon="2.03482">
        <ele>42.2</ele>
        <time>2022-06-28T10:07:18Z</time>
      </trkpt>
      <trkpt lat="49.02603" lon="2.03485">
        <ele>44.3</ele>
        <time>2022-06-28T10:07:22Z</time>
      </trkpt>
      <trkpt lat="49.02598" lon="2.03489">
        <ele>41.9</ele>
        <time>2022-06-28T10:07:26Z</time>
      </trkpt>
      <trkpt lat="49.02594" lon="2.03493">
        <ele>40.8</ele>
        <time>2022-06-28T10:07:30Z</time>
      </trkpt>
      <trkpt lat="49.0259" lon="2.03498">
        <ele>38.6</ele>
        <time>2022-06-28T10:07:34Z</time>
      </trkpt>
      <trkpt lat="49.02586" lon="2.03502">
        <ele>39.8</ele>
        <time>2022-06-28T10:07:38Z</time>
      </trkpt>
      <trkpt lat="49.02582" lon="2.03506">
        <ele>42.7</ele>
        <time>2022-06-28T10:07:42Z</time>
      </trkpt>
      <trkpt lat="49.02577" lon="2.03509">
        <ele>43.2</ele>
        <time>2022-06-28T10:07:46Z</time>
      </trkpt>
      <trkpt lat="49.02573" lon="2.03513">
        <ele>43.7</ele>
        <time>2022-06-28T10:07:50Z</time>
      </trkpt>
      <trkpt lat="49.02568" lon="2.03516">
        <ele>41.9</ele>
        <time>2022-06-28T10:07:54Z</time>
      </trkpt>
      <trkpt lat="49.02564" lon="2.03521">
        <ele>42.1</ele>
        <time>2022-06-28T10:07:58Z</time>
      </trkpt>
      <trkpt lat="49.0256" lon="2.03525">
        <ele>42</ele>
        <time>2022-06-28T10:08:02Z</time>
      </trkpt>
      <trkpt lat="49.02556" lon="2.0353">
        <ele>43.4</ele>
        <time>2022-06-28T10:08:06Z</time>
      </trkpt>
      <trkpt lat="49.02552" lon="2.03535">
        <ele>45.5</ele>
        <time>2022-06-28T10:08:11Z</time>
      </trkpt>
      <trkpt lat="49.02547" lon="2.03541">
        <ele>46.4</ele>
        <time>2022-06-28T10:08:16Z</time>
      </trkpt>
      <trkpt lat="49.02543" lon="2.03545">
        <ele>44.7</ele>
        <time>2022-06-28T10:08:20Z</time>
      </trkpt>
      <trkpt lat="49.02539" lon="2.0354">
        <ele>45.4</ele>
        <time>2022-06-28T10:08:32Z</time>
      </trkpt>
      <trkpt lat="49.02534" lon="2.03542">
        <ele>46.4</ele>
        <time>2022-06-28T10:08:36Z</time>
      </trkpt>
      <trkpt lat="49.0253" lon="2.03545">
        <ele>43.1</ele>
        <time>2022-06-28T10:08:40Z</time>
      </trkpt>
      <trkpt lat="49.02525" lon="2.03551">
        <ele>41.6</ele>
        <time>2022-06-28T10:08:45Z</time>
      </trkpt>
      <trkpt lat="49.02521" lon="2.03556">
        <ele>44.7</ele>
        <time>2022-06-28T10:08:49Z</time>
      </trkpt>
      <trkpt lat="49.02517" lon="2.03561">
        <ele>44.9</ele>
        <time>2022-06-28T10:08:53Z</time>
      </trkpt>
      <trkpt lat="49.02511" lon="2.03564">
        <ele>45.9</ele>
        <time>2022-06-28T10:08:57Z</time>
      </trkpt>
      <trkpt lat="49.02507" lon="2.03567">
        <ele>47</ele>
        <time>2022-06-28T10:09:01Z</time>
      </trkpt>
      <trkpt lat="49.02503" lon="2.03571">
        <ele>48.6</ele>
        <time>2022-06-28T10:09:05Z</time>
      </trkpt>
      <trkpt lat="49.02499" lon="2.03575">
        <ele>50.1</ele>
        <time>2022-06-28T10:09:09Z</time>
      </trkpt>
      <trkpt lat="49.02494" lon="2.0358">
        <ele>49.1</ele>
        <time>2022-06-28T10:09:13Z</time>
      </trkpt>
      <trkpt lat="49.0249" lon="2.03585">
        <ele>44.8</ele>
        <time>2022-06-28T10:09:18Z</time>
      </trkpt>
      <trkpt lat="49.02486" lon="2.03591">
        <ele>42.4</ele>
        <time>2022-06-28T10:09:22Z</time>
      </trkpt>
      <trkpt lat="49.02481" lon="2.03596">
        <ele>43.2</ele>
        <time>2022-06-28T10:09:26Z</time>
      </trkpt>
      <trkpt lat="49.02477" lon="2.036">
        <ele>44.5</ele>
        <time>2022-06-28T10:09:30Z</time>
      </trkpt>
      <trkpt lat="49.02472" lon="2.03604">
        <ele>44</ele>
        <time>2022-06-28T10:09:34Z</time>
      </trkpt>
      <trkpt lat="49.02468" lon="2.03609">
        <ele>40.5</ele>
        <time>2022-06-28T10:09:39Z</time>
      </trkpt>
      <trkpt lat="49.02464" lon="2.03614">
        <ele>38.8</ele>
        <time>2022-06-28T10:09:43Z</time>
      </trkpt>
      <trkpt lat="49.0246" lon="2.03618">
        <ele>40.4</ele>
        <time>2022-06-28T10:09:47Z</time>
      </trkpt>
      <trkpt lat="49.02455" lon="2.03623">
        <ele>40.8</ele>
        <time>2022-06-28T10:09:52Z</time>
      </trkpt>
      <trkpt lat="49.02451" lon="2.03627">
        <ele>39.8</ele>
        <time>2022-06-28T10:09:56Z</time>
      </trkpt>
      <trkpt lat="49.02447" lon="2.03631">
        <ele>41.7</ele>
        <time>2022-06-28T10:10:00Z</time>
      </trkpt>
      <trkpt lat="49.02443" lon="2.03635">
        <ele>45.4</ele>
        <time>2022-06-28T10:10:05Z</time>
      </trkpt>
      <trkpt lat="49.0244" lon="2.0364">
        <ele>45.1</ele>
        <time>2022-06-28T10:10:10Z</time>
      </trkpt>
      <trkpt lat="49.02436" lon="2.03644">
        <ele>45.3</ele>
        <time>2022-06-28T10:10:15Z</time>
      </trkpt>
      <trkpt lat="49.02432" lon="2.0365">
        <ele>45.7</ele>
        <time>2022-06-28T10:10:19Z</time>
      </trkpt>
      <trkpt lat="49.02428" lon="2.03655">
        <ele>43.8</ele>
        <time>2022-06-28T10:10:23Z</time>
      </trkpt>
      <trkpt lat="49.02424" lon="2.03659">
        <ele>44.6</ele>
        <time>2022-06-28T10:10:27Z</time>
      </trkpt>
      <trkpt lat="49.0242" lon="2.03664">
        <ele>43.6</ele>
        <time>2022-06-28T10:10:32Z</time>
      </trkpt>
      <trkpt lat="49.02415" lon="2.03668">
        <ele>42.8</ele>
        <time>2022-06-28T10:10:36Z</time>
      </trkpt>
      <trkpt lat="49.0241" lon="2.03672">
        <ele>42.5</ele>
        <time>2022-06-28T10:10:41Z</time>
      </trkpt>
      <trkpt lat="49.02407" lon="2.03676">
        <ele>42.2</ele>
        <time>2022-06-28T10:10:45Z</time>
      </trkpt>
      <trkpt lat="49.02403" lon="2.03681">
        <ele>43.3</ele>
        <time>2022-06-28T10:10:49Z</time>
      </trkpt>
      <trkpt lat="49.02399" lon="2.03686">
        <ele>41.8</ele>
        <time>2022-06-28T10:10:53Z</time>
      </trkpt>
      <trkpt lat="49.02395" lon="2.03691">
        <ele>39.7</ele>
        <time>2022-06-28T10:10:58Z</time>
      </trkpt>
      <trkpt lat="49.02391" lon="2.03694">
        <ele>38.1</ele>
        <time>2022-06-28T10:11:03Z</time>
      </trkpt>
      <trkpt lat="49.02385" lon="2.03696">
        <ele>38.5</ele>
        <time>2022-06-28T10:11:08Z</time>
      </trkpt>
      <trkpt lat="49.02381" lon="2.037">
        <ele>38.2</ele>
        <time>2022-06-28T10:11:14Z</time>
      </trkpt>
      <trkpt lat="49.02377" lon="2.03705">
        <ele>38.1</ele>
        <time>2022-06-28T10:11:18Z</time>
      </trkpt>
      <trkpt lat="49.02372" lon="2.03707">
        <ele>38.1</ele>
        <time>2022-06-28T10:11:22Z</time>
      </trkpt>
      <trkpt lat="49.0237" lon="2.03714">
        <ele>40.4</ele>
        <time>2022-06-28T10:11:28Z</time>
      </trkpt>
      <trkpt lat="49.02367" lon="2.03721">
        <ele>42.5</ele>
        <time>2022-06-28T10:11:34Z</time>
      </trkpt>
      <trkpt lat="49.02363" lon="2.03716">
        <ele>41.7</ele>
        <time>2022-06-28T10:11:44Z</time>
      </trkpt>
      <trkpt lat="49.02358" lon="2.03718">
        <ele>40.4</ele>
        <time>2022-06-28T10:11:48Z</time>
      </trkpt>
      <trkpt lat="49.02353" lon="2.03721">
        <ele>40.7</ele>
        <time>2022-06-28T10:11:51Z</time>
      </trkpt>
      <trkpt lat="49.0235" lon="2.03725">
        <ele>38.6</ele>
        <time>2022-06-28T10:11:55Z</time>
      </trkpt>
      <trkpt lat="49.02345" lon="2.0373">
        <ele>39.8</ele>
        <time>2022-06-28T10:11:59Z</time>
      </trkpt>
      <trkpt lat="49.02341" lon="2.03734">
        <ele>42.8</ele>
        <time>2022-06-28T10:12:03Z</time>
      </trkpt>
      <trkpt lat="49.02337" lon="2.03737">
        <ele>43</ele>
        <time>2022-06-28T10:12:07Z</time>
      </trkpt>
      <trkpt lat="49.02332" lon="2.03741">
        <ele>42.5</ele>
        <time>2022-06-28T10:12:11Z</time>
      </trkpt>
      <trkpt lat="49.02328" lon="2.03745">
        <ele>44.5</ele>
        <time>2022-06-28T10:12:15Z</time>
      </trkpt>
      <trkpt lat="49.02325" lon="2.0375">
        <ele>44.7</ele>
        <time>2022-06-28T10:12:19Z</time>
      </trkpt>
      <trkpt lat="49.02321" lon="2.03755">
        <ele>46.9</ele>
        <time>2022-06-28T10:12:23Z</time>
      </trkpt>
      <trkpt lat="49.02316" lon="2.0376">
        <ele>44.4</ele>
        <time>2022-06-28T10:12:28Z</time>
      </trkpt>
      <trkpt lat="49.02311" lon="2.03765">
        <ele>45.1</ele>
        <time>2022-06-28T10:12:33Z</time>
      </trkpt>
      <trkpt lat="49.02306" lon="2.0377">
        <ele>42.7</ele>
        <time>2022-06-28T10:12:38Z</time>
      </trkpt>
      <trkpt lat="49.02302" lon="2.03774">
        <ele>43</ele>
        <time>2022-06-28T10:12:42Z</time>
      </trkpt>
      <trkpt lat="49.02297" lon="2.03779">
        <ele>43.8</ele>
        <time>2022-06-28T10:12:46Z</time>
      </trkpt>
      <trkpt lat="49.02293" lon="2.03782">
        <ele>43</ele>
        <time>2022-06-28T10:12:50Z</time>
      </trkpt>
      <trkpt lat="49.02288" lon="2.03786">
        <ele>43.4</ele>
        <time>2022-06-28T10:12:54Z</time>
      </trkpt>
      <trkpt lat="49.02283" lon="2.03791">
        <ele>45</ele>
        <time>2022-06-28T10:12:58Z</time>
      </trkpt>
      <trkpt lat="49.02279" lon="2.03795">
        <ele>42.5</ele>
        <time>2022-06-28T10:13:02Z</time>
      </trkpt>
      <trkpt lat="49.02274" lon="2.03801">
        <ele>43.5</ele>
        <time>2022-06-28T10:13:06Z</time>
      </trkpt>
      <trkpt lat="49.0227" lon="2.03806">
        <ele>42.9</ele>
        <time>2022-06-28T10:13:10Z</time>
      </trkpt>
      <trkpt lat="49.02266" lon="2.0381">
        <ele>43.1</ele>
        <time>2022-06-28T10:13:14Z</time>
      </trkpt>
      <trkpt lat="49.02262" lon="2.03815">
        <ele>46</ele>
        <time>2022-06-28T10:13:18Z</time>
      </trkpt>
      <trkpt lat="49.02257" lon="2.0382">
        <ele>46.2</ele>
        <time>2022-06-28T10:13:22Z</time>
      </trkpt>
      <trkpt lat="49.02253" lon="2.03824">
        <ele>45.9</ele>
        <time>2022-06-28T10:13:26Z</time>
      </trkpt>
      <trkpt lat="49.02248" lon="2.03829">
        <ele>43.6</ele>
        <time>2022-06-28T10:13:30Z</time>
      </trkpt>
      <trkpt lat="49.02243" lon="2.03833">
        <ele>47</ele>
        <time>2022-06-28T10:13:35Z</time>
      </trkpt>
      <trkpt lat="49.02239" lon="2.03837">
        <ele>46.9</ele>
        <time>2022-06-28T10:13:39Z</time>
      </trkpt>
      <trkpt lat="49.02237" lon="2.03844">
        <ele>46.3</ele>
        <time>2022-06-28T10:13:43Z</time>
      </trkpt>
      <trkpt lat="49.02236" lon="2.03852">
        <ele>47.9</ele>
        <time>2022-06-28T10:13:47Z</time>
      </trkpt>
      <trkpt lat="49.02235" lon="2.03859">
        <ele>48.7</ele>
        <time>2022-06-28T10:13:50Z</time>
      </trkpt>
      <trkpt lat="49.02233" lon="2.03865">
        <ele>47.2</ele>
        <time>2022-06-28T10:13:54Z</time>
      </trkpt>
      <trkpt lat="49.02232" lon="2.03872">
        <ele>47.9</ele>
        <time>2022-06-28T10:13:57Z</time>
      </trkpt>
      <trkpt lat="49.02229" lon="2.03877">
        <ele>48.3</ele>
        <time>2022-06-28T10:14:01Z</time>
      </trkpt>
      <trkpt lat="49.02224" lon="2.0388">
        <ele>43.7</ele>
        <time>2022-06-28T10:14:06Z</time>
      </trkpt>
      <trkpt lat="49.0222" lon="2.0388">
        <ele>38</ele>
        <time>2022-06-28T10:14:20Z</time>
      </trkpt>
      <trkpt lat="49.02218" lon="2.03888">
        <ele>40.2</ele>
        <time>2022-06-28T10:14:41Z</time>
      </trkpt>
      <trkpt lat="49.02217" lon="2.03895">
        <ele>42.5</ele>
        <time>2022-06-28T10:14:44Z</time>
      </trkpt>
      <trkpt lat="49.02217" lon="2.03903">
        <ele>41.2</ele>
        <time>2022-06-28T10:14:48Z</time>
      </trkpt>
      <trkpt lat="49.02216" lon="2.03912">
        <ele>38.5</ele>
        <time>2022-06-28T10:14:52Z</time>
      </trkpt>
      <trkpt lat="49.02213" lon="2.03919">
        <ele>36.4</ele>
        <time>2022-06-28T10:14:56Z</time>
      </trkpt>
      <trkpt lat="49.02209" lon="2.03924">
        <ele>35.9</ele>
        <time>2022-06-28T10:15:01Z</time>
      </trkpt>
      <trkpt lat="49.02205" lon="2.03928">
        <ele>35.8</ele>
        <time>2022-06-28T10:15:05Z</time>
      </trkpt>
      <trkpt lat="49.022" lon="2.03932">
        <ele>36.6</ele>
        <time>2022-06-28T10:15:10Z</time>
      </trkpt>
      <trkpt lat="49.02195" lon="2.03929">
        <ele>37.6</ele>
        <time>2022-06-28T10:15:14Z</time>
      </trkpt>
      <trkpt lat="49.0219" lon="2.03926">
        <ele>35.3</ele>
        <time>2022-06-28T10:15:18Z</time>
      </trkpt>
      <trkpt lat="49.02186" lon="2.03925">
        <ele>33.7</ele>
        <time>2022-06-28T10:15:22Z</time>
      </trkpt>
      <trkpt lat="49.0218" lon="2.03926">
        <ele>32.3</ele>
        <time>2022-06-28T10:15:26Z</time>
      </trkpt>
      <trkpt lat="49.02175" lon="2.03928">
        <ele>32.2</ele>
        <time>2022-06-28T10:15:31Z</time>
      </trkpt>
      <trkpt lat="49.02171" lon="2.03933">
        <ele>32.4</ele>
        <time>2022-06-28T10:15:36Z</time>
      </trkpt>
      <trkpt lat="49.02167" lon="2.03936">
        <ele>32.3</ele>
        <time>2022-06-28T10:15:40Z</time>
      </trkpt>
      <trkpt lat="49.02162" lon="2.0394">
        <ele>31.6</ele>
        <time>2022-06-28T10:15:45Z</time>
      </trkpt>
      <trkpt lat="49.02157" lon="2.03942">
        <ele>31.1</ele>
        <time>2022-06-28T10:15:50Z</time>
      </trkpt>
      <trkpt lat="49.02153" lon="2.03946">
        <ele>30.7</ele>
        <time>2022-06-28T10:15:54Z</time>
      </trkpt>
      <trkpt lat="49.02149" lon="2.03949">
        <ele>30.8</ele>
        <time>2022-06-28T10:15:59Z</time>
      </trkpt>
      <trkpt lat="49.02144" lon="2.03952">
        <ele>29.5</ele>
        <time>2022-06-28T10:16:03Z</time>
      </trkpt>
      <trkpt lat="49.0214" lon="2.03956">
        <ele>27.5</ele>
        <time>2022-06-28T10:16:08Z</time>
      </trkpt>
      <trkpt lat="49.02136" lon="2.0396">
        <ele>28.6</ele>
        <time>2022-06-28T10:16:14Z</time>
      </trkpt>
      <trkpt lat="49.02132" lon="2.03965">
        <ele>28.9</ele>
        <time>2022-06-28T10:16:18Z</time>
      </trkpt>
      <trkpt lat="49.02128" lon="2.03968">
        <ele>29.4</ele>
        <time>2022-06-28T10:16:23Z</time>
      </trkpt>
      <trkpt lat="49.02123" lon="2.03972">
        <ele>30.9</ele>
        <time>2022-06-28T10:16:27Z</time>
      </trkpt>
      <trkpt lat="49.02118" lon="2.03975">
        <ele>32.2</ele>
        <time>2022-06-28T10:16:32Z</time>
      </trkpt>
      <trkpt lat="49.02112" lon="2.0398">
        <ele>32.4</ele>
        <time>2022-06-28T10:16:37Z</time>
      </trkpt>
      <trkpt lat="49.02107" lon="2.03984">
        <ele>33.6</ele>
        <time>2022-06-28T10:16:41Z</time>
      </trkpt>
      <trkpt lat="49.02102" lon="2.03989">
        <ele>35.1</ele>
        <time>2022-06-28T10:16:46Z</time>
      </trkpt>
      <trkpt lat="49.02097" lon="2.03992">
        <ele>33.6</ele>
        <time>2022-06-28T10:16:51Z</time>
      </trkpt>
      <trkpt lat="49.02093" lon="2.03995">
        <ele>32.1</ele>
        <time>2022-06-28T10:16:55Z</time>
      </trkpt>
      <trkpt lat="49.02088" lon="2.04">
        <ele>31.9</ele>
        <time>2022-06-28T10:17:00Z</time>
      </trkpt>
      <trkpt lat="49.02084" lon="2.04003">
        <ele>32</ele>
        <time>2022-06-28T10:17:04Z</time>
      </trkpt>
      <trkpt lat="49.0208" lon="2.04007">
        <ele>32</ele>
        <time>2022-06-28T10:17:09Z</time>
      </trkpt>
      <trkpt lat="49.02075" lon="2.04013">
        <ele>33.8</ele>
        <time>2022-06-28T10:17:14Z</time>
      </trkpt>
      <trkpt lat="49.0207" lon="2.04011">
        <ele>34.7</ele>
        <time>2022-06-28T10:17:19Z</time>
      </trkpt>
      <trkpt lat="49.02066" lon="2.04008">
        <ele>36</ele>
        <time>2022-06-28T10:17:23Z</time>
      </trkpt>
      <trkpt lat="49.02061" lon="2.0401">
        <ele>36.5</ele>
        <time>2022-06-28T10:17:26Z</time>
      </trkpt>
      <trkpt lat="49.02056" lon="2.04012">
        <ele>35.9</ele>
        <time>2022-06-28T10:17:31Z</time>
      </trkpt>
      <trkpt lat="49.02051" lon="2.04016">
        <ele>36.5</ele>
        <time>2022-06-28T10:17:35Z</time>
      </trkpt>
      <trkpt lat="49.02048" lon="2.04022">
        <ele>34.2</ele>
        <time>2022-06-28T10:17:39Z</time>
      </trkpt>
      <trkpt lat="49.02044" lon="2.04027">
        <ele>33.1</ele>
        <time>2022-06-28T10:17:44Z</time>
      </trkpt>
      <trkpt lat="49.02039" lon="2.04032">
        <ele>33.3</ele>
        <time>2022-06-28T10:17:49Z</time>
      </trkpt>
      <trkpt lat="49.02035" lon="2.04036">
        <ele>33.3</ele>
        <time>2022-06-28T10:17:53Z</time>
      </trkpt>
      <trkpt lat="49.02031" lon="2.0404">
        <ele>34</ele>
        <time>2022-06-28T10:17:57Z</time>
      </trkpt>
      <trkpt lat="49.02025" lon="2.04044">
        <ele>34.6</ele>
        <time>2022-06-28T10:18:03Z</time>
      </trkpt>
      <trkpt lat="49.02021" lon="2.04049">
        <ele>35.3</ele>
        <time>2022-06-28T10:18:07Z</time>
      </trkpt>
      <trkpt lat="49.02018" lon="2.04053">
        <ele>34.2</ele>
        <time>2022-06-28T10:18:11Z</time>
      </trkpt>
      <trkpt lat="49.02013" lon="2.04057">
        <ele>33.4</ele>
        <time>2022-06-28T10:18:16Z</time>
      </trkpt>
      <trkpt lat="49.02008" lon="2.04062">
        <ele>31.7</ele>
        <time>2022-06-28T10:18:21Z</time>
      </trkpt>
      <trkpt lat="49.02005" lon="2.04066">
        <ele>31.2</ele>
        <time>2022-06-28T10:18:25Z</time>
      </trkpt>
      <trkpt lat="49.02" lon="2.0407">
        <ele>31.4</ele>
        <time>2022-06-28T10:18:31Z</time>
      </trkpt>
      <trkpt lat="49.01995" lon="2.04075">
        <ele>31.7</ele>
        <time>2022-06-28T10:18:36Z</time>
      </trkpt>
      <trkpt lat="49.01991" lon="2.04079">
        <ele>30.7</ele>
        <time>2022-06-28T10:18:40Z</time>
      </trkpt>
      <trkpt lat="49.01987" lon="2.04084">
        <ele>30.4</ele>
        <time>2022-06-28T10:18:44Z</time>
      </trkpt>
      <trkpt lat="49.01983" lon="2.04088">
        <ele>29.8</ele>
        <time>2022-06-28T10:18:48Z</time>
      </trkpt>
      <trkpt lat="49.01978" lon="2.04092">
        <ele>29.8</ele>
        <time>2022-06-28T10:18:53Z</time>
      </trkpt>
      <trkpt lat="49.01974" lon="2.04097">
        <ele>28.7</ele>
        <time>2022-06-28T10:18:57Z</time>
      </trkpt>
      <trkpt lat="49.01969" lon="2.04102">
        <ele>28.5</ele>
        <time>2022-06-28T10:19:01Z</time>
      </trkpt>
      <trkpt lat="49.01964" lon="2.04106">
        <ele>29.5</ele>
        <time>2022-06-28T10:19:05Z</time>
      </trkpt>
      <trkpt lat="49.01961" lon="2.04111">
        <ele>29.5</ele>
        <time>2022-06-28T10:19:10Z</time>
      </trkpt>
      <trkpt lat="49.01956" lon="2.04114">
        <ele>29.2</ele>
        <time>2022-06-28T10:19:14Z</time>
      </trkpt>
      <trkpt lat="49.01951" lon="2.04117">
        <ele>29.1</ele>
        <time>2022-06-28T10:19:27Z</time>
      </trkpt>
      <trkpt lat="49.01947" lon="2.04122">
        <ele>29.8</ele>
        <time>2022-06-28T10:19:31Z</time>
      </trkpt>
      <trkpt lat="49.01944" lon="2.04126">
        <ele>30</ele>
        <time>2022-06-28T10:19:35Z</time>
      </trkpt>
      <trkpt lat="49.0194" lon="2.04131">
        <ele>30.1</ele>
        <time>2022-06-28T10:19:39Z</time>
      </trkpt>
      <trkpt lat="49.01936" lon="2.04135">
        <ele>29.6</ele>
        <time>2022-06-28T10:19:43Z</time>
      </trkpt>
      <trkpt lat="49.01932" lon="2.0414">
        <ele>29.7</ele>
        <time>2022-06-28T10:19:47Z</time>
      </trkpt>
      <trkpt lat="49.01928" lon="2.04143">
        <ele>29.4</ele>
        <time>2022-06-28T10:19:52Z</time>
      </trkpt>
      <trkpt lat="49.01923" lon="2.04147">
        <ele>30.2</ele>
        <time>2022-06-28T10:19:56Z</time>
      </trkpt>
      <trkpt lat="49.01919" lon="2.04151">
        <ele>30.4</ele>
        <time>2022-06-28T10:20:00Z</time>
      </trkpt>
      <trkpt lat="49.01916" lon="2.04156">
        <ele>29.1</ele>
        <time>2022-06-28T10:20:04Z</time>
      </trkpt>
      <trkpt lat="49.01911" lon="2.04161">
        <ele>30.8</ele>
        <time>2022-06-28T10:20:08Z</time>
      </trkpt>
      <trkpt lat="49.01907" lon="2.04165">
        <ele>32.2</ele>
        <time>2022-06-28T10:20:13Z</time>
      </trkpt>
      <trkpt lat="49.01902" lon="2.04168">
        <ele>33.1</ele>
        <time>2022-06-28T10:20:17Z</time>
      </trkpt>
      <trkpt lat="49.01898" lon="2.0417">
        <ele>33.5</ele>
        <time>2022-06-28T10:20:21Z</time>
      </trkpt>
      <trkpt lat="49.01892" lon="2.04174">
        <ele>34.1</ele>
        <time>2022-06-28T10:20:26Z</time>
      </trkpt>
      <trkpt lat="49.01888" lon="2.04176">
        <ele>34.1</ele>
        <time>2022-06-28T10:20:30Z</time>
      </trkpt>
      <trkpt lat="49.01883" lon="2.0418">
        <ele>36.4</ele>
        <time>2022-06-28T10:20:34Z</time>
      </trkpt>
      <trkpt lat="49.01879" lon="2.04184">
        <ele>37.8</ele>
        <time>2022-06-28T10:20:38Z</time>
      </trkpt>
      <trkpt lat="49.01876" lon="2.04188">
        <ele>37.2</ele>
        <time>2022-06-28T10:20:42Z</time>
      </trkpt>
      <trkpt lat="49.01872" lon="2.04192">
        <ele>37.6</ele>
        <time>2022-06-28T10:20:46Z</time>
      </trkpt>
      <trkpt lat="49.01866" lon="2.04193">
        <ele>35.5</ele>
        <time>2022-06-28T10:20:57Z</time>
      </trkpt>
      <trkpt lat="49.01861" lon="2.04198">
        <ele>35.5</ele>
        <time>2022-06-28T10:21:01Z</time>
      </trkpt>
      <trkpt lat="49.01857" lon="2.04204">
        <ele>36.4</ele>
        <time>2022-06-28T10:21:05Z</time>
      </trkpt>
      <trkpt lat="49.01853" lon="2.0421">
        <ele>37.7</ele>
        <time>2022-06-28T10:21:08Z</time>
      </trkpt>
      <trkpt lat="49.01849" lon="2.04216">
        <ele>36.6</ele>
        <time>2022-06-28T10:21:12Z</time>
      </trkpt>
      <trkpt lat="49.01846" lon="2.0422">
        <ele>36.4</ele>
        <time>2022-06-28T10:21:15Z</time>
      </trkpt>
      <trkpt lat="49.01841" lon="2.04226">
        <ele>36.8</ele>
        <time>2022-06-28T10:21:19Z</time>
      </trkpt>
      <trkpt lat="49.01837" lon="2.0423">
        <ele>35.8</ele>
        <time>2022-06-28T10:21:24Z</time>
      </trkpt>
      <trkpt lat="49.01832" lon="2.04234">
        <ele>33.9</ele>
        <time>2022-06-28T10:21:28Z</time>
      </trkpt>
      <trkpt lat="49.01828" lon="2.04238">
        <ele>35.8</ele>
        <time>2022-06-28T10:21:32Z</time>
      </trkpt>
      <trkpt lat="49.01824" lon="2.04241">
        <ele>35.7</ele>
        <time>2022-06-28T10:21:36Z</time>
      </trkpt>
      <trkpt lat="49.01819" lon="2.04245">
        <ele>34</ele>
        <time>2022-06-28T10:21:41Z</time>
      </trkpt>
      <trkpt lat="49.01815" lon="2.04249">
        <ele>36.3</ele>
        <time>2022-06-28T10:21:45Z</time>
      </trkpt>
      <trkpt lat="49.01811" lon="2.04253">
        <ele>37.6</ele>
        <time>2022-06-28T10:21:49Z</time>
      </trkpt>
      <trkpt lat="49.01807" lon="2.04258">
        <ele>38.6</ele>
        <time>2022-06-28T10:21:53Z</time>
      </trkpt>
      <trkpt lat="49.01803" lon="2.04263">
        <ele>37.8</ele>
        <time>2022-06-28T10:21:58Z</time>
      </trkpt>
      <trkpt lat="49.01799" lon="2.04267">
        <ele>37.4</ele>
        <time>2022-06-28T10:22:02Z</time>
      </trkpt>
      <trkpt lat="49.01794" lon="2.04273">
        <ele>38.3</ele>
        <time>2022-06-28T10:22:07Z</time>
      </trkpt>
      <trkpt lat="49.0179" lon="2.04278">
        <ele>38.1</ele>
        <time>2022-06-28T10:22:11Z</time>
      </trkpt>
      <trkpt lat="49.01786" lon="2.04282">
        <ele>42.3</ele>
        <time>2022-06-28T10:22:15Z</time>
      </trkpt>
      <trkpt lat="49.01782" lon="2.04285">
        <ele>42.3</ele>
        <time>2022-06-28T10:22:20Z</time>
      </trkpt>
      <trkpt lat="49.01777" lon="2.04289">
        <ele>42.6</ele>
        <time>2022-06-28T10:22:24Z</time>
      </trkpt>
      <trkpt lat="49.01772" lon="2.04293">
        <ele>43.8</ele>
        <time>2022-06-28T10:22:28Z</time>
      </trkpt>
      <trkpt lat="49.01768" lon="2.04298">
        <ele>43</ele>
        <time>2022-06-28T10:22:33Z</time>
      </trkpt>
      <trkpt lat="49.01764" lon="2.04303">
        <ele>42</ele>
        <time>2022-06-28T10:22:37Z</time>
      </trkpt>
      <trkpt lat="49.0176" lon="2.04307">
        <ele>44.7</ele>
        <time>2022-06-28T10:22:41Z</time>
      </trkpt>
      <trkpt lat="49.01756" lon="2.04312">
        <ele>44.5</ele>
        <time>2022-06-28T10:22:46Z</time>
      </trkpt>
      <trkpt lat="49.01752" lon="2.04316">
        <ele>43</ele>
        <time>2022-06-28T10:22:50Z</time>
      </trkpt>
      <trkpt lat="49.01748" lon="2.04321">
        <ele>47.6</ele>
        <time>2022-06-28T10:22:55Z</time>
      </trkpt>
      <trkpt lat="49.01744" lon="2.04326">
        <ele>45.4</ele>
        <time>2022-06-28T10:23:00Z</time>
      </trkpt>
      <trkpt lat="49.01739" lon="2.04329">
        <ele>45.7</ele>
        <time>2022-06-28T10:23:06Z</time>
      </trkpt>
      <trkpt lat="49.01741" lon="2.04336">
        <ele>44.8</ele>
        <time>2022-06-28T10:23:12Z</time>
      </trkpt>
      <trkpt lat="49.01736" lon="2.04341">
        <ele>44.7</ele>
        <time>2022-06-28T10:23:18Z</time>
      </trkpt>
      <trkpt lat="49.01732" lon="2.04346">
        <ele>43.6</ele>
        <time>2022-06-28T10:23:22Z</time>
      </trkpt>
      <trkpt lat="49.01728" lon="2.0435">
        <ele>41.3</ele>
        <time>2022-06-28T10:23:27Z</time>
      </trkpt>
      <trkpt lat="49.01724" lon="2.04354">
        <ele>42.7</ele>
        <time>2022-06-28T10:23:32Z</time>
      </trkpt>
      <trkpt lat="49.0172" lon="2.04358">
        <ele>44.2</ele>
        <time>2022-06-28T10:23:36Z</time>
      </trkpt>
      <trkpt lat="49.01717" lon="2.04362">
        <ele>45.9</ele>
        <time>2022-06-28T10:23:41Z</time>
      </trkpt>
      <trkpt lat="49.01712" lon="2.04368">
        <ele>46.4</ele>
        <time>2022-06-28T10:23:46Z</time>
      </trkpt>
      <trkpt lat="49.01708" lon="2.04373">
        <ele>46.7</ele>
        <time>2022-06-28T10:23:51Z</time>
      </trkpt>
      <trkpt lat="49.01705" lon="2.04377">
        <ele>45.9</ele>
        <time>2022-06-28T10:23:56Z</time>
      </trkpt>
      <trkpt lat="49.01701" lon="2.04382">
        <ele>48.3</ele>
        <time>2022-06-28T10:24:01Z</time>
      </trkpt>
      <trkpt lat="49.01697" lon="2.04387">
        <ele>49</ele>
        <time>2022-06-28T10:24:06Z</time>
      </trkpt>
      <trkpt lat="49.01693" lon="2.04392">
        <ele>49</ele>
        <time>2022-06-28T10:24:11Z</time>
      </trkpt>
      <trkpt lat="49.01689" lon="2.04396">
        <ele>48.1</ele>
        <time>2022-06-28T10:24:15Z</time>
      </trkpt>
      <trkpt lat="49.01684" lon="2.04401">
        <ele>48.5</ele>
        <time>2022-06-28T10:24:21Z</time>
      </trkpt>
      <trkpt lat="49.01679" lon="2.04404">
        <ele>47.2</ele>
        <time>2022-06-28T10:24:25Z</time>
      </trkpt>
      <trkpt lat="49.01676" lon="2.04409">
        <ele>44.1</ele>
        <time>2022-06-28T10:24:29Z</time>
      </trkpt>
      <trkpt lat="49.01672" lon="2.04414">
        <ele>43.7</ele>
        <time>2022-06-28T10:24:34Z</time>
      </trkpt>
      <trkpt lat="49.01668" lon="2.0442">
        <ele>44.5</ele>
        <time>2022-06-28T10:24:39Z</time>
      </trkpt>
      <trkpt lat="49.01664" lon="2.04425">
        <ele>44.9</ele>
        <time>2022-06-28T10:24:44Z</time>
      </trkpt>
      <trkpt lat="49.01661" lon="2.0443">
        <ele>46.2</ele>
        <time>2022-06-28T10:24:48Z</time>
      </trkpt>
      <trkpt lat="49.01656" lon="2.04436">
        <ele>46.8</ele>
        <time>2022-06-28T10:24:53Z</time>
      </trkpt>
      <trkpt lat="49.01653" lon="2.04441">
        <ele>46.5</ele>
        <time>2022-06-28T10:24:57Z</time>
      </trkpt>
      <trkpt lat="49.01649" lon="2.04446">
        <ele>46.2</ele>
        <time>2022-06-28T10:25:01Z</time>
      </trkpt>
      <trkpt lat="49.01645" lon="2.0445">
        <ele>48.2</ele>
        <time>2022-06-28T10:25:05Z</time>
      </trkpt>
      <trkpt lat="49.0164" lon="2.04455">
        <ele>48.3</ele>
        <time>2022-06-28T10:25:09Z</time>
      </trkpt>
      <trkpt lat="49.01636" lon="2.04459">
        <ele>48.3</ele>
        <time>2022-06-28T10:25:14Z</time>
      </trkpt>
      <trkpt lat="49.01632" lon="2.04464">
        <ele>47.8</ele>
        <time>2022-06-28T10:25:18Z</time>
      </trkpt>
      <trkpt lat="49.01628" lon="2.0447">
        <ele>49.2</ele>
        <time>2022-06-28T10:25:22Z</time>
      </trkpt>
      <trkpt lat="49.01625" lon="2.04477">
        <ele>46.3</ele>
        <time>2022-06-28T10:25:26Z</time>
      </trkpt>
      <trkpt lat="49.01622" lon="2.04483">
        <ele>45.3</ele>
        <time>2022-06-28T10:25:31Z</time>
      </trkpt>
      <trkpt lat="49.01618" lon="2.04489">
        <ele>44.6</ele>
        <time>2022-06-28T10:25:35Z</time>
      </trkpt>
      <trkpt lat="49.01614" lon="2.04494">
        <ele>43.9</ele>
        <time>2022-06-28T10:25:39Z</time>
      </trkpt>
      <trkpt lat="49.01611" lon="2.04499">
        <ele>46.6</ele>
        <time>2022-06-28T10:25:43Z</time>
      </trkpt>
      <trkpt lat="49.01608" lon="2.04505">
        <ele>45.2</ele>
        <time>2022-06-28T10:25:47Z</time>
      </trkpt>
      <trkpt lat="49.01605" lon="2.0451">
        <ele>46.4</ele>
        <time>2022-06-28T10:25:52Z</time>
      </trkpt>
      <trkpt lat="49.01601" lon="2.04514">
        <ele>46.4</ele>
        <time>2022-06-28T10:25:56Z</time>
      </trkpt>
      <trkpt lat="49.01597" lon="2.0452">
        <ele>48.7</ele>
        <time>2022-06-28T10:26:01Z</time>
      </trkpt>
      <trkpt lat="49.01593" lon="2.04526">
        <ele>50</ele>
        <time>2022-06-28T10:26:06Z</time>
      </trkpt>
      <trkpt lat="49.01589" lon="2.04532">
        <ele>49.3</ele>
        <time>2022-06-28T10:26:10Z</time>
      </trkpt>
      <trkpt lat="49.01584" lon="2.04538">
        <ele>49.6</ele>
        <time>2022-06-28T10:26:15Z</time>
      </trkpt>
      <trkpt lat="49.0158" lon="2.04544">
        <ele>49.5</ele>
        <time>2022-06-28T10:26:20Z</time>
      </trkpt>
      <trkpt lat="49.01577" lon="2.04551">
        <ele>47.7</ele>
        <time>2022-06-28T10:26:25Z</time>
      </trkpt>
      <trkpt lat="49.01573" lon="2.04556">
        <ele>45.7</ele>
        <time>2022-06-28T10:26:30Z</time>
      </trkpt>
      <trkpt lat="49.01571" lon="2.04562">
        <ele>45.1</ele>
        <time>2022-06-28T10:26:34Z</time>
      </trkpt>
      <trkpt lat="49.01567" lon="2.04567">
        <ele>48.6</ele>
        <time>2022-06-28T10:26:39Z</time>
      </trkpt>
      <trkpt lat="49.01563" lon="2.04573">
        <ele>47.1</ele>
        <time>2022-06-28T10:26:44Z</time>
      </trkpt>
      <trkpt lat="49.0156" lon="2.04579">
        <ele>48</ele>
        <time>2022-06-28T10:26:49Z</time>
      </trkpt>
      <trkpt lat="49.01561" lon="2.04588">
        <ele>50.2</ele>
        <time>2022-06-28T10:26:55Z</time>
      </trkpt>
      <trkpt lat="49.01561" lon="2.04595">
        <ele>49.1</ele>
        <time>2022-06-28T10:26:59Z</time>
      </trkpt>
      <trkpt lat="49.01566" lon="2.04593">
        <ele>47.7</ele>
        <time>2022-06-28T10:27:14Z</time>
      </trkpt>
      <trkpt lat="49.0157" lon="2.04587">
        <ele>47.7</ele>
        <time>2022-06-28T10:27:17Z</time>
      </trkpt>
      <trkpt lat="49.01574" lon="2.04587">
        <ele>50.2</ele>
        <time>2022-06-28T10:27:24Z</time>
      </trkpt>
      <trkpt lat="49.01579" lon="2.04588">
        <ele>49.7</ele>
        <time>2022-06-28T10:27:30Z</time>
      </trkpt>
      <trkpt lat="49.0158" lon="2.04595">
        <ele>49</ele>
        <time>2022-06-28T10:27:39Z</time>
      </trkpt>
      <trkpt lat="49.01581" lon="2.04602">
        <ele>46.8</ele>
        <time>2022-06-28T10:27:52Z</time>
      </trkpt>
      <trkpt lat="49.01584" lon="2.04609">
        <ele>47.3</ele>
        <time>2022-06-28T10:27:57Z</time>
      </trkpt>
      <trkpt lat="49.01587" lon="2.04614">
        <ele>45.6</ele>
        <time>2022-06-28T10:28:02Z</time>
      </trkpt>
      <trkpt lat="49.0159" lon="2.0462">
        <ele>45.4</ele>
        <time>2022-06-28T10:28:07Z</time>
      </trkpt>
      <trkpt lat="49.01594" lon="2.04625">
        <ele>45.6</ele>
        <time>2022-06-28T10:28:12Z</time>
      </trkpt>
      <trkpt lat="49.01598" lon="2.0463">
        <ele>45.7</ele>
        <time>2022-06-28T10:28:17Z</time>
      </trkpt>
      <trkpt lat="49.01601" lon="2.04636">
        <ele>43.9</ele>
        <time>2022-06-28T10:28:23Z</time>
      </trkpt>
      <trkpt lat="49.01604" lon="2.04643">
        <ele>42.4</ele>
        <time>2022-06-28T10:28:28Z</time>
      </trkpt>
      <trkpt lat="49.01607" lon="2.04649">
        <ele>43.8</ele>
        <time>2022-06-28T10:28:33Z</time>
      </trkpt>
      <trkpt lat="49.0161" lon="2.04657">
        <ele>43.9</ele>
        <time>2022-06-28T10:28:38Z</time>
      </trkpt>
      <trkpt lat="49.01613" lon="2.04663">
        <ele>43.8</ele>
        <time>2022-06-28T10:28:44Z</time>
      </trkpt>
      <trkpt lat="49.01617" lon="2.04668">
        <ele>41.8</ele>
        <time>2022-06-28T10:28:49Z</time>
      </trkpt>
      <trkpt lat="49.01622" lon="2.04666">
        <ele>40.1</ele>
        <time>2022-06-28T10:28:56Z</time>
      </trkpt>
      <trkpt lat="49.01627" lon="2.04663">
        <ele>39.2</ele>
        <time>2022-06-28T10:29:01Z</time>
      </trkpt>
      <trkpt lat="49.01631" lon="2.04658">
        <ele>41.1</ele>
        <time>2022-06-28T10:29:05Z</time>
      </trkpt>
      <trkpt lat="49.01634" lon="2.04652">
        <ele>42.8</ele>
        <time>2022-06-28T10:29:20Z</time>
      </trkpt>
      <trkpt lat="49.01639" lon="2.04656">
        <ele>42.3</ele>
        <time>2022-06-28T10:30:00Z</time>
      </trkpt>
      <trkpt lat="49.01639" lon="2.04663">
        <ele>41.1</ele>
        <time>2022-06-28T10:30:05Z</time>
      </trkpt>
      <trkpt lat="49.01637" lon="2.0467">
        <ele>38.2</ele>
        <time>2022-06-28T10:30:09Z</time>
      </trkpt>
      <trkpt lat="49.01637" lon="2.04678">
        <ele>37.7</ele>
        <time>2022-06-28T10:30:14Z</time>
      </trkpt>
      <trkpt lat="49.01641" lon="2.04679">
        <ele>34.8</ele>
        <time>2022-06-28T10:30:19Z</time>
      </trkpt>
      <trkpt lat="49.01645" lon="2.04674">
        <ele>33.3</ele>
        <time>2022-06-28T10:30:23Z</time>
      </trkpt>
      <trkpt lat="49.01649" lon="2.0467">
        <ele>35.4</ele>
        <time>2022-06-28T10:30:43Z</time>
      </trkpt>
      <trkpt lat="49.01656" lon="2.04663">
        <ele>33.2</ele>
        <time>2022-06-28T10:30:52Z</time>
      </trkpt>
      <trkpt lat="49.01661" lon="2.0466">
        <ele>31.7</ele>
        <time>2022-06-28T10:30:55Z</time>
      </trkpt>
      <trkpt lat="49.01666" lon="2.04657">
        <ele>33.4</ele>
        <time>2022-06-28T10:30:59Z</time>
      </trkpt>
      <trkpt lat="49.01671" lon="2.04655">
        <ele>31.8</ele>
        <time>2022-06-28T10:31:04Z</time>
      </trkpt>
      <trkpt lat="49.01675" lon="2.04658">
        <ele>31.4</ele>
        <time>2022-06-28T10:31:09Z</time>
      </trkpt>
      <trkpt lat="49.01673" lon="2.04666">
        <ele>30.9</ele>
        <time>2022-06-28T10:31:13Z</time>
      </trkpt>
      <trkpt lat="49.01668" lon="2.04672">
        <ele>28.7</ele>
        <time>2022-06-28T10:31:17Z</time>
      </trkpt>
      <trkpt lat="49.01665" lon="2.04683">
        <ele>31</ele>
        <time>2022-06-28T10:31:29Z</time>
      </trkpt>
      <trkpt lat="49.01663" lon="2.04689">
        <ele>32.7</ele>
        <time>2022-06-28T10:31:33Z</time>
      </trkpt>
      <trkpt lat="49.01661" lon="2.04696">
        <ele>31.8</ele>
        <time>2022-06-28T10:31:38Z</time>
      </trkpt>
      <trkpt lat="49.01658" lon="2.04703">
        <ele>32.6</ele>
        <time>2022-06-28T10:31:42Z</time>
      </trkpt>
      <trkpt lat="49.01656" lon="2.04709">
        <ele>29.8</ele>
        <time>2022-06-28T10:31:46Z</time>
      </trkpt>
      <trkpt lat="49.01654" lon="2.04716">
        <ele>31.2</ele>
        <time>2022-06-28T10:31:50Z</time>
      </trkpt>
      <trkpt lat="49.01656" lon="2.04722">
        <ele>29.5</ele>
        <time>2022-06-28T10:31:55Z</time>
      </trkpt>
      <trkpt lat="49.01658" lon="2.04729">
        <ele>31.7</ele>
        <time>2022-06-28T10:31:59Z</time>
      </trkpt>
      <trkpt lat="49.01659" lon="2.04736">
        <ele>30.3</ele>
        <time>2022-06-28T10:32:04Z</time>
      </trkpt>
      <trkpt lat="49.01661" lon="2.04743">
        <ele>29.9</ele>
        <time>2022-06-28T10:32:08Z</time>
      </trkpt>
      <trkpt lat="49.01663" lon="2.04752">
        <ele>28.8</ele>
        <time>2022-06-28T10:32:13Z</time>
      </trkpt>
      <trkpt lat="49.01664" lon="2.04761">
        <ele>30.4</ele>
        <time>2022-06-28T10:32:18Z</time>
      </trkpt>
      <trkpt lat="49.01665" lon="2.04768">
        <ele>29.7</ele>
        <time>2022-06-28T10:32:23Z</time>
      </trkpt>
      <trkpt lat="49.01666" lon="2.04776">
        <ele>30.8</ele>
        <time>2022-06-28T10:32:27Z</time>
      </trkpt>
      <trkpt lat="49.01669" lon="2.04784">
        <ele>29</ele>
        <time>2022-06-28T10:32:32Z</time>
      </trkpt>
      <trkpt lat="49.01668" lon="2.04791">
        <ele>27.5</ele>
        <time>2022-06-28T10:32:36Z</time>
      </trkpt>
      <trkpt lat="49.01666" lon="2.04798">
        <ele>26.3</ele>
        <time>2022-06-28T10:32:40Z</time>
      </trkpt>
      <trkpt lat="49.01662" lon="2.04805">
        <ele>23.8</ele>
        <time>2022-06-28T10:32:45Z</time>
      </trkpt>
      <trkpt lat="49.01659" lon="2.0481">
        <ele>25.2</ele>
        <time>2022-06-28T10:32:50Z</time>
      </trkpt>
      <trkpt lat="49.01655" lon="2.04815">
        <ele>23.4</ele>
        <time>2022-06-28T10:32:54Z</time>
      </trkpt>
      <trkpt lat="49.01651" lon="2.04821">
        <ele>23.4</ele>
        <time>2022-06-28T10:32:58Z</time>
      </trkpt>
      <trkpt lat="49.01647" lon="2.04827">
        <ele>21.1</ele>
        <time>2022-06-28T10:33:04Z</time>
      </trkpt>
      <trkpt lat="49.01645" lon="2.04833">
        <ele>20.6</ele>
        <time>2022-06-28T10:33:08Z</time>
      </trkpt>
      <trkpt lat="49.01646" lon="2.04842">
        <ele>23.4</ele>
        <time>2022-06-28T10:33:13Z</time>
      </trkpt>
      <trkpt lat="49.01649" lon="2.04849">
        <ele>21.5</ele>
        <time>2022-06-28T10:33:17Z</time>
      </trkpt>
      <trkpt lat="49.01653" lon="2.04854">
        <ele>21.8</ele>
        <time>2022-06-28T10:33:20Z</time>
      </trkpt>
      <trkpt lat="49.01656" lon="2.04861">
        <ele>20.8</ele>
        <time>2022-06-28T10:33:24Z</time>
      </trkpt>
      <trkpt lat="49.01659" lon="2.04867">
        <ele>21.8</ele>
        <time>2022-06-28T10:33:28Z</time>
      </trkpt>
      <trkpt lat="49.01662" lon="2.04873">
        <ele>21.1</ele>
        <time>2022-06-28T10:33:31Z</time>
      </trkpt>
      <trkpt lat="49.01664" lon="2.04879">
        <ele>20.4</ele>
        <time>2022-06-28T10:33:34Z</time>
      </trkpt>
      <trkpt lat="49.01666" lon="2.04888">
        <ele>22.5</ele>
        <time>2022-06-28T10:33:38Z</time>
      </trkpt>
      <trkpt lat="49.01665" lon="2.04894">
        <ele>21</ele>
        <time>2022-06-28T10:33:56Z</time>
      </trkpt>
      <trkpt lat="49.01668" lon="2.04902">
        <ele>20.3</ele>
        <time>2022-06-28T10:34:00Z</time>
      </trkpt>
      <trkpt lat="49.01671" lon="2.04909">
        <ele>21.7</ele>
        <time>2022-06-28T10:34:03Z</time>
      </trkpt>
      <trkpt lat="49.01674" lon="2.04917">
        <ele>20.9</ele>
        <time>2022-06-28T10:34:06Z</time>
      </trkpt>
      <trkpt lat="49.01677" lon="2.04923">
        <ele>21</ele>
        <time>2022-06-28T10:34:09Z</time>
      </trkpt>
      <trkpt lat="49.01681" lon="2.0493">
        <ele>20.5</ele>
        <time>2022-06-28T10:34:13Z</time>
      </trkpt>
      <trkpt lat="49.01684" lon="2.04936">
        <ele>21.2</ele>
        <time>2022-06-28T10:34:17Z</time>
      </trkpt>
      <trkpt lat="49.01687" lon="2.04943">
        <ele>20.8</ele>
        <time>2022-06-28T10:34:21Z</time>
      </trkpt>
      <trkpt lat="49.01691" lon="2.04949">
        <ele>19.9</ele>
        <time>2022-06-28T10:34:25Z</time>
      </trkpt>
      <trkpt lat="49.01694" lon="2.04956">
        <ele>22.1</ele>
        <time>2022-06-28T10:34:29Z</time>
      </trkpt>
      <trkpt lat="49.01697" lon="2.04964">
        <ele>19.8</ele>
        <time>2022-06-28T10:34:33Z</time>
      </trkpt>
      <trkpt lat="49.017" lon="2.04971">
        <ele>19.6</ele>
        <time>2022-06-28T10:34:37Z</time>
      </trkpt>
      <trkpt lat="49.01705" lon="2.04976">
        <ele>19.2</ele>
        <time>2022-06-28T10:34:41Z</time>
      </trkpt>
      <trkpt lat="49.0171" lon="2.04981">
        <ele>19.8</ele>
        <time>2022-06-28T10:34:46Z</time>
      </trkpt>
      <trkpt lat="49.01714" lon="2.04986">
        <ele>21.7</ele>
        <time>2022-06-28T10:34:51Z</time>
      </trkpt>
      <trkpt lat="49.01718" lon="2.04992">
        <ele>23</ele>
        <time>2022-06-28T10:34:55Z</time>
      </trkpt>
      <trkpt lat="49.0172" lon="2.04998">
        <ele>21.8</ele>
        <time>2022-06-28T10:34:59Z</time>
      </trkpt>
      <trkpt lat="49.01722" lon="2.05005">
        <ele>23.6</ele>
        <time>2022-06-28T10:35:03Z</time>
      </trkpt>
      <trkpt lat="49.01722" lon="2.05013">
        <ele>22.7</ele>
        <time>2022-06-28T10:35:08Z</time>
      </trkpt>
      <trkpt lat="49.01718" lon="2.05019">
        <ele>24.2</ele>
        <time>2022-06-28T10:35:12Z</time>
      </trkpt>
      <trkpt lat="49.01713" lon="2.05024">
        <ele>23.8</ele>
        <time>2022-06-28T10:35:16Z</time>
      </trkpt>
      <trkpt lat="49.01708" lon="2.05027">
        <ele>23.6</ele>
        <time>2022-06-28T10:35:20Z</time>
      </trkpt>
      <trkpt lat="49.01702" lon="2.05028">
        <ele>22.4</ele>
        <time>2022-06-28T10:35:24Z</time>
      </trkpt>
      <trkpt lat="49.01698" lon="2.0503">
        <ele>22.9</ele>
        <time>2022-06-28T10:35:28Z</time>
      </trkpt>
      <trkpt lat="49.01693" lon="2.05035">
        <ele>23.4</ele>
        <time>2022-06-28T10:35:32Z</time>
      </trkpt>
      <trkpt lat="49.01689" lon="2.05041">
        <ele>23.1</ele>
        <time>2022-06-28T10:35:36Z</time>
      </trkpt>
      <trkpt lat="49.01685" lon="2.05047">
        <ele>20.2</ele>
        <time>2022-06-28T10:35:40Z</time>
      </trkpt>
      <trkpt lat="49.01682" lon="2.05053">
        <ele>18.8</ele>
        <time>2022-06-28T10:35:43Z</time>
      </trkpt>
      <trkpt lat="49.01678" lon="2.05059">
        <ele>19.5</ele>
        <time>2022-06-28T10:35:47Z</time>
      </trkpt>
      <trkpt lat="49.01675" lon="2.05064">
        <ele>20.5</ele>
        <time>2022-06-28T10:35:50Z</time>
      </trkpt>
      <trkpt lat="49.01671" lon="2.05068">
        <ele>21.4</ele>
        <time>2022-06-28T10:35:54Z</time>
      </trkpt>
      <trkpt lat="49.01668" lon="2.05074">
        <ele>23.5</ele>
        <time>2022-06-28T10:35:58Z</time>
      </trkpt>
      <trkpt lat="49.01664" lon="2.05082">
        <ele>24.6</ele>
        <time>2022-06-28T10:36:03Z</time>
      </trkpt>
      <trkpt lat="49.01663" lon="2.05089">
        <ele>24</ele>
        <time>2022-06-28T10:36:07Z</time>
      </trkpt>
      <trkpt lat="49.01662" lon="2.05097">
        <ele>24.6</ele>
        <time>2022-06-28T10:36:11Z</time>
      </trkpt>
      <trkpt lat="49.01659" lon="2.05103">
        <ele>23.7</ele>
        <time>2022-06-28T10:36:15Z</time>
      </trkpt>
      <trkpt lat="49.01655" lon="2.05108">
        <ele>22.9</ele>
        <time>2022-06-28T10:36:19Z</time>
      </trkpt>
      <trkpt lat="49.01651" lon="2.05114">
        <ele>24.1</ele>
        <time>2022-06-28T10:36:24Z</time>
      </trkpt>
      <trkpt lat="49.01647" lon="2.0512">
        <ele>23.8</ele>
        <time>2022-06-28T10:36:29Z</time>
      </trkpt>
      <trkpt lat="49.01645" lon="2.05127">
        <ele>27.6</ele>
        <time>2022-06-28T10:36:32Z</time>
      </trkpt>
      <trkpt lat="49.01641" lon="2.05134">
        <ele>27.6</ele>
        <time>2022-06-28T10:36:37Z</time>
      </trkpt>
      <trkpt lat="49.01638" lon="2.0514">
        <ele>27.1</ele>
        <time>2022-06-28T10:36:41Z</time>
      </trkpt>
      <trkpt lat="49.01636" lon="2.05146">
        <ele>24.7</ele>
        <time>2022-06-28T10:36:45Z</time>
      </trkpt>
      <trkpt lat="49.01632" lon="2.05151">
        <ele>25.4</ele>
        <time>2022-06-28T10:36:49Z</time>
      </trkpt>
      <trkpt lat="49.01627" lon="2.05156">
        <ele>22.3</ele>
        <time>2022-06-28T10:36:54Z</time>
      </trkpt>
      <trkpt lat="49.01623" lon="2.05161">
        <ele>20.8</ele>
        <time>2022-06-28T10:36:57Z</time>
      </trkpt>
      <trkpt lat="49.01619" lon="2.05166">
        <ele>21.1</ele>
        <time>2022-06-28T10:37:02Z</time>
      </trkpt>
      <trkpt lat="49.01616" lon="2.05171">
        <ele>22.3</ele>
        <time>2022-06-28T10:37:06Z</time>
      </trkpt>
      <trkpt lat="49.01612" lon="2.05178">
        <ele>20.3</ele>
        <time>2022-06-28T10:37:10Z</time>
      </trkpt>
      <trkpt lat="49.01609" lon="2.05184">
        <ele>21.6</ele>
        <time>2022-06-28T10:37:14Z</time>
      </trkpt>
      <trkpt lat="49.01605" lon="2.0519">
        <ele>22.5</ele>
        <time>2022-06-28T10:37:18Z</time>
      </trkpt>
      <trkpt lat="49.01601" lon="2.05196">
        <ele>21.6</ele>
        <time>2022-06-28T10:37:22Z</time>
      </trkpt>
      <trkpt lat="49.01597" lon="2.05201">
        <ele>19.5</ele>
        <time>2022-06-28T10:37:26Z</time>
      </trkpt>
      <trkpt lat="49.01593" lon="2.05206">
        <ele>21</ele>
        <time>2022-06-28T10:37:29Z</time>
      </trkpt>
      <trkpt lat="49.0159" lon="2.05211">
        <ele>18.8</ele>
        <time>2022-06-28T10:37:34Z</time>
      </trkpt>
      <trkpt lat="49.01586" lon="2.05218">
        <ele>18.3</ele>
        <time>2022-06-28T10:37:40Z</time>
      </trkpt>
      <trkpt lat="49.01583" lon="2.05224">
        <ele>18.4</ele>
        <time>2022-06-28T10:37:44Z</time>
      </trkpt>
      <trkpt lat="49.01579" lon="2.05229">
        <ele>18.9</ele>
        <time>2022-06-28T10:37:49Z</time>
      </trkpt>
      <trkpt lat="49.01575" lon="2.05233">
        <ele>18.3</ele>
        <time>2022-06-28T10:37:54Z</time>
      </trkpt>
      <trkpt lat="49.01571" lon="2.05239">
        <ele>18.8</ele>
        <time>2022-06-28T10:37:59Z</time>
      </trkpt>
      <trkpt lat="49.01567" lon="2.05247">
        <ele>19.6</ele>
        <time>2022-06-28T10:38:04Z</time>
      </trkpt>
      <trkpt lat="49.01562" lon="2.05253">
        <ele>20</ele>
        <time>2022-06-28T10:38:09Z</time>
      </trkpt>
      <trkpt lat="49.01557" lon="2.05258">
        <ele>17.3</ele>
        <time>2022-06-28T10:38:15Z</time>
      </trkpt>
      <trkpt lat="49.01553" lon="2.05262">
        <ele>17.7</ele>
        <time>2022-06-28T10:38:19Z</time>
      </trkpt>
      <trkpt lat="49.0155" lon="2.05267">
        <ele>19.4</ele>
        <time>2022-06-28T10:38:23Z</time>
      </trkpt>
      <trkpt lat="49.01546" lon="2.05272">
        <ele>19.8</ele>
        <time>2022-06-28T10:38:27Z</time>
      </trkpt>
      <trkpt lat="49.01542" lon="2.05278">
        <ele>19.4</ele>
        <time>2022-06-28T10:38:31Z</time>
      </trkpt>
      <trkpt lat="49.0154" lon="2.05284">
        <ele>18.8</ele>
        <time>2022-06-28T10:38:35Z</time>
      </trkpt>
      <trkpt lat="49.01536" lon="2.05291">
        <ele>17.4</ele>
        <time>2022-06-28T10:38:40Z</time>
      </trkpt>
      <trkpt lat="49.01531" lon="2.05296">
        <ele>17.8</ele>
        <time>2022-06-28T10:38:45Z</time>
      </trkpt>
      <trkpt lat="49.01527" lon="2.05303">
        <ele>21</ele>
        <time>2022-06-28T10:38:49Z</time>
      </trkpt>
      <trkpt lat="49.01524" lon="2.0531">
        <ele>21</ele>
        <time>2022-06-28T10:38:54Z</time>
      </trkpt>
      <trkpt lat="49.01521" lon="2.05316">
        <ele>21.4</ele>
        <time>2022-06-28T10:38:59Z</time>
      </trkpt>
      <trkpt lat="49.01516" lon="2.0532">
        <ele>20.3</ele>
        <time>2022-06-28T10:39:04Z</time>
      </trkpt>
      <trkpt lat="49.01512" lon="2.05328">
        <ele>20.9</ele>
        <time>2022-06-28T10:39:09Z</time>
      </trkpt>
      <trkpt lat="49.01508" lon="2.05334">
        <ele>21.9</ele>
        <time>2022-06-28T10:39:14Z</time>
      </trkpt>
      <trkpt lat="49.01505" lon="2.05339">
        <ele>20.6</ele>
        <time>2022-06-28T10:39:18Z</time>
      </trkpt>
      <trkpt lat="49.01501" lon="2.05345">
        <ele>19.9</ele>
        <time>2022-06-28T10:39:23Z</time>
      </trkpt>
      <trkpt lat="49.01497" lon="2.0535">
        <ele>20.2</ele>
        <time>2022-06-28T10:39:27Z</time>
      </trkpt>
      <trkpt lat="49.01494" lon="2.05357">
        <ele>19</ele>
        <time>2022-06-28T10:39:32Z</time>
      </trkpt>
      <trkpt lat="49.01492" lon="2.05364">
        <ele>20.9</ele>
        <time>2022-06-28T10:39:36Z</time>
      </trkpt>
      <trkpt lat="49.01489" lon="2.05369">
        <ele>19.9</ele>
        <time>2022-06-28T10:39:40Z</time>
      </trkpt>
      <trkpt lat="49.01485" lon="2.05376">
        <ele>21.5</ele>
        <time>2022-06-28T10:39:45Z</time>
      </trkpt>
      <trkpt lat="49.01483" lon="2.05382">
        <ele>22.6</ele>
        <time>2022-06-28T10:39:49Z</time>
      </trkpt>
      <trkpt lat="49.0148" lon="2.05389">
        <ele>24.4</ele>
        <time>2022-06-28T10:39:54Z</time>
      </trkpt>
      <trkpt lat="49.01478" lon="2.05397">
        <ele>22.5</ele>
        <time>2022-06-28T10:39:59Z</time>
      </trkpt>
      <trkpt lat="49.01475" lon="2.05403">
        <ele>20.9</ele>
        <time>2022-06-28T10:40:03Z</time>
      </trkpt>
      <trkpt lat="49.01472" lon="2.05408">
        <ele>21.8</ele>
        <time>2022-06-28T10:40:07Z</time>
      </trkpt>
      <trkpt lat="49.01468" lon="2.05414">
        <ele>21.5</ele>
        <time>2022-06-28T10:40:11Z</time>
      </trkpt>
      <trkpt lat="49.01465" lon="2.05421">
        <ele>20.6</ele>
        <time>2022-06-28T10:40:16Z</time>
      </trkpt>
      <trkpt lat="49.01461" lon="2.05427">
        <ele>18.2</ele>
        <time>2022-06-28T10:40:21Z</time>
      </trkpt>
      <trkpt lat="49.01459" lon="2.05434">
        <ele>21.3</ele>
        <time>2022-06-28T10:40:25Z</time>
      </trkpt>
      <trkpt lat="49.01457" lon="2.05442">
        <ele>20.1</ele>
        <time>2022-06-28T10:40:29Z</time>
      </trkpt>
      <trkpt lat="49.01454" lon="2.05449">
        <ele>18.5</ele>
        <time>2022-06-28T10:40:33Z</time>
      </trkpt>
      <trkpt lat="49.01451" lon="2.05456">
        <ele>17.8</ele>
        <time>2022-06-28T10:40:38Z</time>
      </trkpt>
      <trkpt lat="49.01448" lon="2.05462">
        <ele>17.7</ele>
        <time>2022-06-28T10:40:43Z</time>
      </trkpt>
      <trkpt lat="49.01445" lon="2.05468">
        <ele>18.9</ele>
        <time>2022-06-28T10:40:47Z</time>
      </trkpt>
      <trkpt lat="49.01441" lon="2.05475">
        <ele>18.8</ele>
        <time>2022-06-28T10:40:52Z</time>
      </trkpt>
      <trkpt lat="49.01438" lon="2.05482">
        <ele>18.6</ele>
        <time>2022-06-28T10:40:56Z</time>
      </trkpt>
      <trkpt lat="49.01436" lon="2.05488">
        <ele>16.2</ele>
        <time>2022-06-28T10:41:00Z</time>
      </trkpt>
      <trkpt lat="49.01433" lon="2.05495">
        <ele>16.3</ele>
        <time>2022-06-28T10:41:04Z</time>
      </trkpt>
      <trkpt lat="49.01428" lon="2.055">
        <ele>17.3</ele>
        <time>2022-06-28T10:41:09Z</time>
      </trkpt>
      <trkpt lat="49.01425" lon="2.05507">
        <ele>17</ele>
        <time>2022-06-28T10:41:14Z</time>
      </trkpt>
      <trkpt lat="49.01423" lon="2.05514">
        <ele>18.5</ele>
        <time>2022-06-28T10:41:18Z</time>
      </trkpt>
      <trkpt lat="49.01419" lon="2.05521">
        <ele>20.2</ele>
        <time>2022-06-28T10:41:23Z</time>
      </trkpt>
      <trkpt lat="49.01415" lon="2.05527">
        <ele>17.8</ele>
        <time>2022-06-28T10:41:27Z</time>
      </trkpt>
      <trkpt lat="49.01412" lon="2.05532">
        <ele>17.2</ele>
        <time>2022-06-28T10:41:31Z</time>
      </trkpt>
      <trkpt lat="49.0141" lon="2.05538">
        <ele>16.8</ele>
        <time>2022-06-28T10:41:35Z</time>
      </trkpt>
      <trkpt lat="49.01407" lon="2.05545">
        <ele>15.6</ele>
        <time>2022-06-28T10:41:39Z</time>
      </trkpt>
      <trkpt lat="49.01405" lon="2.05552">
        <ele>14.8</ele>
        <time>2022-06-28T10:41:44Z</time>
      </trkpt>
      <trkpt lat="49.01402" lon="2.05557">
        <ele>15.9</ele>
        <time>2022-06-28T10:41:48Z</time>
      </trkpt>
      <trkpt lat="49.01399" lon="2.05563">
        <ele>19.4</ele>
        <time>2022-06-28T10:41:52Z</time>
      </trkpt>
      <trkpt lat="49.01396" lon="2.05569">
        <ele>19.9</ele>
        <time>2022-06-28T10:41:57Z</time>
      </trkpt>
      <trkpt lat="49.01392" lon="2.05575">
        <ele>20.3</ele>
        <time>2022-06-28T10:42:01Z</time>
      </trkpt>
      <trkpt lat="49.01388" lon="2.05581">
        <ele>18.1</ele>
        <time>2022-06-28T10:42:06Z</time>
      </trkpt>
      <trkpt lat="49.01386" lon="2.05573">
        <ele>19.2</ele>
        <time>2022-06-28T10:42:12Z</time>
      </trkpt>
      <trkpt lat="49.01383" lon="2.05566">
        <ele>21.2</ele>
        <time>2022-06-28T10:42:17Z</time>
      </trkpt>
      <trkpt lat="49.01387" lon="2.05563">
        <ele>22</ele>
        <time>2022-06-28T10:42:26Z</time>
      </trkpt>
      <trkpt lat="49.01388" lon="2.0557">
        <ele>21.9</ele>
        <time>2022-06-28T10:42:42Z</time>
      </trkpt>
      <trkpt lat="49.01391" lon="2.05576">
        <ele>22.8</ele>
        <time>2022-06-28T10:43:09Z</time>
      </trkpt>
      <trkpt lat="49.01388" lon="2.0557">
        <ele>17.6</ele>
        <time>2022-06-28T10:43:38Z</time>
      </trkpt>
      <trkpt lat="49.01384" lon="2.05564">
        <ele>16.8</ele>
        <time>2022-06-28T10:43:42Z</time>
      </trkpt>
      <trkpt lat="49.0138" lon="2.0556">
        <ele>13.8</ele>
        <time>2022-06-28T10:43:45Z</time>
      </trkpt>
      <trkpt lat="49.01374" lon="2.05557">
        <ele>13.6</ele>
        <time>2022-06-28T10:43:50Z</time>
      </trkpt>
      <trkpt lat="49.01369" lon="2.05559">
        <ele>17.3</ele>
        <time>2022-06-28T10:43:55Z</time>
      </trkpt>
      <trkpt lat="49.01366" lon="2.05565">
        <ele>18.1</ele>
        <time>2022-06-28T10:43:59Z</time>
      </trkpt>
      <trkpt lat="49.01363" lon="2.05569">
        <ele>19.7</ele>
        <time>2022-06-28T10:44:02Z</time>
      </trkpt>
      <trkpt lat="49.01358" lon="2.05572">
        <ele>20.8</ele>
        <time>2022-06-28T10:44:06Z</time>
      </trkpt>
      <trkpt lat="49.01353" lon="2.05573">
        <ele>19.5</ele>
        <time>2022-06-28T10:44:10Z</time>
      </trkpt>
      <trkpt lat="49.01347" lon="2.05575">
        <ele>19.9</ele>
        <time>2022-06-28T10:44:16Z</time>
      </trkpt>
      <trkpt lat="49.01342" lon="2.05578">
        <ele>18.7</ele>
        <time>2022-06-28T10:44:20Z</time>
      </trkpt>
      <trkpt lat="49.01338" lon="2.0558">
        <ele>19</ele>
        <time>2022-06-28T10:44:26Z</time>
      </trkpt>
      <trkpt lat="49.01336" lon="2.05587">
        <ele>18.6</ele>
        <time>2022-06-28T10:44:32Z</time>
      </trkpt>
      <trkpt lat="49.01338" lon="2.05594">
        <ele>21.3</ele>
        <time>2022-06-28T10:44:36Z</time>
      </trkpt>
      <trkpt lat="49.01342" lon="2.05598">
        <ele>24</ele>
        <time>2022-06-28T10:44:40Z</time>
      </trkpt>
      <trkpt lat="49.01346" lon="2.05603">
        <ele>26.1</ele>
        <time>2022-06-28T10:44:44Z</time>
      </trkpt>
      <trkpt lat="49.0135" lon="2.0561">
        <ele>27.6</ele>
        <time>2022-06-28T10:44:49Z</time>
      </trkpt>
      <trkpt lat="49.01353" lon="2.05616">
        <ele>28.1</ele>
        <time>2022-06-28T10:44:53Z</time>
      </trkpt>
      <trkpt lat="49.01356" lon="2.05622">
        <ele>29.8</ele>
        <time>2022-06-28T10:44:57Z</time>
      </trkpt>
      <trkpt lat="49.01359" lon="2.05629">
        <ele>30.3</ele>
        <time>2022-06-28T10:45:01Z</time>
      </trkpt>
      <trkpt lat="49.01363" lon="2.05637">
        <ele>30.9</ele>
        <time>2022-06-28T10:45:06Z</time>
      </trkpt>
      <trkpt lat="49.01367" lon="2.05643">
        <ele>31.3</ele>
        <time>2022-06-28T10:45:10Z</time>
      </trkpt>
      <trkpt lat="49.01368" lon="2.0565">
        <ele>31.1</ele>
        <time>2022-06-28T10:45:17Z</time>
      </trkpt>
      <trkpt lat="49.01371" lon="2.05656">
        <ele>31.1</ele>
        <time>2022-06-28T10:45:23Z</time>
      </trkpt>
      <trkpt lat="49.01375" lon="2.05664">
        <ele>30.5</ele>
        <time>2022-06-28T10:45:27Z</time>
      </trkpt>
      <trkpt lat="49.0138" lon="2.05671">
        <ele>32.2</ele>
        <time>2022-06-28T10:45:32Z</time>
      </trkpt>
      <trkpt lat="49.01383" lon="2.05677">
        <ele>31.8</ele>
        <time>2022-06-28T10:45:37Z</time>
      </trkpt>
      <trkpt lat="49.01387" lon="2.05683">
        <ele>31.2</ele>
        <time>2022-06-28T10:45:41Z</time>
      </trkpt>
      <trkpt lat="49.01391" lon="2.0569">
        <ele>31.6</ele>
        <time>2022-06-28T10:45:45Z</time>
      </trkpt>
      <trkpt lat="49.01394" lon="2.05696">
        <ele>31.5</ele>
        <time>2022-06-28T10:45:48Z</time>
      </trkpt>
      <trkpt lat="49.01398" lon="2.05703">
        <ele>31.2</ele>
        <time>2022-06-28T10:45:52Z</time>
      </trkpt>
      <trkpt lat="49.01401" lon="2.05709">
        <ele>31.5</ele>
        <time>2022-06-28T10:45:56Z</time>
      </trkpt>
      <trkpt lat="49.01404" lon="2.05717">
        <ele>31.4</ele>
        <time>2022-06-28T10:46:00Z</time>
      </trkpt>
      <trkpt lat="49.01408" lon="2.05723">
        <ele>31.4</ele>
        <time>2022-06-28T10:46:04Z</time>
      </trkpt>
      <trkpt lat="49.01411" lon="2.05729">
        <ele>31.9</ele>
        <time>2022-06-28T10:46:09Z</time>
      </trkpt>
      <trkpt lat="49.01415" lon="2.05734">
        <ele>31.6</ele>
        <time>2022-06-28T10:46:14Z</time>
      </trkpt>
      <trkpt lat="49.01418" lon="2.0574">
        <ele>31</ele>
        <time>2022-06-28T10:46:18Z</time>
      </trkpt>
      <trkpt lat="49.01414" lon="2.05739">
        <ele>28.8</ele>
        <time>2022-06-28T10:46:28Z</time>
      </trkpt>
      <trkpt lat="49.01408" lon="2.05739">
        <ele>27.6</ele>
        <time>2022-06-28T10:46:35Z</time>
      </trkpt>
      <trkpt lat="49.01405" lon="2.05747">
        <ele>26.9</ele>
        <time>2022-06-28T10:46:39Z</time>
      </trkpt>
      <trkpt lat="49.01407" lon="2.05753">
        <ele>27.1</ele>
        <time>2022-06-28T10:46:42Z</time>
      </trkpt>
      <trkpt lat="49.01406" lon="2.05762">
        <ele>26.9</ele>
        <time>2022-06-28T10:46:47Z</time>
      </trkpt>
      <trkpt lat="49.01401" lon="2.05766">
        <ele>25.7</ele>
        <time>2022-06-28T10:46:52Z</time>
      </trkpt>
      <trkpt lat="49.01397" lon="2.0577">
        <ele>25.6</ele>
        <time>2022-06-28T10:46:58Z</time>
      </trkpt>
      <trkpt lat="49.014" lon="2.05774">
        <ele>25.7</ele>
        <time>2022-06-28T10:47:06Z</time>
      </trkpt>
      <trkpt lat="49.01405" lon="2.05779">
        <ele>24.7</ele>
        <time>2022-06-28T10:47:11Z</time>
      </trkpt>
      <trkpt lat="49.01409" lon="2.05784">
        <ele>23.2</ele>
        <time>2022-06-28T10:47:16Z</time>
      </trkpt>
      <trkpt lat="49.01412" lon="2.0579">
        <ele>22.8</ele>
        <time>2022-06-28T10:47:21Z</time>
      </trkpt>
      <trkpt lat="49.01413" lon="2.05797">
        <ele>23</ele>
        <time>2022-06-28T10:47:25Z</time>
      </trkpt>
      <trkpt lat="49.01416" lon="2.05804">
        <ele>24.7</ele>
        <time>2022-06-28T10:47:31Z</time>
      </trkpt>
      <trkpt lat="49.01419" lon="2.0581">
        <ele>24.4</ele>
        <time>2022-06-28T10:47:36Z</time>
      </trkpt>
      <trkpt lat="49.01422" lon="2.05818">
        <ele>24.1</ele>
        <time>2022-06-28T10:47:41Z</time>
      </trkpt>
      <trkpt lat="49.01425" lon="2.05824">
        <ele>23.8</ele>
        <time>2022-06-28T10:47:46Z</time>
      </trkpt>
      <trkpt lat="49.01428" lon="2.0583">
        <ele>24.1</ele>
        <time>2022-06-28T10:47:50Z</time>
      </trkpt>
      <trkpt lat="49.01432" lon="2.05835">
        <ele>24.5</ele>
        <time>2022-06-28T10:47:55Z</time>
      </trkpt>
      <trkpt lat="49.01433" lon="2.05843">
        <ele>24.6</ele>
        <time>2022-06-28T10:47:59Z</time>
      </trkpt>
    </trkseg>
  </trk>
  <trk>
    <name><![CDATA[Jouy le Moutier - Bords de l'Oise - Cergy_2]]></name>
    <trkseg>
      <trkpt lat="49.01433" lon="2.05843">
        <ele>24.6</ele>
        <time>2022-06-28T10:47:59Z</time>
      </trkpt>
      <trkpt lat="49.01436" lon="2.05839">
        <ele>23.3</ele>
        <time>2022-06-28T10:48:06Z</time>
      </trkpt>
      <trkpt lat="49.0144" lon="2.05835">
        <ele>22.9</ele>
        <time>2022-06-28T10:48:11Z</time>
      </trkpt>
      <trkpt lat="49.01435" lon="2.05836">
        <ele>20.3</ele>
        <time>2022-06-28T10:48:26Z</time>
      </trkpt>
      <trkpt lat="49.01432" lon="2.05829">
        <ele>19.2</ele>
        <time>2022-06-28T10:52:36Z</time>
      </trkpt>
      <trkpt lat="49.01428" lon="2.05834">
        <ele>19.8</ele>
        <time>2022-06-28T10:53:16Z</time>
      </trkpt>
      <trkpt lat="49.01429" lon="2.05844">
        <ele>20.9</ele>
        <time>2022-06-28T10:53:20Z</time>
      </trkpt>
      <trkpt lat="49.01433" lon="2.0584">
        <ele>21.5</ele>
        <time>2022-06-28T10:54:20Z</time>
      </trkpt>
      <trkpt lat="49.01433" lon="2.05832">
        <ele>20.8</ele>
        <time>2022-06-28T10:54:23Z</time>
      </trkpt>
      <trkpt lat="49.01432" lon="2.05823">
        <ele>20.3</ele>
        <time>2022-06-28T10:54:24Z</time>
      </trkpt>
      <trkpt lat="49.01431" lon="2.05815">
        <ele>20.4</ele>
        <time>2022-06-28T10:54:25Z</time>
      </trkpt>
      <trkpt lat="49.01435" lon="2.05796">
        <ele>22.9</ele>
        <time>2022-06-28T10:54:26Z</time>
      </trkpt>
      <trkpt lat="49.01439" lon="2.05782">
        <ele>23.8</ele>
        <time>2022-06-28T10:54:27Z</time>
      </trkpt>
      <trkpt lat="49.01441" lon="2.05771">
        <ele>24.4</ele>
        <time>2022-06-28T10:54:28Z</time>
      </trkpt>
      <trkpt lat="49.01443" lon="2.05761">
        <ele>23.9</ele>
        <time>2022-06-28T10:54:29Z</time>
      </trkpt>
      <trkpt lat="49.01443" lon="2.05754">
        <ele>23.1</ele>
        <time>2022-06-28T10:54:30Z</time>
      </trkpt>
      <trkpt lat="49.01436" lon="2.05746">
        <ele>20.6</ele>
        <time>2022-06-28T10:54:32Z</time>
      </trkpt>
      <trkpt lat="49.0143" lon="2.05745">
        <ele>19.9</ele>
        <time>2022-06-28T10:54:33Z</time>
      </trkpt>
      <trkpt lat="49.01424" lon="2.05742">
        <ele>19.9</ele>
        <time>2022-06-28T10:54:34Z</time>
      </trkpt>
      <trkpt lat="49.01418" lon="2.05738">
        <ele>19.7</ele>
        <time>2022-06-28T10:54:35Z</time>
      </trkpt>
      <trkpt lat="49.01412" lon="2.05732">
        <ele>18.9</ele>
        <time>2022-06-28T10:54:36Z</time>
      </trkpt>
      <trkpt lat="49.01407" lon="2.05724">
        <ele>19.6</ele>
        <time>2022-06-28T10:54:37Z</time>
      </trkpt>
      <trkpt lat="49.01402" lon="2.05716">
        <ele>19.4</ele>
        <time>2022-06-28T10:54:38Z</time>
      </trkpt>
      <trkpt lat="49.01397" lon="2.05707">
        <ele>20.6</ele>
        <time>2022-06-28T10:54:39Z</time>
      </trkpt>
      <trkpt lat="49.01391" lon="2.05695">
        <ele>19.1</ele>
        <time>2022-06-28T10:54:40Z</time>
      </trkpt>
      <trkpt lat="49.01385" lon="2.05682">
        <ele>19.6</ele>
        <time>2022-06-28T10:54:41Z</time>
      </trkpt>
      <trkpt lat="49.01378" lon="2.05668">
        <ele>20.5</ele>
        <time>2022-06-28T10:54:42Z</time>
      </trkpt>
      <trkpt lat="49.01372" lon="2.05654">
        <ele>21.2</ele>
        <time>2022-06-28T10:54:43Z</time>
      </trkpt>
      <trkpt lat="49.01365" lon="2.0564">
        <ele>21.3</ele>
        <time>2022-06-28T10:54:44Z</time>
      </trkpt>
      <trkpt lat="49.01358" lon="2.05628">
        <ele>20.4</ele>
        <time>2022-06-28T10:54:45Z</time>
      </trkpt>
      <trkpt lat="49.01352" lon="2.05617">
        <ele>20.5</ele>
        <time>2022-06-28T10:54:46Z</time>
      </trkpt>
      <trkpt lat="49.01345" lon="2.05605">
        <ele>20.3</ele>
        <time>2022-06-28T10:54:47Z</time>
      </trkpt>
      <trkpt lat="49.01339" lon="2.05595">
        <ele>19.2</ele>
        <time>2022-06-28T10:54:48Z</time>
      </trkpt>
      <trkpt lat="49.01333" lon="2.05584">
        <ele>19.5</ele>
        <time>2022-06-28T10:54:49Z</time>
      </trkpt>
      <trkpt lat="49.01328" lon="2.05574">
        <ele>21.4</ele>
        <time>2022-06-28T10:54:50Z</time>
      </trkpt>
      <trkpt lat="49.01323" lon="2.05563">
        <ele>21.4</ele>
        <time>2022-06-28T10:54:51Z</time>
      </trkpt>
      <trkpt lat="49.01317" lon="2.05552">
        <ele>21.7</ele>
        <time>2022-06-28T10:54:52Z</time>
      </trkpt>
      <trkpt lat="49.01311" lon="2.05542">
        <ele>21.7</ele>
        <time>2022-06-28T10:54:53Z</time>
      </trkpt>
      <trkpt lat="49.01304" lon="2.05532">
        <ele>22</ele>
        <time>2022-06-28T10:54:54Z</time>
      </trkpt>
      <trkpt lat="49.01297" lon="2.05522">
        <ele>22.2</ele>
        <time>2022-06-28T10:54:55Z</time>
      </trkpt>
      <trkpt lat="49.01289" lon="2.05513">
        <ele>22.3</ele>
        <time>2022-06-28T10:54:56Z</time>
      </trkpt>
      <trkpt lat="49.01281" lon="2.05503">
        <ele>21.6</ele>
        <time>2022-06-28T10:54:57Z</time>
      </trkpt>
      <trkpt lat="49.01274" lon="2.05494">
        <ele>21.3</ele>
        <time>2022-06-28T10:54:58Z</time>
      </trkpt>
      <trkpt lat="49.01267" lon="2.05485">
        <ele>22.1</ele>
        <time>2022-06-28T10:54:59Z</time>
      </trkpt>
      <trkpt lat="49.01262" lon="2.05476">
        <ele>20.9</ele>
        <time>2022-06-28T10:55:00Z</time>
      </trkpt>
      <trkpt lat="49.01258" lon="2.05467">
        <ele>21.9</ele>
        <time>2022-06-28T10:55:01Z</time>
      </trkpt>
      <trkpt lat="49.01256" lon="2.05459">
        <ele>22.3</ele>
        <time>2022-06-28T10:55:02Z</time>
      </trkpt>
      <trkpt lat="49.01256" lon="2.0545">
        <ele>21.7</ele>
        <time>2022-06-28T10:55:03Z</time>
      </trkpt>
      <trkpt lat="49.01256" lon="2.05439">
        <ele>21.2</ele>
        <time>2022-06-28T10:55:04Z</time>
      </trkpt>
      <trkpt lat="49.01257" lon="2.05427">
        <ele>21.5</ele>
        <time>2022-06-28T10:55:05Z</time>
      </trkpt>
      <trkpt lat="49.01258" lon="2.05416">
        <ele>20.3</ele>
        <time>2022-06-28T10:55:06Z</time>
      </trkpt>
      <trkpt lat="49.01257" lon="2.05405">
        <ele>20.3</ele>
        <time>2022-06-28T10:55:07Z</time>
      </trkpt>
      <trkpt lat="49.01254" lon="2.05394">
        <ele>20.9</ele>
        <time>2022-06-28T10:55:08Z</time>
      </trkpt>
      <trkpt lat="49.0125" lon="2.05384">
        <ele>21</ele>
        <time>2022-06-28T10:55:09Z</time>
      </trkpt>
      <trkpt lat="49.01245" lon="2.05376">
        <ele>22.2</ele>
        <time>2022-06-28T10:55:10Z</time>
      </trkpt>
      <trkpt lat="49.01239" lon="2.05368">
        <ele>22.5</ele>
        <time>2022-06-28T10:55:11Z</time>
      </trkpt>
      <trkpt lat="49.01232" lon="2.05363">
        <ele>22.3</ele>
        <time>2022-06-28T10:55:12Z</time>
      </trkpt>
      <trkpt lat="49.01224" lon="2.0536">
        <ele>23.8</ele>
        <time>2022-06-28T10:55:13Z</time>
      </trkpt>
      <trkpt lat="49.01217" lon="2.05359">
        <ele>21.4</ele>
        <time>2022-06-28T10:55:14Z</time>
      </trkpt>
      <trkpt lat="49.01211" lon="2.05359">
        <ele>21.8</ele>
        <time>2022-06-28T10:55:15Z</time>
      </trkpt>
      <trkpt lat="49.01206" lon="2.05361">
        <ele>21.8</ele>
        <time>2022-06-28T10:55:16Z</time>
      </trkpt>
      <trkpt lat="49.01201" lon="2.05364">
        <ele>22.3</ele>
        <time>2022-06-28T10:55:17Z</time>
      </trkpt>
      <trkpt lat="49.01196" lon="2.0537">
        <ele>23.2</ele>
        <time>2022-06-28T10:55:19Z</time>
      </trkpt>
      <trkpt lat="49.01192" lon="2.05375">
        <ele>25.4</ele>
        <time>2022-06-28T10:55:21Z</time>
      </trkpt>
      <trkpt lat="49.0119" lon="2.05381">
        <ele>25.5</ele>
        <time>2022-06-28T10:55:23Z</time>
      </trkpt>
      <trkpt lat="49.01187" lon="2.05396">
        <ele>25.5</ele>
        <time>2022-06-28T10:55:25Z</time>
      </trkpt>
      <trkpt lat="49.01181" lon="2.05404">
        <ele>22.9</ele>
        <time>2022-06-28T10:55:27Z</time>
      </trkpt>
      <trkpt lat="49.01172" lon="2.05407">
        <ele>22.6</ele>
        <time>2022-06-28T10:55:29Z</time>
      </trkpt>
      <trkpt lat="49.01166" lon="2.05405">
        <ele>22.9</ele>
        <time>2022-06-28T10:55:30Z</time>
      </trkpt>
      <trkpt lat="49.01159" lon="2.05402">
        <ele>23.4</ele>
        <time>2022-06-28T10:55:31Z</time>
      </trkpt>
      <trkpt lat="49.01153" lon="2.05398">
        <ele>24.2</ele>
        <time>2022-06-28T10:55:32Z</time>
      </trkpt>
      <trkpt lat="49.01146" lon="2.05395">
        <ele>25.7</ele>
        <time>2022-06-28T10:55:33Z</time>
      </trkpt>
      <trkpt lat="49.0114" lon="2.05391">
        <ele>25.7</ele>
        <time>2022-06-28T10:55:34Z</time>
      </trkpt>
      <trkpt lat="49.01134" lon="2.05389">
        <ele>25.9</ele>
        <time>2022-06-28T10:55:35Z</time>
      </trkpt>
      <trkpt lat="49.01129" lon="2.05387">
        <ele>24.5</ele>
        <time>2022-06-28T10:55:36Z</time>
      </trkpt>
      <trkpt lat="49.01124" lon="2.05387">
        <ele>24.7</ele>
        <time>2022-06-28T10:55:37Z</time>
      </trkpt>
      <trkpt lat="49.01119" lon="2.05388">
        <ele>23.4</ele>
        <time>2022-06-28T10:55:38Z</time>
      </trkpt>
      <trkpt lat="49.01114" lon="2.05391">
        <ele>23.5</ele>
        <time>2022-06-28T10:55:39Z</time>
      </trkpt>
      <trkpt lat="49.01108" lon="2.05395">
        <ele>22.8</ele>
        <time>2022-06-28T10:55:40Z</time>
      </trkpt>
      <trkpt lat="49.01102" lon="2.05399">
        <ele>23.1</ele>
        <time>2022-06-28T10:55:41Z</time>
      </trkpt>
      <trkpt lat="49.01096" lon="2.05404">
        <ele>23.4</ele>
        <time>2022-06-28T10:55:42Z</time>
      </trkpt>
      <trkpt lat="49.01089" lon="2.0541">
        <ele>23.6</ele>
        <time>2022-06-28T10:55:43Z</time>
      </trkpt>
      <trkpt lat="49.01083" lon="2.05415">
        <ele>23.8</ele>
        <time>2022-06-28T10:55:44Z</time>
      </trkpt>
      <trkpt lat="49.01075" lon="2.05421">
        <ele>23.7</ele>
        <time>2022-06-28T10:55:45Z</time>
      </trkpt>
      <trkpt lat="49.01068" lon="2.05426">
        <ele>23.7</ele>
        <time>2022-06-28T10:55:46Z</time>
      </trkpt>
      <trkpt lat="49.01061" lon="2.05431">
        <ele>24</ele>
        <time>2022-06-28T10:55:47Z</time>
      </trkpt>
      <trkpt lat="49.01054" lon="2.05436">
        <ele>24.2</ele>
        <time>2022-06-28T10:55:48Z</time>
      </trkpt>
      <trkpt lat="49.01046" lon="2.0544">
        <ele>24.7</ele>
        <time>2022-06-28T10:55:49Z</time>
      </trkpt>
      <trkpt lat="49.01038" lon="2.05443">
        <ele>23.9</ele>
        <time>2022-06-28T10:55:50Z</time>
      </trkpt>
      <trkpt lat="49.01031" lon="2.05446">
        <ele>24.5</ele>
        <time>2022-06-28T10:55:51Z</time>
      </trkpt>
      <trkpt lat="49.01023" lon="2.05448">
        <ele>25</ele>
        <time>2022-06-28T10:55:52Z</time>
      </trkpt>
      <trkpt lat="49.01016" lon="2.0545">
        <ele>24.9</ele>
        <time>2022-06-28T10:55:53Z</time>
      </trkpt>
      <trkpt lat="49.01008" lon="2.05453">
        <ele>25.3</ele>
        <time>2022-06-28T10:55:54Z</time>
      </trkpt>
      <trkpt lat="49.01001" lon="2.05455">
        <ele>24.9</ele>
        <time>2022-06-28T10:55:55Z</time>
      </trkpt>
      <trkpt lat="49.00995" lon="2.05457">
        <ele>24.7</ele>
        <time>2022-06-28T10:55:56Z</time>
      </trkpt>
      <trkpt lat="49.00989" lon="2.0546">
        <ele>24.6</ele>
        <time>2022-06-28T10:55:57Z</time>
      </trkpt>
      <trkpt lat="49.00982" lon="2.05462">
        <ele>24</ele>
        <time>2022-06-28T10:55:58Z</time>
      </trkpt>
      <trkpt lat="49.00974" lon="2.05464">
        <ele>23.9</ele>
        <time>2022-06-28T10:56:00Z</time>
      </trkpt>
      <trkpt lat="49.00967" lon="2.05468">
        <ele>22.4</ele>
        <time>2022-06-28T10:56:02Z</time>
      </trkpt>
      <trkpt lat="49.00961" lon="2.0547">
        <ele>22</ele>
        <time>2022-06-28T10:56:04Z</time>
      </trkpt>
      <trkpt lat="49.00956" lon="2.05472">
        <ele>22.9</ele>
        <time>2022-06-28T10:56:05Z</time>
      </trkpt>
      <trkpt lat="49.00948" lon="2.05477">
        <ele>25.9</ele>
        <time>2022-06-28T10:56:07Z</time>
      </trkpt>
      <trkpt lat="49.00943" lon="2.0548">
        <ele>26</ele>
        <time>2022-06-28T10:56:08Z</time>
      </trkpt>
      <trkpt lat="49.00938" lon="2.05483">
        <ele>26</ele>
        <time>2022-06-28T10:56:09Z</time>
      </trkpt>
      <trkpt lat="49.00932" lon="2.05487">
        <ele>25.7</ele>
        <time>2022-06-28T10:56:10Z</time>
      </trkpt>
      <trkpt lat="49.00926" lon="2.05491">
        <ele>25.2</ele>
        <time>2022-06-28T10:56:11Z</time>
      </trkpt>
      <trkpt lat="49.00919" lon="2.05495">
        <ele>25.1</ele>
        <time>2022-06-28T10:56:12Z</time>
      </trkpt>
      <trkpt lat="49.00914" lon="2.055">
        <ele>25</ele>
        <time>2022-06-28T10:56:13Z</time>
      </trkpt>
      <trkpt lat="49.00908" lon="2.05504">
        <ele>25.5</ele>
        <time>2022-06-28T10:56:14Z</time>
      </trkpt>
      <trkpt lat="49.00904" lon="2.05507">
        <ele>26.3</ele>
        <time>2022-06-28T10:56:15Z</time>
      </trkpt>
      <trkpt lat="49.00896" lon="2.05515">
        <ele>26.3</ele>
        <time>2022-06-28T10:56:17Z</time>
      </trkpt>
      <trkpt lat="49.00892" lon="2.05519">
        <ele>26.8</ele>
        <time>2022-06-28T10:56:18Z</time>
      </trkpt>
      <trkpt lat="49.00886" lon="2.05525">
        <ele>26.4</ele>
        <time>2022-06-28T10:56:19Z</time>
      </trkpt>
      <trkpt lat="49.00879" lon="2.0553">
        <ele>27</ele>
        <time>2022-06-28T10:56:20Z</time>
      </trkpt>
      <trkpt lat="49.00873" lon="2.05536">
        <ele>23.8</ele>
        <time>2022-06-28T10:56:21Z</time>
      </trkpt>
      <trkpt lat="49.00866" lon="2.05543">
        <ele>23.6</ele>
        <time>2022-06-28T10:56:22Z</time>
      </trkpt>
      <trkpt lat="49.0086" lon="2.05548">
        <ele>24</ele>
        <time>2022-06-28T10:56:23Z</time>
      </trkpt>
      <trkpt lat="49.00854" lon="2.05553">
        <ele>23.2</ele>
        <time>2022-06-28T10:56:24Z</time>
      </trkpt>
      <trkpt lat="49.00848" lon="2.05559">
        <ele>22.6</ele>
        <time>2022-06-28T10:56:25Z</time>
      </trkpt>
      <trkpt lat="49.00841" lon="2.05565">
        <ele>23.1</ele>
        <time>2022-06-28T10:56:26Z</time>
      </trkpt>
      <trkpt lat="49.00835" lon="2.05571">
        <ele>24</ele>
        <time>2022-06-28T10:56:27Z</time>
      </trkpt>
      <trkpt lat="49.00829" lon="2.05576">
        <ele>25.7</ele>
        <time>2022-06-28T10:56:28Z</time>
      </trkpt>
      <trkpt lat="49.00824" lon="2.05581">
        <ele>25.1</ele>
        <time>2022-06-28T10:56:29Z</time>
      </trkpt>
      <trkpt lat="49.00817" lon="2.05587">
        <ele>25.3</ele>
        <time>2022-06-28T10:56:31Z</time>
      </trkpt>
      <trkpt lat="49.00811" lon="2.05593">
        <ele>27.1</ele>
        <time>2022-06-28T10:56:33Z</time>
      </trkpt>
      <trkpt lat="49.00804" lon="2.05599">
        <ele>26.9</ele>
        <time>2022-06-28T10:56:35Z</time>
      </trkpt>
      <trkpt lat="49.00798" lon="2.05604">
        <ele>26.4</ele>
        <time>2022-06-28T10:56:37Z</time>
      </trkpt>
      <trkpt lat="49.00793" lon="2.05606">
        <ele>27.1</ele>
        <time>2022-06-28T10:56:41Z</time>
      </trkpt>
      <trkpt lat="49.00786" lon="2.05613">
        <ele>27.3</ele>
        <time>2022-06-28T10:56:44Z</time>
      </trkpt>
      <trkpt lat="49.00779" lon="2.05616">
        <ele>27.5</ele>
        <time>2022-06-28T10:56:45Z</time>
      </trkpt>
      <trkpt lat="49.00772" lon="2.05619">
        <ele>27</ele>
        <time>2022-06-28T10:56:46Z</time>
      </trkpt>
      <trkpt lat="49.00764" lon="2.05623">
        <ele>27.5</ele>
        <time>2022-06-28T10:56:47Z</time>
      </trkpt>
      <trkpt lat="49.00756" lon="2.05626">
        <ele>27</ele>
        <time>2022-06-28T10:56:48Z</time>
      </trkpt>
      <trkpt lat="49.00747" lon="2.0563">
        <ele>26.5</ele>
        <time>2022-06-28T10:56:49Z</time>
      </trkpt>
      <trkpt lat="49.00738" lon="2.05634">
        <ele>27.6</ele>
        <time>2022-06-28T10:56:50Z</time>
      </trkpt>
      <trkpt lat="49.0073" lon="2.05638">
        <ele>27.8</ele>
        <time>2022-06-28T10:56:51Z</time>
      </trkpt>
      <trkpt lat="49.00723" lon="2.05642">
        <ele>27.8</ele>
        <time>2022-06-28T10:56:52Z</time>
      </trkpt>
      <trkpt lat="49.00717" lon="2.05645">
        <ele>28.7</ele>
        <time>2022-06-28T10:56:53Z</time>
      </trkpt>
      <trkpt lat="49.00711" lon="2.05648">
        <ele>29</ele>
        <time>2022-06-28T10:56:54Z</time>
      </trkpt>
      <trkpt lat="49.00706" lon="2.05651">
        <ele>29.1</ele>
        <time>2022-06-28T10:56:55Z</time>
      </trkpt>
      <trkpt lat="49.00702" lon="2.05654">
        <ele>28.5</ele>
        <time>2022-06-28T10:56:56Z</time>
      </trkpt>
      <trkpt lat="49.00697" lon="2.05657">
        <ele>29</ele>
        <time>2022-06-28T10:56:57Z</time>
      </trkpt>
      <trkpt lat="49.0069" lon="2.05663">
        <ele>28.5</ele>
        <time>2022-06-28T10:56:59Z</time>
      </trkpt>
      <trkpt lat="49.00685" lon="2.05667">
        <ele>28.1</ele>
        <time>2022-06-28T10:57:01Z</time>
      </trkpt>
      <trkpt lat="49.00679" lon="2.05672">
        <ele>27.6</ele>
        <time>2022-06-28T10:57:03Z</time>
      </trkpt>
      <trkpt lat="49.00674" lon="2.05676">
        <ele>27.7</ele>
        <time>2022-06-28T10:57:05Z</time>
      </trkpt>
      <trkpt lat="49.0067" lon="2.05683">
        <ele>23.9</ele>
        <time>2022-06-28T10:57:11Z</time>
      </trkpt>
      <trkpt lat="49.00663" lon="2.05687">
        <ele>25.9</ele>
        <time>2022-06-28T10:57:12Z</time>
      </trkpt>
      <trkpt lat="49.00658" lon="2.0569">
        <ele>24.6</ele>
        <time>2022-06-28T10:57:13Z</time>
      </trkpt>
      <trkpt lat="49.00653" lon="2.05693">
        <ele>24.9</ele>
        <time>2022-06-28T10:57:14Z</time>
      </trkpt>
      <trkpt lat="49.00647" lon="2.05696">
        <ele>25.6</ele>
        <time>2022-06-28T10:57:15Z</time>
      </trkpt>
      <trkpt lat="49.00641" lon="2.057">
        <ele>26.4</ele>
        <time>2022-06-28T10:57:16Z</time>
      </trkpt>
      <trkpt lat="49.00634" lon="2.05705">
        <ele>25.7</ele>
        <time>2022-06-28T10:57:17Z</time>
      </trkpt>
      <trkpt lat="49.00627" lon="2.05709">
        <ele>25.2</ele>
        <time>2022-06-28T10:57:18Z</time>
      </trkpt>
      <trkpt lat="49.00621" lon="2.05713">
        <ele>25.7</ele>
        <time>2022-06-28T10:57:19Z</time>
      </trkpt>
      <trkpt lat="49.00615" lon="2.05717">
        <ele>24.6</ele>
        <time>2022-06-28T10:57:20Z</time>
      </trkpt>
      <trkpt lat="49.00609" lon="2.05721">
        <ele>23.6</ele>
        <time>2022-06-28T10:57:21Z</time>
      </trkpt>
      <trkpt lat="49.00603" lon="2.05724">
        <ele>24.1</ele>
        <time>2022-06-28T10:57:22Z</time>
      </trkpt>
      <trkpt lat="49.00597" lon="2.05728">
        <ele>24.5</ele>
        <time>2022-06-28T10:57:23Z</time>
      </trkpt>
      <trkpt lat="49.00591" lon="2.05732">
        <ele>23.5</ele>
        <time>2022-06-28T10:57:24Z</time>
      </trkpt>
      <trkpt lat="49.00586" lon="2.05735">
        <ele>24.2</ele>
        <time>2022-06-28T10:57:25Z</time>
      </trkpt>
      <trkpt lat="49.00581" lon="2.05739">
        <ele>21.4</ele>
        <time>2022-06-28T10:57:27Z</time>
      </trkpt>
      <trkpt lat="49.00574" lon="2.05743">
        <ele>22.7</ele>
        <time>2022-06-28T10:57:32Z</time>
      </trkpt>
      <trkpt lat="49.00567" lon="2.05748">
        <ele>21.4</ele>
        <time>2022-06-28T10:57:34Z</time>
      </trkpt>
      <trkpt lat="49.00561" lon="2.05752">
        <ele>20.9</ele>
        <time>2022-06-28T10:57:35Z</time>
      </trkpt>
      <trkpt lat="49.00554" lon="2.05758">
        <ele>21.4</ele>
        <time>2022-06-28T10:57:36Z</time>
      </trkpt>
      <trkpt lat="49.00544" lon="2.05764">
        <ele>22.2</ele>
        <time>2022-06-28T10:57:37Z</time>
      </trkpt>
      <trkpt lat="49.00533" lon="2.05772">
        <ele>23.7</ele>
        <time>2022-06-28T10:57:38Z</time>
      </trkpt>
      <trkpt lat="49.00522" lon="2.0578">
        <ele>24.9</ele>
        <time>2022-06-28T10:57:39Z</time>
      </trkpt>
      <trkpt lat="49.00509" lon="2.05789">
        <ele>24.8</ele>
        <time>2022-06-28T10:57:40Z</time>
      </trkpt>
      <trkpt lat="49.00496" lon="2.05798">
        <ele>24.4</ele>
        <time>2022-06-28T10:57:41Z</time>
      </trkpt>
      <trkpt lat="49.00483" lon="2.05806">
        <ele>24.4</ele>
        <time>2022-06-28T10:57:42Z</time>
      </trkpt>
      <trkpt lat="49.0047" lon="2.05814">
        <ele>23.5</ele>
        <time>2022-06-28T10:57:43Z</time>
      </trkpt>
      <trkpt lat="49.00456" lon="2.05825">
        <ele>22.9</ele>
        <time>2022-06-28T10:57:44Z</time>
      </trkpt>
      <trkpt lat="49.00443" lon="2.05835">
        <ele>22</ele>
        <time>2022-06-28T10:57:45Z</time>
      </trkpt>
      <trkpt lat="49.00431" lon="2.05844">
        <ele>21.3</ele>
        <time>2022-06-28T10:57:46Z</time>
      </trkpt>
      <trkpt lat="49.00418" lon="2.05852">
        <ele>20.3</ele>
        <time>2022-06-28T10:57:47Z</time>
      </trkpt>
      <trkpt lat="49.00405" lon="2.05862">
        <ele>21.5</ele>
        <time>2022-06-28T10:57:48Z</time>
      </trkpt>
      <trkpt lat="49.00392" lon="2.05871">
        <ele>21.6</ele>
        <time>2022-06-28T10:57:49Z</time>
      </trkpt>
      <trkpt lat="49.00379" lon="2.05881">
        <ele>22.8</ele>
        <time>2022-06-28T10:57:50Z</time>
      </trkpt>
      <trkpt lat="49.00365" lon="2.0589">
        <ele>22.9</ele>
        <time>2022-06-28T10:57:51Z</time>
      </trkpt>
      <trkpt lat="49.00351" lon="2.05899">
        <ele>22.4</ele>
        <time>2022-06-28T10:57:52Z</time>
      </trkpt>
      <trkpt lat="49.00339" lon="2.05907">
        <ele>21.6</ele>
        <time>2022-06-28T10:57:53Z</time>
      </trkpt>
      <trkpt lat="49.00327" lon="2.05915">
        <ele>22.7</ele>
        <time>2022-06-28T10:57:54Z</time>
      </trkpt>
      <trkpt lat="49.00315" lon="2.05923">
        <ele>22.4</ele>
        <time>2022-06-28T10:57:55Z</time>
      </trkpt>
      <trkpt lat="49.00303" lon="2.0593">
        <ele>22.3</ele>
        <time>2022-06-28T10:57:56Z</time>
      </trkpt>
      <trkpt lat="49.00291" lon="2.05938">
        <ele>21.3</ele>
        <time>2022-06-28T10:57:57Z</time>
      </trkpt>
      <trkpt lat="49.00279" lon="2.05946">
        <ele>21.1</ele>
        <time>2022-06-28T10:57:58Z</time>
      </trkpt>
      <trkpt lat="49.00268" lon="2.05954">
        <ele>19.2</ele>
        <time>2022-06-28T10:57:59Z</time>
      </trkpt>
      <trkpt lat="49.00256" lon="2.05963">
        <ele>17.2</ele>
        <time>2022-06-28T10:58:00Z</time>
      </trkpt>
      <trkpt lat="49.00248" lon="2.0597">
        <ele>15.8</ele>
        <time>2022-06-28T10:58:01Z</time>
      </trkpt>
      <trkpt lat="49.00242" lon="2.05975">
        <ele>16.5</ele>
        <time>2022-06-28T10:58:02Z</time>
      </trkpt>
      <trkpt lat="49.00238" lon="2.05978">
        <ele>15.9</ele>
        <time>2022-06-28T10:58:03Z</time>
      </trkpt>
      <trkpt lat="49.00233" lon="2.05981">
        <ele>16.1</ele>
        <time>2022-06-28T10:58:04Z</time>
      </trkpt>
      <trkpt lat="49.00229" lon="2.05984">
        <ele>13.4</ele>
        <time>2022-06-28T10:58:05Z</time>
      </trkpt>
      <trkpt lat="49.00224" lon="2.05988">
        <ele>12.6</ele>
        <time>2022-06-28T10:58:06Z</time>
      </trkpt>
      <trkpt lat="49.00218" lon="2.05991">
        <ele>13</ele>
        <time>2022-06-28T10:58:07Z</time>
      </trkpt>
      <trkpt lat="49.00212" lon="2.05994">
        <ele>11.8</ele>
        <time>2022-06-28T10:58:08Z</time>
      </trkpt>
      <trkpt lat="49.00205" lon="2.05997">
        <ele>11.3</ele>
        <time>2022-06-28T10:58:09Z</time>
      </trkpt>
      <trkpt lat="49.00197" lon="2.06">
        <ele>11.9</ele>
        <time>2022-06-28T10:58:10Z</time>
      </trkpt>
      <trkpt lat="49.00189" lon="2.06003">
        <ele>11.6</ele>
        <time>2022-06-28T10:58:11Z</time>
      </trkpt>
      <trkpt lat="49.00178" lon="2.06006">
        <ele>11.9</ele>
        <time>2022-06-28T10:58:12Z</time>
      </trkpt>
      <trkpt lat="49.00167" lon="2.06009">
        <ele>12.1</ele>
        <time>2022-06-28T10:58:13Z</time>
      </trkpt>
      <trkpt lat="49.00155" lon="2.06013">
        <ele>10.6</ele>
        <time>2022-06-28T10:58:14Z</time>
      </trkpt>
      <trkpt lat="49.00144" lon="2.06016">
        <ele>9.2</ele>
        <time>2022-06-28T10:58:15Z</time>
      </trkpt>
      <trkpt lat="49.00133" lon="2.06019">
        <ele>9.5</ele>
        <time>2022-06-28T10:58:16Z</time>
      </trkpt>
      <trkpt lat="49.00121" lon="2.06022">
        <ele>10.6</ele>
        <time>2022-06-28T10:58:17Z</time>
      </trkpt>
      <trkpt lat="49.00111" lon="2.06024">
        <ele>12.4</ele>
        <time>2022-06-28T10:58:18Z</time>
      </trkpt>
      <trkpt lat="49.00102" lon="2.06026">
        <ele>12.3</ele>
        <time>2022-06-28T10:58:19Z</time>
      </trkpt>
      <trkpt lat="49.00091" lon="2.06028">
        <ele>12.6</ele>
        <time>2022-06-28T10:58:20Z</time>
      </trkpt>
      <trkpt lat="49.00082" lon="2.0603">
        <ele>12.5</ele>
        <time>2022-06-28T10:58:21Z</time>
      </trkpt>
      <trkpt lat="49.00073" lon="2.06031">
        <ele>13.1</ele>
        <time>2022-06-28T10:58:22Z</time>
      </trkpt>
      <trkpt lat="49.00066" lon="2.06032">
        <ele>13.1</ele>
        <time>2022-06-28T10:58:23Z</time>
      </trkpt>
      <trkpt lat="49.0006" lon="2.06035">
        <ele>13.7</ele>
        <time>2022-06-28T10:58:24Z</time>
      </trkpt>
      <trkpt lat="49.00056" lon="2.06038">
        <ele>13.6</ele>
        <time>2022-06-28T10:58:25Z</time>
      </trkpt>
      <trkpt lat="49.00049" lon="2.06045">
        <ele>12.1</ele>
        <time>2022-06-28T10:58:27Z</time>
      </trkpt>
      <trkpt lat="49.00043" lon="2.06053">
        <ele>13.6</ele>
        <time>2022-06-28T10:58:29Z</time>
      </trkpt>
      <trkpt lat="49.00039" lon="2.06066">
        <ele>15.4</ele>
        <time>2022-06-28T10:58:31Z</time>
      </trkpt>
      <trkpt lat="49.00037" lon="2.06074">
        <ele>15.8</ele>
        <time>2022-06-28T10:58:32Z</time>
      </trkpt>
      <trkpt lat="49.00033" lon="2.06084">
        <ele>15.1</ele>
        <time>2022-06-28T10:58:33Z</time>
      </trkpt>
      <trkpt lat="49.00029" lon="2.06094">
        <ele>13.9</ele>
        <time>2022-06-28T10:58:34Z</time>
      </trkpt>
      <trkpt lat="49.00023" lon="2.06104">
        <ele>14.9</ele>
        <time>2022-06-28T10:58:35Z</time>
      </trkpt>
      <trkpt lat="49.00019" lon="2.06114">
        <ele>13.5</ele>
        <time>2022-06-28T10:58:36Z</time>
      </trkpt>
      <trkpt lat="49.00013" lon="2.06124">
        <ele>13.7</ele>
        <time>2022-06-28T10:58:37Z</time>
      </trkpt>
      <trkpt lat="49.00008" lon="2.06134">
        <ele>13.5</ele>
        <time>2022-06-28T10:58:38Z</time>
      </trkpt>
      <trkpt lat="49.00002" lon="2.06146">
        <ele>14.7</ele>
        <time>2022-06-28T10:58:39Z</time>
      </trkpt>
      <trkpt lat="48.99995" lon="2.06157">
        <ele>14.6</ele>
        <time>2022-06-28T10:58:40Z</time>
      </trkpt>
      <trkpt lat="48.99988" lon="2.06169">
        <ele>15.6</ele>
        <time>2022-06-28T10:58:41Z</time>
      </trkpt>
      <trkpt lat="48.99981" lon="2.06181">
        <ele>15.3</ele>
        <time>2022-06-28T10:58:42Z</time>
      </trkpt>
      <trkpt lat="48.99974" lon="2.06193">
        <ele>16.2</ele>
        <time>2022-06-28T10:58:43Z</time>
      </trkpt>
      <trkpt lat="48.99967" lon="2.06206">
        <ele>17.6</ele>
        <time>2022-06-28T10:58:44Z</time>
      </trkpt>
      <trkpt lat="48.9996" lon="2.06217">
        <ele>18.4</ele>
        <time>2022-06-28T10:58:45Z</time>
      </trkpt>
      <trkpt lat="48.99953" lon="2.06227">
        <ele>16.2</ele>
        <time>2022-06-28T10:58:46Z</time>
      </trkpt>
      <trkpt lat="48.99948" lon="2.06237">
        <ele>17.3</ele>
        <time>2022-06-28T10:58:47Z</time>
      </trkpt>
      <trkpt lat="48.99943" lon="2.06245">
        <ele>17.6</ele>
        <time>2022-06-28T10:58:48Z</time>
      </trkpt>
      <trkpt lat="48.9994" lon="2.06251">
        <ele>18.7</ele>
        <time>2022-06-28T10:58:50Z</time>
      </trkpt>
      <trkpt lat="48.99936" lon="2.06258">
        <ele>18.7</ele>
        <time>2022-06-28T10:58:53Z</time>
      </trkpt>
      <trkpt lat="48.99933" lon="2.06264">
        <ele>18.9</ele>
        <time>2022-06-28T10:58:54Z</time>
      </trkpt>
      <trkpt lat="48.99929" lon="2.06272">
        <ele>19.8</ele>
        <time>2022-06-28T10:58:55Z</time>
      </trkpt>
      <trkpt lat="48.99925" lon="2.06281">
        <ele>17.7</ele>
        <time>2022-06-28T10:58:56Z</time>
      </trkpt>
      <trkpt lat="48.9992" lon="2.06291">
        <ele>15.4</ele>
        <time>2022-06-28T10:58:57Z</time>
      </trkpt>
      <trkpt lat="48.99915" lon="2.06303">
        <ele>14.6</ele>
        <time>2022-06-28T10:58:58Z</time>
      </trkpt>
      <trkpt lat="48.99909" lon="2.06315">
        <ele>14.8</ele>
        <time>2022-06-28T10:58:59Z</time>
      </trkpt>
      <trkpt lat="48.99903" lon="2.06327">
        <ele>13</ele>
        <time>2022-06-28T10:59:00Z</time>
      </trkpt>
      <trkpt lat="48.99896" lon="2.06338">
        <ele>13.4</ele>
        <time>2022-06-28T10:59:01Z</time>
      </trkpt>
      <trkpt lat="48.9989" lon="2.06349">
        <ele>14.6</ele>
        <time>2022-06-28T10:59:02Z</time>
      </trkpt>
      <trkpt lat="48.99885" lon="2.0636">
        <ele>15</ele>
        <time>2022-06-28T10:59:03Z</time>
      </trkpt>
      <trkpt lat="48.99879" lon="2.06369">
        <ele>14.6</ele>
        <time>2022-06-28T10:59:04Z</time>
      </trkpt>
      <trkpt lat="48.99875" lon="2.06378">
        <ele>14</ele>
        <time>2022-06-28T10:59:05Z</time>
      </trkpt>
      <trkpt lat="48.99871" lon="2.06385">
        <ele>14.9</ele>
        <time>2022-06-28T10:59:06Z</time>
      </trkpt>
      <trkpt lat="48.99867" lon="2.06391">
        <ele>15.2</ele>
        <time>2022-06-28T10:59:07Z</time>
      </trkpt>
      <trkpt lat="48.99863" lon="2.06397">
        <ele>15.9</ele>
        <time>2022-06-28T10:59:08Z</time>
      </trkpt>
      <trkpt lat="48.99859" lon="2.06404">
        <ele>16.6</ele>
        <time>2022-06-28T10:59:09Z</time>
      </trkpt>
      <trkpt lat="48.99855" lon="2.06412">
        <ele>17.4</ele>
        <time>2022-06-28T10:59:10Z</time>
      </trkpt>
      <trkpt lat="48.99849" lon="2.06421">
        <ele>17.5</ele>
        <time>2022-06-28T10:59:11Z</time>
      </trkpt>
      <trkpt lat="48.99844" lon="2.0643">
        <ele>17.3</ele>
        <time>2022-06-28T10:59:12Z</time>
      </trkpt>
      <trkpt lat="48.99839" lon="2.06439">
        <ele>17.3</ele>
        <time>2022-06-28T10:59:13Z</time>
      </trkpt>
      <trkpt lat="48.99833" lon="2.06449">
        <ele>17.4</ele>
        <time>2022-06-28T10:59:14Z</time>
      </trkpt>
      <trkpt lat="48.99826" lon="2.0646">
        <ele>17</ele>
        <time>2022-06-28T10:59:15Z</time>
      </trkpt>
      <trkpt lat="48.9982" lon="2.06471">
        <ele>16.8</ele>
        <time>2022-06-28T10:59:16Z</time>
      </trkpt>
      <trkpt lat="48.99813" lon="2.06483">
        <ele>16.1</ele>
        <time>2022-06-28T10:59:17Z</time>
      </trkpt>
      <trkpt lat="48.99807" lon="2.06495">
        <ele>15.8</ele>
        <time>2022-06-28T10:59:18Z</time>
      </trkpt>
      <trkpt lat="48.998" lon="2.06507">
        <ele>15</ele>
        <time>2022-06-28T10:59:19Z</time>
      </trkpt>
      <trkpt lat="48.99792" lon="2.0652">
        <ele>15.8</ele>
        <time>2022-06-28T10:59:20Z</time>
      </trkpt>
      <trkpt lat="48.99785" lon="2.06533">
        <ele>16.6</ele>
        <time>2022-06-28T10:59:21Z</time>
      </trkpt>
      <trkpt lat="48.99778" lon="2.06547">
        <ele>16.5</ele>
        <time>2022-06-28T10:59:22Z</time>
      </trkpt>
      <trkpt lat="48.99772" lon="2.06559">
        <ele>16</ele>
        <time>2022-06-28T10:59:23Z</time>
      </trkpt>
      <trkpt lat="48.99765" lon="2.06571">
        <ele>16.2</ele>
        <time>2022-06-28T10:59:24Z</time>
      </trkpt>
      <trkpt lat="48.9976" lon="2.0658">
        <ele>16.2</ele>
        <time>2022-06-28T10:59:25Z</time>
      </trkpt>
      <trkpt lat="48.99755" lon="2.0659">
        <ele>16.8</ele>
        <time>2022-06-28T10:59:26Z</time>
      </trkpt>
      <trkpt lat="48.9975" lon="2.066">
        <ele>16.9</ele>
        <time>2022-06-28T10:59:27Z</time>
      </trkpt>
      <trkpt lat="48.99744" lon="2.0661">
        <ele>18.6</ele>
        <time>2022-06-28T10:59:28Z</time>
      </trkpt>
      <trkpt lat="48.99737" lon="2.06619">
        <ele>18.7</ele>
        <time>2022-06-28T10:59:29Z</time>
      </trkpt>
      <trkpt lat="48.9973" lon="2.06627">
        <ele>18.6</ele>
        <time>2022-06-28T10:59:30Z</time>
      </trkpt>
      <trkpt lat="48.99724" lon="2.06632">
        <ele>21</ele>
        <time>2022-06-28T10:59:31Z</time>
      </trkpt>
      <trkpt lat="48.99718" lon="2.06636">
        <ele>20.4</ele>
        <time>2022-06-28T10:59:32Z</time>
      </trkpt>
      <trkpt lat="48.99713" lon="2.06639">
        <ele>20.1</ele>
        <time>2022-06-28T10:59:33Z</time>
      </trkpt>
      <trkpt lat="48.99708" lon="2.06642">
        <ele>19.6</ele>
        <time>2022-06-28T10:59:34Z</time>
      </trkpt>
      <trkpt lat="48.99704" lon="2.06646">
        <ele>21.1</ele>
        <time>2022-06-28T10:59:35Z</time>
      </trkpt>
      <trkpt lat="48.99698" lon="2.06655">
        <ele>23.4</ele>
        <time>2022-06-28T10:59:37Z</time>
      </trkpt>
      <trkpt lat="48.99691" lon="2.06661">
        <ele>23.1</ele>
        <time>2022-06-28T10:59:39Z</time>
      </trkpt>
      <trkpt lat="48.99686" lon="2.06662">
        <ele>22.8</ele>
        <time>2022-06-28T10:59:40Z</time>
      </trkpt>
      <trkpt lat="48.99681" lon="2.0666">
        <ele>23.1</ele>
        <time>2022-06-28T10:59:41Z</time>
      </trkpt>
      <trkpt lat="48.99676" lon="2.06658">
        <ele>23.1</ele>
        <time>2022-06-28T10:59:42Z</time>
      </trkpt>
      <trkpt lat="48.99671" lon="2.06654">
        <ele>23.2</ele>
        <time>2022-06-28T10:59:43Z</time>
      </trkpt>
      <trkpt lat="48.99666" lon="2.0665">
        <ele>23.2</ele>
        <time>2022-06-28T10:59:44Z</time>
      </trkpt>
      <trkpt lat="48.9966" lon="2.06646">
        <ele>23.3</ele>
        <time>2022-06-28T10:59:45Z</time>
      </trkpt>
      <trkpt lat="48.99654" lon="2.06641">
        <ele>23</ele>
        <time>2022-06-28T10:59:46Z</time>
      </trkpt>
      <trkpt lat="48.99648" lon="2.06634">
        <ele>22.6</ele>
        <time>2022-06-28T10:59:47Z</time>
      </trkpt>
      <trkpt lat="48.99641" lon="2.06627">
        <ele>23.6</ele>
        <time>2022-06-28T10:59:48Z</time>
      </trkpt>
      <trkpt lat="48.99633" lon="2.06621">
        <ele>24.2</ele>
        <time>2022-06-28T10:59:49Z</time>
      </trkpt>
      <trkpt lat="48.99626" lon="2.06614">
        <ele>24.4</ele>
        <time>2022-06-28T10:59:50Z</time>
      </trkpt>
      <trkpt lat="48.99618" lon="2.06607">
        <ele>24.4</ele>
        <time>2022-06-28T10:59:51Z</time>
      </trkpt>
      <trkpt lat="48.9961" lon="2.06601">
        <ele>25.4</ele>
        <time>2022-06-28T10:59:52Z</time>
      </trkpt>
      <trkpt lat="48.99603" lon="2.06594">
        <ele>25.4</ele>
        <time>2022-06-28T10:59:53Z</time>
      </trkpt>
      <trkpt lat="48.99595" lon="2.06588">
        <ele>26.2</ele>
        <time>2022-06-28T10:59:54Z</time>
      </trkpt>
      <trkpt lat="48.99588" lon="2.06584">
        <ele>26.4</ele>
        <time>2022-06-28T10:59:55Z</time>
      </trkpt>
      <trkpt lat="48.9958" lon="2.06581">
        <ele>26.6</ele>
        <time>2022-06-28T10:59:56Z</time>
      </trkpt>
      <trkpt lat="48.99573" lon="2.06578">
        <ele>26.2</ele>
        <time>2022-06-28T10:59:57Z</time>
      </trkpt>
      <trkpt lat="48.99565" lon="2.06577">
        <ele>25.6</ele>
        <time>2022-06-28T10:59:58Z</time>
      </trkpt>
      <trkpt lat="48.99558" lon="2.06577">
        <ele>24.8</ele>
        <time>2022-06-28T10:59:59Z</time>
      </trkpt>
      <trkpt lat="48.99549" lon="2.06579">
        <ele>23.8</ele>
        <time>2022-06-28T11:00:00Z</time>
      </trkpt>
      <trkpt lat="48.9954" lon="2.06581">
        <ele>23.9</ele>
        <time>2022-06-28T11:00:01Z</time>
      </trkpt>
      <trkpt lat="48.99533" lon="2.06585">
        <ele>24.2</ele>
        <time>2022-06-28T11:00:02Z</time>
      </trkpt>
      <trkpt lat="48.99526" lon="2.06588">
        <ele>21.9</ele>
        <time>2022-06-28T11:00:03Z</time>
      </trkpt>
      <trkpt lat="48.99519" lon="2.06591">
        <ele>22.4</ele>
        <time>2022-06-28T11:00:04Z</time>
      </trkpt>
      <trkpt lat="48.99514" lon="2.06594">
        <ele>21.4</ele>
        <time>2022-06-28T11:00:06Z</time>
      </trkpt>
      <trkpt lat="48.99507" lon="2.06594">
        <ele>20.4</ele>
        <time>2022-06-28T11:00:09Z</time>
      </trkpt>
      <trkpt lat="48.99499" lon="2.06595">
        <ele>20.5</ele>
        <time>2022-06-28T11:00:11Z</time>
      </trkpt>
      <trkpt lat="48.99494" lon="2.06596">
        <ele>17.8</ele>
        <time>2022-06-28T11:00:12Z</time>
      </trkpt>
      <trkpt lat="48.99487" lon="2.066">
        <ele>19</ele>
        <time>2022-06-28T11:00:14Z</time>
      </trkpt>
      <trkpt lat="48.99482" lon="2.06603">
        <ele>18.7</ele>
        <time>2022-06-28T11:00:15Z</time>
      </trkpt>
      <trkpt lat="48.99476" lon="2.06607">
        <ele>19.8</ele>
        <time>2022-06-28T11:00:16Z</time>
      </trkpt>
      <trkpt lat="48.99469" lon="2.06613">
        <ele>19.6</ele>
        <time>2022-06-28T11:00:17Z</time>
      </trkpt>
      <trkpt lat="48.99462" lon="2.06619">
        <ele>17.2</ele>
        <time>2022-06-28T11:00:18Z</time>
      </trkpt>
      <trkpt lat="48.99454" lon="2.06626">
        <ele>15.8</ele>
        <time>2022-06-28T11:00:19Z</time>
      </trkpt>
      <trkpt lat="48.99446" lon="2.06631">
        <ele>15.9</ele>
        <time>2022-06-28T11:00:20Z</time>
      </trkpt>
      <trkpt lat="48.99437" lon="2.06634">
        <ele>15.6</ele>
        <time>2022-06-28T11:00:21Z</time>
      </trkpt>
      <trkpt lat="48.99429" lon="2.06637">
        <ele>13.2</ele>
        <time>2022-06-28T11:00:22Z</time>
      </trkpt>
      <trkpt lat="48.99421" lon="2.0664">
        <ele>13.7</ele>
        <time>2022-06-28T11:00:23Z</time>
      </trkpt>
      <trkpt lat="48.99413" lon="2.06642">
        <ele>12.4</ele>
        <time>2022-06-28T11:00:24Z</time>
      </trkpt>
      <trkpt lat="48.99405" lon="2.06644">
        <ele>12.6</ele>
        <time>2022-06-28T11:00:25Z</time>
      </trkpt>
      <trkpt lat="48.99397" lon="2.06647">
        <ele>12.5</ele>
        <time>2022-06-28T11:00:26Z</time>
      </trkpt>
      <trkpt lat="48.99387" lon="2.06649">
        <ele>11.7</ele>
        <time>2022-06-28T11:00:27Z</time>
      </trkpt>
      <trkpt lat="48.9938" lon="2.0665">
        <ele>6.4</ele>
        <time>2022-06-28T11:00:28Z</time>
      </trkpt>
      <trkpt lat="48.99371" lon="2.06652">
        <ele>6.8</ele>
        <time>2022-06-28T11:00:29Z</time>
      </trkpt>
      <trkpt lat="48.99362" lon="2.06653">
        <ele>6.7</ele>
        <time>2022-06-28T11:00:30Z</time>
      </trkpt>
      <trkpt lat="48.99353" lon="2.06654">
        <ele>6.9</ele>
        <time>2022-06-28T11:00:31Z</time>
      </trkpt>
      <trkpt lat="48.99343" lon="2.06657">
        <ele>7.6</ele>
        <time>2022-06-28T11:00:32Z</time>
      </trkpt>
      <trkpt lat="48.99332" lon="2.06659">
        <ele>9.1</ele>
        <time>2022-06-28T11:00:33Z</time>
      </trkpt>
      <trkpt lat="48.99323" lon="2.0666">
        <ele>6.2</ele>
        <time>2022-06-28T11:00:34Z</time>
      </trkpt>
      <trkpt lat="48.99315" lon="2.06661">
        <ele>6.9</ele>
        <time>2022-06-28T11:00:35Z</time>
      </trkpt>
      <trkpt lat="48.99307" lon="2.06662">
        <ele>8</ele>
        <time>2022-06-28T11:00:36Z</time>
      </trkpt>
      <trkpt lat="48.99299" lon="2.06663">
        <ele>7.6</ele>
        <time>2022-06-28T11:00:37Z</time>
      </trkpt>
      <trkpt lat="48.9929" lon="2.06663">
        <ele>7.7</ele>
        <time>2022-06-28T11:00:38Z</time>
      </trkpt>
      <trkpt lat="48.99281" lon="2.06664">
        <ele>7.3</ele>
        <time>2022-06-28T11:00:39Z</time>
      </trkpt>
      <trkpt lat="48.99272" lon="2.06664">
        <ele>7.6</ele>
        <time>2022-06-28T11:00:40Z</time>
      </trkpt>
      <trkpt lat="48.99262" lon="2.06664">
        <ele>7.3</ele>
        <time>2022-06-28T11:00:41Z</time>
      </trkpt>
      <trkpt lat="48.99253" lon="2.06665">
        <ele>8</ele>
        <time>2022-06-28T11:00:42Z</time>
      </trkpt>
      <trkpt lat="48.99244" lon="2.06665">
        <ele>8.4</ele>
        <time>2022-06-28T11:00:43Z</time>
      </trkpt>
      <trkpt lat="48.99236" lon="2.06666">
        <ele>9.1</ele>
        <time>2022-06-28T11:00:44Z</time>
      </trkpt>
      <trkpt lat="48.99228" lon="2.06667">
        <ele>8.1</ele>
        <time>2022-06-28T11:00:45Z</time>
      </trkpt>
      <trkpt lat="48.99221" lon="2.06667">
        <ele>8.5</ele>
        <time>2022-06-28T11:00:46Z</time>
      </trkpt>
      <trkpt lat="48.99215" lon="2.06666">
        <ele>8.8</ele>
        <time>2022-06-28T11:00:47Z</time>
      </trkpt>
      <trkpt lat="48.99208" lon="2.06663">
        <ele>7.8</ele>
        <time>2022-06-28T11:00:48Z</time>
      </trkpt>
      <trkpt lat="48.99202" lon="2.06659">
        <ele>8</ele>
        <time>2022-06-28T11:00:49Z</time>
      </trkpt>
      <trkpt lat="48.99199" lon="2.06652">
        <ele>6.5</ele>
        <time>2022-06-28T11:00:51Z</time>
      </trkpt>
      <trkpt lat="48.99196" lon="2.06642">
        <ele>7.2</ele>
        <time>2022-06-28T11:00:53Z</time>
      </trkpt>
      <trkpt lat="48.99192" lon="2.06633">
        <ele>8.8</ele>
        <time>2022-06-28T11:00:54Z</time>
      </trkpt>
      <trkpt lat="48.99187" lon="2.06628">
        <ele>8.7</ele>
        <time>2022-06-28T11:00:55Z</time>
      </trkpt>
      <trkpt lat="48.99182" lon="2.06626">
        <ele>9.2</ele>
        <time>2022-06-28T11:00:56Z</time>
      </trkpt>
      <trkpt lat="48.99177" lon="2.06626">
        <ele>9.4</ele>
        <time>2022-06-28T11:00:57Z</time>
      </trkpt>
      <trkpt lat="48.99172" lon="2.06629">
        <ele>11.4</ele>
        <time>2022-06-28T11:00:58Z</time>
      </trkpt>
      <trkpt lat="48.99167" lon="2.06636">
        <ele>11.8</ele>
        <time>2022-06-28T11:00:59Z</time>
      </trkpt>
      <trkpt lat="48.9916" lon="2.06644">
        <ele>13.2</ele>
        <time>2022-06-28T11:01:00Z</time>
      </trkpt>
      <trkpt lat="48.99152" lon="2.06652">
        <ele>13.3</ele>
        <time>2022-06-28T11:01:01Z</time>
      </trkpt>
      <trkpt lat="48.99144" lon="2.06657">
        <ele>13.4</ele>
        <time>2022-06-28T11:01:02Z</time>
      </trkpt>
      <trkpt lat="48.99136" lon="2.0666">
        <ele>13</ele>
        <time>2022-06-28T11:01:03Z</time>
      </trkpt>
      <trkpt lat="48.99128" lon="2.06662">
        <ele>10.5</ele>
        <time>2022-06-28T11:01:04Z</time>
      </trkpt>
      <trkpt lat="48.99117" lon="2.06663">
        <ele>11.1</ele>
        <time>2022-06-28T11:01:05Z</time>
      </trkpt>
      <trkpt lat="48.99107" lon="2.06665">
        <ele>8.3</ele>
        <time>2022-06-28T11:01:06Z</time>
      </trkpt>
      <trkpt lat="48.99096" lon="2.06667">
        <ele>8.9</ele>
        <time>2022-06-28T11:01:07Z</time>
      </trkpt>
      <trkpt lat="48.99085" lon="2.06667">
        <ele>8.3</ele>
        <time>2022-06-28T11:01:08Z</time>
      </trkpt>
      <trkpt lat="48.99074" lon="2.06666">
        <ele>7.2</ele>
        <time>2022-06-28T11:01:09Z</time>
      </trkpt>
      <trkpt lat="48.99067" lon="2.06666">
        <ele>9.5</ele>
        <time>2022-06-28T11:01:10Z</time>
      </trkpt>
      <trkpt lat="48.99061" lon="2.06666">
        <ele>9</ele>
        <time>2022-06-28T11:01:11Z</time>
      </trkpt>
      <trkpt lat="48.99055" lon="2.06665">
        <ele>9.8</ele>
        <time>2022-06-28T11:01:12Z</time>
      </trkpt>
      <trkpt lat="48.9905" lon="2.06665">
        <ele>9.9</ele>
        <time>2022-06-28T11:01:13Z</time>
      </trkpt>
      <trkpt lat="48.99046" lon="2.06662">
        <ele>10.5</ele>
        <time>2022-06-28T11:01:21Z</time>
      </trkpt>
      <trkpt lat="48.99041" lon="2.06658">
        <ele>11.2</ele>
        <time>2022-06-28T11:01:22Z</time>
      </trkpt>
      <trkpt lat="48.99036" lon="2.06654">
        <ele>11.9</ele>
        <time>2022-06-28T11:01:23Z</time>
      </trkpt>
      <trkpt lat="48.99028" lon="2.06647">
        <ele>13</ele>
        <time>2022-06-28T11:01:24Z</time>
      </trkpt>
      <trkpt lat="48.99021" lon="2.06639">
        <ele>13.7</ele>
        <time>2022-06-28T11:01:25Z</time>
      </trkpt>
      <trkpt lat="48.99013" lon="2.06632">
        <ele>14.4</ele>
        <time>2022-06-28T11:01:26Z</time>
      </trkpt>
      <trkpt lat="48.99005" lon="2.06626">
        <ele>14.6</ele>
        <time>2022-06-28T11:01:27Z</time>
      </trkpt>
      <trkpt lat="48.98996" lon="2.0662">
        <ele>14.3</ele>
        <time>2022-06-28T11:01:28Z</time>
      </trkpt>
      <trkpt lat="48.98987" lon="2.06613">
        <ele>15.4</ele>
        <time>2022-06-28T11:01:29Z</time>
      </trkpt>
      <trkpt lat="48.98978" lon="2.06605">
        <ele>17.1</ele>
        <time>2022-06-28T11:01:30Z</time>
      </trkpt>
      <trkpt lat="48.98969" lon="2.06598">
        <ele>16.9</ele>
        <time>2022-06-28T11:01:31Z</time>
      </trkpt>
      <trkpt lat="48.98961" lon="2.06591">
        <ele>17.1</ele>
        <time>2022-06-28T11:01:32Z</time>
      </trkpt>
      <trkpt lat="48.98951" lon="2.06584">
        <ele>17.3</ele>
        <time>2022-06-28T11:01:33Z</time>
      </trkpt>
      <trkpt lat="48.9894" lon="2.06576">
        <ele>17.7</ele>
        <time>2022-06-28T11:01:34Z</time>
      </trkpt>
      <trkpt lat="48.98927" lon="2.06567">
        <ele>19.3</ele>
        <time>2022-06-28T11:01:35Z</time>
      </trkpt>
      <trkpt lat="48.98915" lon="2.06557">
        <ele>17.4</ele>
        <time>2022-06-28T11:01:36Z</time>
      </trkpt>
      <trkpt lat="48.98902" lon="2.06548">
        <ele>18.1</ele>
        <time>2022-06-28T11:01:37Z</time>
      </trkpt>
      <trkpt lat="48.9889" lon="2.06539">
        <ele>18.2</ele>
        <time>2022-06-28T11:01:38Z</time>
      </trkpt>
      <trkpt lat="48.98878" lon="2.0653">
        <ele>18.9</ele>
        <time>2022-06-28T11:01:39Z</time>
      </trkpt>
      <trkpt lat="48.98866" lon="2.06522">
        <ele>18.4</ele>
        <time>2022-06-28T11:01:40Z</time>
      </trkpt>
      <trkpt lat="48.98855" lon="2.06514">
        <ele>18.4</ele>
        <time>2022-06-28T11:01:41Z</time>
      </trkpt>
      <trkpt lat="48.98844" lon="2.06506">
        <ele>18.9</ele>
        <time>2022-06-28T11:01:42Z</time>
      </trkpt>
      <trkpt lat="48.98833" lon="2.06498">
        <ele>18.6</ele>
        <time>2022-06-28T11:01:43Z</time>
      </trkpt>
      <trkpt lat="48.98822" lon="2.06491">
        <ele>18.5</ele>
        <time>2022-06-28T11:01:44Z</time>
      </trkpt>
      <trkpt lat="48.98811" lon="2.06484">
        <ele>20.1</ele>
        <time>2022-06-28T11:01:45Z</time>
      </trkpt>
      <trkpt lat="48.98801" lon="2.06477">
        <ele>20</ele>
        <time>2022-06-28T11:01:46Z</time>
      </trkpt>
      <trkpt lat="48.98791" lon="2.0647">
        <ele>20.6</ele>
        <time>2022-06-28T11:01:47Z</time>
      </trkpt>
      <trkpt lat="48.98781" lon="2.06463">
        <ele>19.8</ele>
        <time>2022-06-28T11:01:48Z</time>
      </trkpt>
      <trkpt lat="48.98771" lon="2.06457">
        <ele>19.6</ele>
        <time>2022-06-28T11:01:49Z</time>
      </trkpt>
      <trkpt lat="48.98763" lon="2.0645">
        <ele>19.9</ele>
        <time>2022-06-28T11:01:50Z</time>
      </trkpt>
      <trkpt lat="48.98757" lon="2.06445">
        <ele>19.8</ele>
        <time>2022-06-28T11:01:51Z</time>
      </trkpt>
      <trkpt lat="48.98753" lon="2.06441">
        <ele>22.1</ele>
        <time>2022-06-28T11:01:53Z</time>
      </trkpt>
      <trkpt lat="48.98759" lon="2.06443">
        <ele>24</ele>
        <time>2022-06-28T11:01:58Z</time>
      </trkpt>
      <trkpt lat="48.98752" lon="2.06437">
        <ele>22.6</ele>
        <time>2022-06-28T11:02:16Z</time>
      </trkpt>
      <trkpt lat="48.98742" lon="2.06429">
        <ele>24.3</ele>
        <time>2022-06-28T11:02:17Z</time>
      </trkpt>
      <trkpt lat="48.98729" lon="2.0642">
        <ele>23.7</ele>
        <time>2022-06-28T11:02:18Z</time>
      </trkpt>
      <trkpt lat="48.98717" lon="2.06413">
        <ele>24.7</ele>
        <time>2022-06-28T11:02:19Z</time>
      </trkpt>
      <trkpt lat="48.98705" lon="2.06407">
        <ele>23.2</ele>
        <time>2022-06-28T11:02:20Z</time>
      </trkpt>
      <trkpt lat="48.98694" lon="2.06401">
        <ele>23.1</ele>
        <time>2022-06-28T11:02:21Z</time>
      </trkpt>
      <trkpt lat="48.98683" lon="2.06397">
        <ele>19.9</ele>
        <time>2022-06-28T11:02:22Z</time>
      </trkpt>
      <trkpt lat="48.98672" lon="2.06392">
        <ele>20.2</ele>
        <time>2022-06-28T11:02:23Z</time>
      </trkpt>
      <trkpt lat="48.98662" lon="2.06386">
        <ele>22.1</ele>
        <time>2022-06-28T11:02:24Z</time>
      </trkpt>
      <trkpt lat="48.98654" lon="2.0638">
        <ele>22.5</ele>
        <time>2022-06-28T11:02:25Z</time>
      </trkpt>
      <trkpt lat="48.98645" lon="2.06375">
        <ele>19.4</ele>
        <time>2022-06-28T11:02:26Z</time>
      </trkpt>
      <trkpt lat="48.98636" lon="2.06371">
        <ele>17.6</ele>
        <time>2022-06-28T11:02:27Z</time>
      </trkpt>
      <trkpt lat="48.98628" lon="2.06366">
        <ele>18.2</ele>
        <time>2022-06-28T11:02:28Z</time>
      </trkpt>
      <trkpt lat="48.98623" lon="2.06362">
        <ele>19.1</ele>
        <time>2022-06-28T11:02:29Z</time>
      </trkpt>
      <trkpt lat="48.98617" lon="2.06359">
        <ele>19.8</ele>
        <time>2022-06-28T11:02:30Z</time>
      </trkpt>
      <trkpt lat="48.98612" lon="2.06356">
        <ele>19.7</ele>
        <time>2022-06-28T11:02:31Z</time>
      </trkpt>
      <trkpt lat="48.98606" lon="2.06352">
        <ele>20.5</ele>
        <time>2022-06-28T11:02:32Z</time>
      </trkpt>
      <trkpt lat="48.98599" lon="2.06347">
        <ele>19.9</ele>
        <time>2022-06-28T11:02:33Z</time>
      </trkpt>
      <trkpt lat="48.98592" lon="2.06342">
        <ele>19.9</ele>
        <time>2022-06-28T11:02:34Z</time>
      </trkpt>
      <trkpt lat="48.98584" lon="2.06338">
        <ele>20.6</ele>
        <time>2022-06-28T11:02:35Z</time>
      </trkpt>
      <trkpt lat="48.98575" lon="2.06332">
        <ele>21.6</ele>
        <time>2022-06-28T11:02:36Z</time>
      </trkpt>
      <trkpt lat="48.98565" lon="2.06327">
        <ele>18</ele>
        <time>2022-06-28T11:02:37Z</time>
      </trkpt>
      <trkpt lat="48.98553" lon="2.06321">
        <ele>18.6</ele>
        <time>2022-06-28T11:02:38Z</time>
      </trkpt>
      <trkpt lat="48.98541" lon="2.06314">
        <ele>17.2</ele>
        <time>2022-06-28T11:02:39Z</time>
      </trkpt>
      <trkpt lat="48.9853" lon="2.06306">
        <ele>17.1</ele>
        <time>2022-06-28T11:02:40Z</time>
      </trkpt>
      <trkpt lat="48.98518" lon="2.06299">
        <ele>16.4</ele>
        <time>2022-06-28T11:02:41Z</time>
      </trkpt>
      <trkpt lat="48.98508" lon="2.06291">
        <ele>16.2</ele>
        <time>2022-06-28T11:02:42Z</time>
      </trkpt>
      <trkpt lat="48.98499" lon="2.06286">
        <ele>14.8</ele>
        <time>2022-06-28T11:02:43Z</time>
      </trkpt>
      <trkpt lat="48.9849" lon="2.06281">
        <ele>15.8</ele>
        <time>2022-06-28T11:02:44Z</time>
      </trkpt>
      <trkpt lat="48.98481" lon="2.06278">
        <ele>16.3</ele>
        <time>2022-06-28T11:02:45Z</time>
      </trkpt>
      <trkpt lat="48.98472" lon="2.06276">
        <ele>16.3</ele>
        <time>2022-06-28T11:02:46Z</time>
      </trkpt>
      <trkpt lat="48.98463" lon="2.06274">
        <ele>17.1</ele>
        <time>2022-06-28T11:02:47Z</time>
      </trkpt>
      <trkpt lat="48.98452" lon="2.06271">
        <ele>19.1</ele>
        <time>2022-06-28T11:02:48Z</time>
      </trkpt>
      <trkpt lat="48.98441" lon="2.06269">
        <ele>16.4</ele>
        <time>2022-06-28T11:02:49Z</time>
      </trkpt>
      <trkpt lat="48.98429" lon="2.06267">
        <ele>17.2</ele>
        <time>2022-06-28T11:02:50Z</time>
      </trkpt>
      <trkpt lat="48.98417" lon="2.06265">
        <ele>17.5</ele>
        <time>2022-06-28T11:02:51Z</time>
      </trkpt>
      <trkpt lat="48.98404" lon="2.06263">
        <ele>16.6</ele>
        <time>2022-06-28T11:02:52Z</time>
      </trkpt>
      <trkpt lat="48.98392" lon="2.06261">
        <ele>15.4</ele>
        <time>2022-06-28T11:02:53Z</time>
      </trkpt>
      <trkpt lat="48.98381" lon="2.06258">
        <ele>14.8</ele>
        <time>2022-06-28T11:02:54Z</time>
      </trkpt>
      <trkpt lat="48.9837" lon="2.06255">
        <ele>15.2</ele>
        <time>2022-06-28T11:02:55Z</time>
      </trkpt>
      <trkpt lat="48.9836" lon="2.06251">
        <ele>16.5</ele>
        <time>2022-06-28T11:02:56Z</time>
      </trkpt>
      <trkpt lat="48.9835" lon="2.06247">
        <ele>16.7</ele>
        <time>2022-06-28T11:02:57Z</time>
      </trkpt>
      <trkpt lat="48.9834" lon="2.06242">
        <ele>16.7</ele>
        <time>2022-06-28T11:02:58Z</time>
      </trkpt>
      <trkpt lat="48.9833" lon="2.06237">
        <ele>16.6</ele>
        <time>2022-06-28T11:02:59Z</time>
      </trkpt>
      <trkpt lat="48.9832" lon="2.0623">
        <ele>16.8</ele>
        <time>2022-06-28T11:03:00Z</time>
      </trkpt>
      <trkpt lat="48.9831" lon="2.06224">
        <ele>16.2</ele>
        <time>2022-06-28T11:03:01Z</time>
      </trkpt>
      <trkpt lat="48.98305" lon="2.06221">
        <ele>16.7</ele>
        <time>2022-06-28T11:03:02Z</time>
      </trkpt>
      <trkpt lat="48.98299" lon="2.06221">
        <ele>17.3</ele>
        <time>2022-06-28T11:03:04Z</time>
      </trkpt>
      <trkpt lat="48.98293" lon="2.06217">
        <ele>21.9</ele>
        <time>2022-06-28T11:03:07Z</time>
      </trkpt>
      <trkpt lat="48.98287" lon="2.06214">
        <ele>22.7</ele>
        <time>2022-06-28T11:03:08Z</time>
      </trkpt>
      <trkpt lat="48.98281" lon="2.06208">
        <ele>23.2</ele>
        <time>2022-06-28T11:03:09Z</time>
      </trkpt>
      <trkpt lat="48.98274" lon="2.06203">
        <ele>22.6</ele>
        <time>2022-06-28T11:03:10Z</time>
      </trkpt>
      <trkpt lat="48.98267" lon="2.06198">
        <ele>23.6</ele>
        <time>2022-06-28T11:03:11Z</time>
      </trkpt>
      <trkpt lat="48.98259" lon="2.06193">
        <ele>23.9</ele>
        <time>2022-06-28T11:03:12Z</time>
      </trkpt>
      <trkpt lat="48.98251" lon="2.06188">
        <ele>22.5</ele>
        <time>2022-06-28T11:03:13Z</time>
      </trkpt>
      <trkpt lat="48.98243" lon="2.06182">
        <ele>23.7</ele>
        <time>2022-06-28T11:03:14Z</time>
      </trkpt>
      <trkpt lat="48.98234" lon="2.06176">
        <ele>21.2</ele>
        <time>2022-06-28T11:03:15Z</time>
      </trkpt>
      <trkpt lat="48.98225" lon="2.06169">
        <ele>21.2</ele>
        <time>2022-06-28T11:03:16Z</time>
      </trkpt>
      <trkpt lat="48.98216" lon="2.06162">
        <ele>20.7</ele>
        <time>2022-06-28T11:03:17Z</time>
      </trkpt>
      <trkpt lat="48.98206" lon="2.06154">
        <ele>20.8</ele>
        <time>2022-06-28T11:03:18Z</time>
      </trkpt>
      <trkpt lat="48.98196" lon="2.06146">
        <ele>21.3</ele>
        <time>2022-06-28T11:03:19Z</time>
      </trkpt>
      <trkpt lat="48.98186" lon="2.06139">
        <ele>22.2</ele>
        <time>2022-06-28T11:03:20Z</time>
      </trkpt>
      <trkpt lat="48.98179" lon="2.06134">
        <ele>20.4</ele>
        <time>2022-06-28T11:03:21Z</time>
      </trkpt>
      <trkpt lat="48.98172" lon="2.06129">
        <ele>20</ele>
        <time>2022-06-28T11:03:22Z</time>
      </trkpt>
      <trkpt lat="48.98165" lon="2.06121">
        <ele>20.6</ele>
        <time>2022-06-28T11:03:23Z</time>
      </trkpt>
      <trkpt lat="48.98157" lon="2.06113">
        <ele>19.5</ele>
        <time>2022-06-28T11:03:24Z</time>
      </trkpt>
      <trkpt lat="48.9815" lon="2.06104">
        <ele>19.2</ele>
        <time>2022-06-28T11:03:25Z</time>
      </trkpt>
      <trkpt lat="48.98141" lon="2.06095">
        <ele>19.3</ele>
        <time>2022-06-28T11:03:26Z</time>
      </trkpt>
      <trkpt lat="48.98133" lon="2.06086">
        <ele>19.9</ele>
        <time>2022-06-28T11:03:27Z</time>
      </trkpt>
      <trkpt lat="48.98125" lon="2.06076">
        <ele>20.1</ele>
        <time>2022-06-28T11:03:28Z</time>
      </trkpt>
      <trkpt lat="48.98117" lon="2.06066">
        <ele>20.3</ele>
        <time>2022-06-28T11:03:29Z</time>
      </trkpt>
      <trkpt lat="48.98108" lon="2.06056">
        <ele>20.6</ele>
        <time>2022-06-28T11:03:30Z</time>
      </trkpt>
      <trkpt lat="48.98099" lon="2.06048">
        <ele>20.5</ele>
        <time>2022-06-28T11:03:31Z</time>
      </trkpt>
      <trkpt lat="48.98091" lon="2.06041">
        <ele>21.1</ele>
        <time>2022-06-28T11:03:32Z</time>
      </trkpt>
      <trkpt lat="48.98083" lon="2.06037">
        <ele>21.4</ele>
        <time>2022-06-28T11:03:33Z</time>
      </trkpt>
      <trkpt lat="48.98073" lon="2.06031">
        <ele>22.6</ele>
        <time>2022-06-28T11:03:34Z</time>
      </trkpt>
      <trkpt lat="48.98066" lon="2.06027">
        <ele>19.7</ele>
        <time>2022-06-28T11:03:35Z</time>
      </trkpt>
      <trkpt lat="48.9806" lon="2.06023">
        <ele>21.3</ele>
        <time>2022-06-28T11:03:36Z</time>
      </trkpt>
      <trkpt lat="48.98055" lon="2.06018">
        <ele>23.1</ele>
        <time>2022-06-28T11:03:37Z</time>
      </trkpt>
      <trkpt lat="48.9805" lon="2.06014">
        <ele>20.9</ele>
        <time>2022-06-28T11:03:38Z</time>
      </trkpt>
      <trkpt lat="48.98046" lon="2.0601">
        <ele>21</ele>
        <time>2022-06-28T11:03:39Z</time>
      </trkpt>
      <trkpt lat="48.98042" lon="2.06007">
        <ele>21.2</ele>
        <time>2022-06-28T11:03:40Z</time>
      </trkpt>
      <trkpt lat="48.98038" lon="2.06002">
        <ele>21.1</ele>
        <time>2022-06-28T11:03:41Z</time>
      </trkpt>
      <trkpt lat="48.98034" lon="2.05998">
        <ele>21.4</ele>
        <time>2022-06-28T11:03:42Z</time>
      </trkpt>
      <trkpt lat="48.98029" lon="2.05994">
        <ele>20</ele>
        <time>2022-06-28T11:03:43Z</time>
      </trkpt>
      <trkpt lat="48.98024" lon="2.05989">
        <ele>20.3</ele>
        <time>2022-06-28T11:03:44Z</time>
      </trkpt>
      <trkpt lat="48.98019" lon="2.05984">
        <ele>20.2</ele>
        <time>2022-06-28T11:03:45Z</time>
      </trkpt>
      <trkpt lat="48.98014" lon="2.05979">
        <ele>20.2</ele>
        <time>2022-06-28T11:03:46Z</time>
      </trkpt>
      <trkpt lat="48.98008" lon="2.05972">
        <ele>20.5</ele>
        <time>2022-06-28T11:03:47Z</time>
      </trkpt>
      <trkpt lat="48.98002" lon="2.05966">
        <ele>20.3</ele>
        <time>2022-06-28T11:03:48Z</time>
      </trkpt>
      <trkpt lat="48.97997" lon="2.0596">
        <ele>19.1</ele>
        <time>2022-06-28T11:03:49Z</time>
      </trkpt>
      <trkpt lat="48.9799" lon="2.05952">
        <ele>16.8</ele>
        <time>2022-06-28T11:03:51Z</time>
      </trkpt>
      <trkpt lat="48.97986" lon="2.05947">
        <ele>16.7</ele>
        <time>2022-06-28T11:03:52Z</time>
      </trkpt>
      <trkpt lat="48.97982" lon="2.05943">
        <ele>17</ele>
        <time>2022-06-28T11:03:53Z</time>
      </trkpt>
      <trkpt lat="48.97979" lon="2.05938">
        <ele>16.6</ele>
        <time>2022-06-28T11:03:54Z</time>
      </trkpt>
      <trkpt lat="48.97975" lon="2.05932">
        <ele>15.9</ele>
        <time>2022-06-28T11:03:55Z</time>
      </trkpt>
      <trkpt lat="48.97973" lon="2.05926">
        <ele>17</ele>
        <time>2022-06-28T11:03:56Z</time>
      </trkpt>
      <trkpt lat="48.97969" lon="2.0592">
        <ele>16.2</ele>
        <time>2022-06-28T11:03:57Z</time>
      </trkpt>
      <trkpt lat="48.97965" lon="2.05914">
        <ele>16.2</ele>
        <time>2022-06-28T11:03:58Z</time>
      </trkpt>
      <trkpt lat="48.9796" lon="2.05906">
        <ele>16.3</ele>
        <time>2022-06-28T11:03:59Z</time>
      </trkpt>
      <trkpt lat="48.97954" lon="2.05898">
        <ele>16.2</ele>
        <time>2022-06-28T11:04:00Z</time>
      </trkpt>
      <trkpt lat="48.97947" lon="2.0589">
        <ele>16.5</ele>
        <time>2022-06-28T11:04:01Z</time>
      </trkpt>
      <trkpt lat="48.9794" lon="2.05881">
        <ele>18.1</ele>
        <time>2022-06-28T11:04:02Z</time>
      </trkpt>
      <trkpt lat="48.97932" lon="2.05872">
        <ele>18.4</ele>
        <time>2022-06-28T11:04:03Z</time>
      </trkpt>
      <trkpt lat="48.97923" lon="2.05861">
        <ele>19</ele>
        <time>2022-06-28T11:04:04Z</time>
      </trkpt>
      <trkpt lat="48.97915" lon="2.0585">
        <ele>19.4</ele>
        <time>2022-06-28T11:04:05Z</time>
      </trkpt>
      <trkpt lat="48.97906" lon="2.05839">
        <ele>19.8</ele>
        <time>2022-06-28T11:04:06Z</time>
      </trkpt>
      <trkpt lat="48.97897" lon="2.05828">
        <ele>19.5</ele>
        <time>2022-06-28T11:04:07Z</time>
      </trkpt>
      <trkpt lat="48.97888" lon="2.05817">
        <ele>19.9</ele>
        <time>2022-06-28T11:04:08Z</time>
      </trkpt>
      <trkpt lat="48.9788" lon="2.05807">
        <ele>20.1</ele>
        <time>2022-06-28T11:04:09Z</time>
      </trkpt>
      <trkpt lat="48.97874" lon="2.05799">
        <ele>20.4</ele>
        <time>2022-06-28T11:04:10Z</time>
      </trkpt>
      <trkpt lat="48.97869" lon="2.05792">
        <ele>20.2</ele>
        <time>2022-06-28T11:04:11Z</time>
      </trkpt>
      <trkpt lat="48.97864" lon="2.05786">
        <ele>20.1</ele>
        <time>2022-06-28T11:04:12Z</time>
      </trkpt>
      <trkpt lat="48.97859" lon="2.05779">
        <ele>20.8</ele>
        <time>2022-06-28T11:04:13Z</time>
      </trkpt>
      <trkpt lat="48.97855" lon="2.05775">
        <ele>20.7</ele>
        <time>2022-06-28T11:04:14Z</time>
      </trkpt>
      <trkpt lat="48.97848" lon="2.05767">
        <ele>22.9</ele>
        <time>2022-06-28T11:04:16Z</time>
      </trkpt>
      <trkpt lat="48.97844" lon="2.05762">
        <ele>23</ele>
        <time>2022-06-28T11:04:17Z</time>
      </trkpt>
      <trkpt lat="48.9784" lon="2.05758">
        <ele>23.1</ele>
        <time>2022-06-28T11:04:18Z</time>
      </trkpt>
      <trkpt lat="48.97836" lon="2.05754">
        <ele>22.8</ele>
        <time>2022-06-28T11:04:19Z</time>
      </trkpt>
      <trkpt lat="48.9783" lon="2.05751">
        <ele>24</ele>
        <time>2022-06-28T11:04:20Z</time>
      </trkpt>
      <trkpt lat="48.97824" lon="2.05747">
        <ele>24.7</ele>
        <time>2022-06-28T11:04:21Z</time>
      </trkpt>
      <trkpt lat="48.97819" lon="2.05744">
        <ele>23.4</ele>
        <time>2022-06-28T11:04:22Z</time>
      </trkpt>
      <trkpt lat="48.97812" lon="2.0574">
        <ele>19.8</ele>
        <time>2022-06-28T11:04:24Z</time>
      </trkpt>
      <trkpt lat="48.97804" lon="2.05734">
        <ele>21.3</ele>
        <time>2022-06-28T11:04:26Z</time>
      </trkpt>
      <trkpt lat="48.978" lon="2.0573">
        <ele>19.9</ele>
        <time>2022-06-28T11:04:27Z</time>
      </trkpt>
      <trkpt lat="48.97795" lon="2.05725">
        <ele>19.6</ele>
        <time>2022-06-28T11:04:28Z</time>
      </trkpt>
      <trkpt lat="48.9779" lon="2.05721">
        <ele>20.1</ele>
        <time>2022-06-28T11:04:29Z</time>
      </trkpt>
      <trkpt lat="48.97784" lon="2.05716">
        <ele>19.2</ele>
        <time>2022-06-28T11:04:30Z</time>
      </trkpt>
      <trkpt lat="48.97778" lon="2.0571">
        <ele>19.2</ele>
        <time>2022-06-28T11:04:31Z</time>
      </trkpt>
      <trkpt lat="48.97772" lon="2.05705">
        <ele>19.3</ele>
        <time>2022-06-28T11:04:32Z</time>
      </trkpt>
      <trkpt lat="48.97766" lon="2.05699">
        <ele>19.5</ele>
        <time>2022-06-28T11:04:33Z</time>
      </trkpt>
      <trkpt lat="48.9776" lon="2.05693">
        <ele>19.6</ele>
        <time>2022-06-28T11:04:34Z</time>
      </trkpt>
      <trkpt lat="48.97754" lon="2.05687">
        <ele>19.6</ele>
        <time>2022-06-28T11:04:35Z</time>
      </trkpt>
      <trkpt lat="48.97749" lon="2.05683">
        <ele>19.6</ele>
        <time>2022-06-28T11:04:36Z</time>
      </trkpt>
      <trkpt lat="48.97744" lon="2.05678">
        <ele>20.3</ele>
        <time>2022-06-28T11:04:37Z</time>
      </trkpt>
      <trkpt lat="48.97738" lon="2.05673">
        <ele>20.4</ele>
        <time>2022-06-28T11:04:38Z</time>
      </trkpt>
      <trkpt lat="48.97733" lon="2.05666">
        <ele>20.8</ele>
        <time>2022-06-28T11:04:39Z</time>
      </trkpt>
      <trkpt lat="48.9773" lon="2.05659">
        <ele>20.7</ele>
        <time>2022-06-28T11:04:40Z</time>
      </trkpt>
      <trkpt lat="48.97727" lon="2.05652">
        <ele>20.4</ele>
        <time>2022-06-28T11:04:41Z</time>
      </trkpt>
      <trkpt lat="48.97723" lon="2.0564">
        <ele>19.6</ele>
        <time>2022-06-28T11:04:43Z</time>
      </trkpt>
      <trkpt lat="48.97718" lon="2.05629">
        <ele>19.7</ele>
        <time>2022-06-28T11:04:45Z</time>
      </trkpt>
      <trkpt lat="48.97714" lon="2.05619">
        <ele>19.6</ele>
        <time>2022-06-28T11:04:47Z</time>
      </trkpt>
      <trkpt lat="48.97711" lon="2.05613">
        <ele>20.1</ele>
        <time>2022-06-28T11:04:48Z</time>
      </trkpt>
      <trkpt lat="48.97707" lon="2.056">
        <ele>20.3</ele>
        <time>2022-06-28T11:04:50Z</time>
      </trkpt>
      <trkpt lat="48.97704" lon="2.05589">
        <ele>19</ele>
        <time>2022-06-28T11:04:51Z</time>
      </trkpt>
      <trkpt lat="48.97701" lon="2.05577">
        <ele>17.9</ele>
        <time>2022-06-28T11:04:52Z</time>
      </trkpt>
      <trkpt lat="48.97698" lon="2.05565">
        <ele>17.4</ele>
        <time>2022-06-28T11:04:53Z</time>
      </trkpt>
      <trkpt lat="48.97695" lon="2.05554">
        <ele>17</ele>
        <time>2022-06-28T11:04:54Z</time>
      </trkpt>
      <trkpt lat="48.97691" lon="2.05544">
        <ele>17.7</ele>
        <time>2022-06-28T11:04:55Z</time>
      </trkpt>
      <trkpt lat="48.97686" lon="2.05534">
        <ele>16.7</ele>
        <time>2022-06-28T11:04:56Z</time>
      </trkpt>
      <trkpt lat="48.97681" lon="2.05523">
        <ele>17.5</ele>
        <time>2022-06-28T11:04:57Z</time>
      </trkpt>
      <trkpt lat="48.97675" lon="2.05513">
        <ele>18.2</ele>
        <time>2022-06-28T11:04:58Z</time>
      </trkpt>
      <trkpt lat="48.97671" lon="2.05504">
        <ele>15.9</ele>
        <time>2022-06-28T11:04:59Z</time>
      </trkpt>
      <trkpt lat="48.97667" lon="2.05497">
        <ele>15.9</ele>
        <time>2022-06-28T11:05:00Z</time>
      </trkpt>
      <trkpt lat="48.97664" lon="2.0549">
        <ele>15.5</ele>
        <time>2022-06-28T11:05:01Z</time>
      </trkpt>
      <trkpt lat="48.9766" lon="2.05482">
        <ele>16.3</ele>
        <time>2022-06-28T11:05:02Z</time>
      </trkpt>
      <trkpt lat="48.97657" lon="2.05475">
        <ele>17.3</ele>
        <time>2022-06-28T11:05:03Z</time>
      </trkpt>
      <trkpt lat="48.97653" lon="2.05468">
        <ele>17.3</ele>
        <time>2022-06-28T11:05:04Z</time>
      </trkpt>
      <trkpt lat="48.97649" lon="2.05462">
        <ele>17.9</ele>
        <time>2022-06-28T11:05:05Z</time>
      </trkpt>
      <trkpt lat="48.97644" lon="2.05456">
        <ele>17.6</ele>
        <time>2022-06-28T11:05:06Z</time>
      </trkpt>
      <trkpt lat="48.97639" lon="2.05449">
        <ele>17.5</ele>
        <time>2022-06-28T11:05:07Z</time>
      </trkpt>
      <trkpt lat="48.97633" lon="2.05441">
        <ele>17</ele>
        <time>2022-06-28T11:05:08Z</time>
      </trkpt>
      <trkpt lat="48.97627" lon="2.05434">
        <ele>18.9</ele>
        <time>2022-06-28T11:05:09Z</time>
      </trkpt>
      <trkpt lat="48.97622" lon="2.05426">
        <ele>18.3</ele>
        <time>2022-06-28T11:05:10Z</time>
      </trkpt>
      <trkpt lat="48.97617" lon="2.0542">
        <ele>19.4</ele>
        <time>2022-06-28T11:05:11Z</time>
      </trkpt>
      <trkpt lat="48.97613" lon="2.05414">
        <ele>19.8</ele>
        <time>2022-06-28T11:05:12Z</time>
      </trkpt>
      <trkpt lat="48.9761" lon="2.05409">
        <ele>19.6</ele>
        <time>2022-06-28T11:05:13Z</time>
      </trkpt>
      <trkpt lat="48.97605" lon="2.05406">
        <ele>20.1</ele>
        <time>2022-06-28T11:05:14Z</time>
      </trkpt>
      <trkpt lat="48.97598" lon="2.05399">
        <ele>21.6</ele>
        <time>2022-06-28T11:05:16Z</time>
      </trkpt>
      <trkpt lat="48.97593" lon="2.05395">
        <ele>23.9</ele>
        <time>2022-06-28T11:05:17Z</time>
      </trkpt>
      <trkpt lat="48.97588" lon="2.0539">
        <ele>24.6</ele>
        <time>2022-06-28T11:05:18Z</time>
      </trkpt>
      <trkpt lat="48.97583" lon="2.05384">
        <ele>24.5</ele>
        <time>2022-06-28T11:05:19Z</time>
      </trkpt>
      <trkpt lat="48.97577" lon="2.05378">
        <ele>25.6</ele>
        <time>2022-06-28T11:05:20Z</time>
      </trkpt>
      <trkpt lat="48.97571" lon="2.05375">
        <ele>25.6</ele>
        <time>2022-06-28T11:05:21Z</time>
      </trkpt>
      <trkpt lat="48.97566" lon="2.05378">
        <ele>29.1</ele>
        <time>2022-06-28T11:05:23Z</time>
      </trkpt>
      <trkpt lat="48.97563" lon="2.05386">
        <ele>28.2</ele>
        <time>2022-06-28T11:05:25Z</time>
      </trkpt>
      <trkpt lat="48.9756" lon="2.05397">
        <ele>29</ele>
        <time>2022-06-28T11:05:27Z</time>
      </trkpt>
      <trkpt lat="48.97557" lon="2.05404">
        <ele>28.9</ele>
        <time>2022-06-28T11:05:28Z</time>
      </trkpt>
      <trkpt lat="48.97554" lon="2.05412">
        <ele>28.7</ele>
        <time>2022-06-28T11:05:29Z</time>
      </trkpt>
      <trkpt lat="48.9755" lon="2.05422">
        <ele>29</ele>
        <time>2022-06-28T11:05:31Z</time>
      </trkpt>
      <trkpt lat="48.97547" lon="2.05429">
        <ele>28.4</ele>
        <time>2022-06-28T11:05:34Z</time>
      </trkpt>
      <trkpt lat="48.97544" lon="2.05436">
        <ele>27.5</ele>
        <time>2022-06-28T11:05:36Z</time>
      </trkpt>
      <trkpt lat="48.9754" lon="2.05445">
        <ele>25.6</ele>
        <time>2022-06-28T11:05:38Z</time>
      </trkpt>
      <trkpt lat="48.97535" lon="2.05454">
        <ele>23.4</ele>
        <time>2022-06-28T11:05:40Z</time>
      </trkpt>
      <trkpt lat="48.97532" lon="2.0546">
        <ele>22.2</ele>
        <time>2022-06-28T11:05:41Z</time>
      </trkpt>
      <trkpt lat="48.97528" lon="2.05466">
        <ele>23.9</ele>
        <time>2022-06-28T11:05:43Z</time>
      </trkpt>
      <trkpt lat="48.97531" lon="2.05477">
        <ele>19.3</ele>
        <time>2022-06-28T11:06:55Z</time>
      </trkpt>
      <trkpt lat="48.97538" lon="2.05484">
        <ele>19.3</ele>
        <time>2022-06-28T11:06:56Z</time>
      </trkpt>
      <trkpt lat="48.97546" lon="2.05486">
        <ele>19.4</ele>
        <time>2022-06-28T11:06:57Z</time>
      </trkpt>
      <trkpt lat="48.97551" lon="2.05491">
        <ele>19.5</ele>
        <time>2022-06-28T11:06:58Z</time>
      </trkpt>
      <trkpt lat="48.97556" lon="2.05496">
        <ele>20.1</ele>
        <time>2022-06-28T11:06:59Z</time>
      </trkpt>
      <trkpt lat="48.97561" lon="2.05502">
        <ele>20.9</ele>
        <time>2022-06-28T11:07:00Z</time>
      </trkpt>
      <trkpt lat="48.97564" lon="2.05508">
        <ele>21.1</ele>
        <time>2022-06-28T11:07:01Z</time>
      </trkpt>
      <trkpt lat="48.97573" lon="2.05516">
        <ele>21.6</ele>
        <time>2022-06-28T11:07:02Z</time>
      </trkpt>
      <trkpt lat="48.97583" lon="2.05524">
        <ele>22.6</ele>
        <time>2022-06-28T11:07:03Z</time>
      </trkpt>
      <trkpt lat="48.97594" lon="2.05532">
        <ele>21.7</ele>
        <time>2022-06-28T11:07:04Z</time>
      </trkpt>
      <trkpt lat="48.97602" lon="2.05541">
        <ele>22.8</ele>
        <time>2022-06-28T11:07:05Z</time>
      </trkpt>
      <trkpt lat="48.97609" lon="2.0555">
        <ele>23.7</ele>
        <time>2022-06-28T11:07:06Z</time>
      </trkpt>
      <trkpt lat="48.97614" lon="2.05557">
        <ele>23.5</ele>
        <time>2022-06-28T11:07:07Z</time>
      </trkpt>
      <trkpt lat="48.97619" lon="2.05563">
        <ele>26.8</ele>
        <time>2022-06-28T11:07:08Z</time>
      </trkpt>
      <trkpt lat="48.97625" lon="2.0557">
        <ele>24.3</ele>
        <time>2022-06-28T11:07:10Z</time>
      </trkpt>
      <trkpt lat="48.97632" lon="2.05576">
        <ele>25.6</ele>
        <time>2022-06-28T11:07:12Z</time>
      </trkpt>
      <trkpt lat="48.97637" lon="2.05582">
        <ele>25.6</ele>
        <time>2022-06-28T11:07:13Z</time>
      </trkpt>
      <trkpt lat="48.97643" lon="2.05588">
        <ele>25.9</ele>
        <time>2022-06-28T11:07:14Z</time>
      </trkpt>
      <trkpt lat="48.97649" lon="2.05595">
        <ele>24.8</ele>
        <time>2022-06-28T11:07:15Z</time>
      </trkpt>
      <trkpt lat="48.97657" lon="2.05603">
        <ele>24.5</ele>
        <time>2022-06-28T11:07:16Z</time>
      </trkpt>
      <trkpt lat="48.97665" lon="2.05611">
        <ele>24.6</ele>
        <time>2022-06-28T11:07:17Z</time>
      </trkpt>
      <trkpt lat="48.97672" lon="2.05619">
        <ele>24</ele>
        <time>2022-06-28T11:07:18Z</time>
      </trkpt>
      <trkpt lat="48.9768" lon="2.05626">
        <ele>22.2</ele>
        <time>2022-06-28T11:07:19Z</time>
      </trkpt>
      <trkpt lat="48.97687" lon="2.05633">
        <ele>23</ele>
        <time>2022-06-28T11:07:20Z</time>
      </trkpt>
      <trkpt lat="48.97695" lon="2.05641">
        <ele>22.2</ele>
        <time>2022-06-28T11:07:21Z</time>
      </trkpt>
      <trkpt lat="48.97703" lon="2.05648">
        <ele>22.9</ele>
        <time>2022-06-28T11:07:22Z</time>
      </trkpt>
      <trkpt lat="48.9771" lon="2.05654">
        <ele>24.4</ele>
        <time>2022-06-28T11:07:23Z</time>
      </trkpt>
      <trkpt lat="48.97716" lon="2.0566">
        <ele>25.8</ele>
        <time>2022-06-28T11:07:24Z</time>
      </trkpt>
      <trkpt lat="48.97721" lon="2.05663">
        <ele>26.2</ele>
        <time>2022-06-28T11:07:25Z</time>
      </trkpt>
      <trkpt lat="48.97728" lon="2.05669">
        <ele>25.1</ele>
        <time>2022-06-28T11:07:27Z</time>
      </trkpt>
      <trkpt lat="48.97737" lon="2.05673">
        <ele>25.8</ele>
        <time>2022-06-28T11:07:29Z</time>
      </trkpt>
      <trkpt lat="48.97741" lon="2.05679">
        <ele>27</ele>
        <time>2022-06-28T11:07:31Z</time>
      </trkpt>
      <trkpt lat="48.97746" lon="2.05685">
        <ele>26.7</ele>
        <time>2022-06-28T11:07:33Z</time>
      </trkpt>
      <trkpt lat="48.97742" lon="2.05674">
        <ele>24.1</ele>
        <time>2022-06-28T11:07:37Z</time>
      </trkpt>
      <trkpt lat="48.97735" lon="2.05665">
        <ele>23.4</ele>
        <time>2022-06-28T11:07:39Z</time>
      </trkpt>
      <trkpt lat="48.97731" lon="2.05659">
        <ele>23.1</ele>
        <time>2022-06-28T11:07:40Z</time>
      </trkpt>
      <trkpt lat="48.97728" lon="2.05651">
        <ele>23</ele>
        <time>2022-06-28T11:07:41Z</time>
      </trkpt>
      <trkpt lat="48.97724" lon="2.05642">
        <ele>22.7</ele>
        <time>2022-06-28T11:07:42Z</time>
      </trkpt>
      <trkpt lat="48.97719" lon="2.05632">
        <ele>22.9</ele>
        <time>2022-06-28T11:07:43Z</time>
      </trkpt>
      <trkpt lat="48.97715" lon="2.05622">
        <ele>22.5</ele>
        <time>2022-06-28T11:07:44Z</time>
      </trkpt>
      <trkpt lat="48.9771" lon="2.05611">
        <ele>22.1</ele>
        <time>2022-06-28T11:07:45Z</time>
      </trkpt>
      <trkpt lat="48.97707" lon="2.05601">
        <ele>20.5</ele>
        <time>2022-06-28T11:07:46Z</time>
      </trkpt>
      <trkpt lat="48.97703" lon="2.05589">
        <ele>21.3</ele>
        <time>2022-06-28T11:07:47Z</time>
      </trkpt>
      <trkpt lat="48.97699" lon="2.05577">
        <ele>21.6</ele>
        <time>2022-06-28T11:07:48Z</time>
      </trkpt>
      <trkpt lat="48.97695" lon="2.05565">
        <ele>21.2</ele>
        <time>2022-06-28T11:07:49Z</time>
      </trkpt>
      <trkpt lat="48.97691" lon="2.05552">
        <ele>21.4</ele>
        <time>2022-06-28T11:07:50Z</time>
      </trkpt>
      <trkpt lat="48.97687" lon="2.05539">
        <ele>21.4</ele>
        <time>2022-06-28T11:07:51Z</time>
      </trkpt>
      <trkpt lat="48.97682" lon="2.05527">
        <ele>21.3</ele>
        <time>2022-06-28T11:07:52Z</time>
      </trkpt>
      <trkpt lat="48.97677" lon="2.05516">
        <ele>22.5</ele>
        <time>2022-06-28T11:07:53Z</time>
      </trkpt>
      <trkpt lat="48.97672" lon="2.05506">
        <ele>21.9</ele>
        <time>2022-06-28T11:07:54Z</time>
      </trkpt>
      <trkpt lat="48.97667" lon="2.05496">
        <ele>21.4</ele>
        <time>2022-06-28T11:07:55Z</time>
      </trkpt>
      <trkpt lat="48.97662" lon="2.05486">
        <ele>22.5</ele>
        <time>2022-06-28T11:07:56Z</time>
      </trkpt>
      <trkpt lat="48.97658" lon="2.05476">
        <ele>22.2</ele>
        <time>2022-06-28T11:07:57Z</time>
      </trkpt>
      <trkpt lat="48.97653" lon="2.05469">
        <ele>22.2</ele>
        <time>2022-06-28T11:07:58Z</time>
      </trkpt>
      <trkpt lat="48.97648" lon="2.05462">
        <ele>21.4</ele>
        <time>2022-06-28T11:07:59Z</time>
      </trkpt>
      <trkpt lat="48.97642" lon="2.05454">
        <ele>21</ele>
        <time>2022-06-28T11:08:00Z</time>
      </trkpt>
      <trkpt lat="48.97636" lon="2.05447">
        <ele>21.6</ele>
        <time>2022-06-28T11:08:01Z</time>
      </trkpt>
      <trkpt lat="48.9763" lon="2.05439">
        <ele>21.5</ele>
        <time>2022-06-28T11:08:02Z</time>
      </trkpt>
      <trkpt lat="48.97625" lon="2.0543">
        <ele>21.2</ele>
        <time>2022-06-28T11:08:03Z</time>
      </trkpt>
      <trkpt lat="48.97619" lon="2.05422">
        <ele>21.6</ele>
        <time>2022-06-28T11:08:04Z</time>
      </trkpt>
      <trkpt lat="48.97614" lon="2.05414">
        <ele>22.5</ele>
        <time>2022-06-28T11:08:05Z</time>
      </trkpt>
      <trkpt lat="48.97612" lon="2.05407">
        <ele>23.5</ele>
        <time>2022-06-28T11:08:06Z</time>
      </trkpt>
      <trkpt lat="48.97609" lon="2.05401">
        <ele>24.2</ele>
        <time>2022-06-28T11:08:07Z</time>
      </trkpt>
      <trkpt lat="48.97609" lon="2.05393">
        <ele>24.5</ele>
        <time>2022-06-28T11:08:08Z</time>
      </trkpt>
      <trkpt lat="48.97614" lon="2.05382">
        <ele>27.7</ele>
        <time>2022-06-28T11:08:10Z</time>
      </trkpt>
      <trkpt lat="48.97615" lon="2.05375">
        <ele>29.2</ele>
        <time>2022-06-28T11:08:11Z</time>
      </trkpt>
      <trkpt lat="48.97616" lon="2.05368">
        <ele>30.6</ele>
        <time>2022-06-28T11:08:12Z</time>
      </trkpt>
      <trkpt lat="48.97619" lon="2.05361">
        <ele>31</ele>
        <time>2022-06-28T11:08:13Z</time>
      </trkpt>
      <trkpt lat="48.97622" lon="2.05352">
        <ele>31.8</ele>
        <time>2022-06-28T11:08:14Z</time>
      </trkpt>
      <trkpt lat="48.97625" lon="2.05344">
        <ele>32.5</ele>
        <time>2022-06-28T11:08:15Z</time>
      </trkpt>
      <trkpt lat="48.97627" lon="2.05334">
        <ele>33.5</ele>
        <time>2022-06-28T11:08:16Z</time>
      </trkpt>
      <trkpt lat="48.97629" lon="2.05325">
        <ele>33.6</ele>
        <time>2022-06-28T11:08:17Z</time>
      </trkpt>
      <trkpt lat="48.97629" lon="2.05314">
        <ele>34</ele>
        <time>2022-06-28T11:08:18Z</time>
      </trkpt>
      <trkpt lat="48.97627" lon="2.05302">
        <ele>34.2</ele>
        <time>2022-06-28T11:08:19Z</time>
      </trkpt>
      <trkpt lat="48.97624" lon="2.0529">
        <ele>34.5</ele>
        <time>2022-06-28T11:08:20Z</time>
      </trkpt>
      <trkpt lat="48.9762" lon="2.05281">
        <ele>33.4</ele>
        <time>2022-06-28T11:08:21Z</time>
      </trkpt>
      <trkpt lat="48.97615" lon="2.05273">
        <ele>33.1</ele>
        <time>2022-06-28T11:08:22Z</time>
      </trkpt>
      <trkpt lat="48.9761" lon="2.05263">
        <ele>33.4</ele>
        <time>2022-06-28T11:08:23Z</time>
      </trkpt>
      <trkpt lat="48.97605" lon="2.05253">
        <ele>34.3</ele>
        <time>2022-06-28T11:08:24Z</time>
      </trkpt>
      <trkpt lat="48.97598" lon="2.05244">
        <ele>33.7</ele>
        <time>2022-06-28T11:08:25Z</time>
      </trkpt>
      <trkpt lat="48.97592" lon="2.05234">
        <ele>33.6</ele>
        <time>2022-06-28T11:08:26Z</time>
      </trkpt>
      <trkpt lat="48.97585" lon="2.05225">
        <ele>34</ele>
        <time>2022-06-28T11:08:27Z</time>
      </trkpt>
      <trkpt lat="48.97578" lon="2.05216">
        <ele>33.4</ele>
        <time>2022-06-28T11:08:28Z</time>
      </trkpt>
      <trkpt lat="48.97572" lon="2.05208">
        <ele>31.7</ele>
        <time>2022-06-28T11:08:29Z</time>
      </trkpt>
      <trkpt lat="48.97564" lon="2.05198">
        <ele>33.2</ele>
        <time>2022-06-28T11:08:30Z</time>
      </trkpt>
      <trkpt lat="48.97557" lon="2.05188">
        <ele>33.4</ele>
        <time>2022-06-28T11:08:31Z</time>
      </trkpt>
      <trkpt lat="48.9755" lon="2.05177">
        <ele>34.3</ele>
        <time>2022-06-28T11:08:32Z</time>
      </trkpt>
      <trkpt lat="48.97545" lon="2.05164">
        <ele>35.5</ele>
        <time>2022-06-28T11:08:33Z</time>
      </trkpt>
      <trkpt lat="48.9754" lon="2.05151">
        <ele>36.9</ele>
        <time>2022-06-28T11:08:34Z</time>
      </trkpt>
      <trkpt lat="48.97537" lon="2.05139">
        <ele>39.1</ele>
        <time>2022-06-28T11:08:35Z</time>
      </trkpt>
      <trkpt lat="48.97533" lon="2.05127">
        <ele>39.2</ele>
        <time>2022-06-28T11:08:36Z</time>
      </trkpt>
      <trkpt lat="48.97532" lon="2.05115">
        <ele>39.7</ele>
        <time>2022-06-28T11:08:37Z</time>
      </trkpt>
      <trkpt lat="48.97533" lon="2.05106">
        <ele>38.9</ele>
        <time>2022-06-28T11:08:38Z</time>
      </trkpt>
      <trkpt lat="48.97535" lon="2.05096">
        <ele>38</ele>
        <time>2022-06-28T11:08:39Z</time>
      </trkpt>
      <trkpt lat="48.97539" lon="2.05087">
        <ele>39.3</ele>
        <time>2022-06-28T11:08:40Z</time>
      </trkpt>
      <trkpt lat="48.97544" lon="2.05079">
        <ele>38.1</ele>
        <time>2022-06-28T11:08:41Z</time>
      </trkpt>
      <trkpt lat="48.97549" lon="2.05072">
        <ele>38.4</ele>
        <time>2022-06-28T11:08:42Z</time>
      </trkpt>
      <trkpt lat="48.97554" lon="2.05067">
        <ele>37.1</ele>
        <time>2022-06-28T11:08:43Z</time>
      </trkpt>
      <trkpt lat="48.97558" lon="2.05062">
        <ele>39.5</ele>
        <time>2022-06-28T11:08:44Z</time>
      </trkpt>
      <trkpt lat="48.97561" lon="2.05057">
        <ele>40.8</ele>
        <time>2022-06-28T11:08:45Z</time>
      </trkpt>
      <trkpt lat="48.97565" lon="2.05048">
        <ele>43.5</ele>
        <time>2022-06-28T11:08:47Z</time>
      </trkpt>
      <trkpt lat="48.97568" lon="2.0504">
        <ele>44.1</ele>
        <time>2022-06-28T11:08:49Z</time>
      </trkpt>
      <trkpt lat="48.97573" lon="2.05032">
        <ele>44.7</ele>
        <time>2022-06-28T11:08:51Z</time>
      </trkpt>
      <trkpt lat="48.97576" lon="2.05024">
        <ele>46.7</ele>
        <time>2022-06-28T11:09:12Z</time>
      </trkpt>
      <trkpt lat="48.97579" lon="2.05018">
        <ele>48.3</ele>
        <time>2022-06-28T11:09:13Z</time>
      </trkpt>
      <trkpt lat="48.97583" lon="2.05008">
        <ele>48.4</ele>
        <time>2022-06-28T11:09:14Z</time>
      </trkpt>
      <trkpt lat="48.97586" lon="2.04998">
        <ele>48.9</ele>
        <time>2022-06-28T11:09:15Z</time>
      </trkpt>
      <trkpt lat="48.97589" lon="2.04986">
        <ele>49.6</ele>
        <time>2022-06-28T11:09:16Z</time>
      </trkpt>
      <trkpt lat="48.9759" lon="2.04974">
        <ele>48.3</ele>
        <time>2022-06-28T11:09:17Z</time>
      </trkpt>
      <trkpt lat="48.9759" lon="2.04961">
        <ele>48.4</ele>
        <time>2022-06-28T11:09:18Z</time>
      </trkpt>
      <trkpt lat="48.97588" lon="2.04949">
        <ele>47.8</ele>
        <time>2022-06-28T11:09:19Z</time>
      </trkpt>
      <trkpt lat="48.97586" lon="2.04936">
        <ele>46.9</ele>
        <time>2022-06-28T11:09:20Z</time>
      </trkpt>
      <trkpt lat="48.97582" lon="2.04922">
        <ele>45.2</ele>
        <time>2022-06-28T11:09:21Z</time>
      </trkpt>
      <trkpt lat="48.97579" lon="2.04909">
        <ele>45</ele>
        <time>2022-06-28T11:09:22Z</time>
      </trkpt>
      <trkpt lat="48.97577" lon="2.04894">
        <ele>45</ele>
        <time>2022-06-28T11:09:23Z</time>
      </trkpt>
      <trkpt lat="48.97577" lon="2.0488">
        <ele>45.4</ele>
        <time>2022-06-28T11:09:24Z</time>
      </trkpt>
      <trkpt lat="48.97579" lon="2.04866">
        <ele>46.9</ele>
        <time>2022-06-28T11:09:25Z</time>
      </trkpt>
      <trkpt lat="48.97583" lon="2.04852">
        <ele>48.3</ele>
        <time>2022-06-28T11:09:26Z</time>
      </trkpt>
      <trkpt lat="48.97588" lon="2.04838">
        <ele>50</ele>
        <time>2022-06-28T11:09:27Z</time>
      </trkpt>
      <trkpt lat="48.97592" lon="2.04825">
        <ele>50.9</ele>
        <time>2022-06-28T11:09:28Z</time>
      </trkpt>
      <trkpt lat="48.97597" lon="2.04811">
        <ele>51.8</ele>
        <time>2022-06-28T11:09:29Z</time>
      </trkpt>
      <trkpt lat="48.976" lon="2.04797">
        <ele>52.7</ele>
        <time>2022-06-28T11:09:30Z</time>
      </trkpt>
      <trkpt lat="48.97603" lon="2.04785">
        <ele>53.6</ele>
        <time>2022-06-28T11:09:31Z</time>
      </trkpt>
      <trkpt lat="48.97605" lon="2.04774">
        <ele>53.9</ele>
        <time>2022-06-28T11:09:32Z</time>
      </trkpt>
      <trkpt lat="48.97607" lon="2.04763">
        <ele>54.7</ele>
        <time>2022-06-28T11:09:33Z</time>
      </trkpt>
      <trkpt lat="48.97608" lon="2.04754">
        <ele>55.7</ele>
        <time>2022-06-28T11:09:34Z</time>
      </trkpt>
      <trkpt lat="48.97608" lon="2.04746">
        <ele>56</ele>
        <time>2022-06-28T11:09:35Z</time>
      </trkpt>
      <trkpt lat="48.97608" lon="2.04738">
        <ele>56.4</ele>
        <time>2022-06-28T11:09:36Z</time>
      </trkpt>
      <trkpt lat="48.97609" lon="2.0473">
        <ele>56.6</ele>
        <time>2022-06-28T11:09:37Z</time>
      </trkpt>
      <trkpt lat="48.97609" lon="2.04722">
        <ele>56.9</ele>
        <time>2022-06-28T11:09:38Z</time>
      </trkpt>
      <trkpt lat="48.9761" lon="2.04714">
        <ele>57.3</ele>
        <time>2022-06-28T11:09:39Z</time>
      </trkpt>
      <trkpt lat="48.9761" lon="2.04704">
        <ele>58</ele>
        <time>2022-06-28T11:09:41Z</time>
      </trkpt>
      <trkpt lat="48.97611" lon="2.04693">
        <ele>55.3</ele>
        <time>2022-06-28T11:09:43Z</time>
      </trkpt>
      <trkpt lat="48.97612" lon="2.04686">
        <ele>53.9</ele>
        <time>2022-06-28T11:09:44Z</time>
      </trkpt>
      <trkpt lat="48.97613" lon="2.04677">
        <ele>55.3</ele>
        <time>2022-06-28T11:09:45Z</time>
      </trkpt>
      <trkpt lat="48.97613" lon="2.04667">
        <ele>55.6</ele>
        <time>2022-06-28T11:09:46Z</time>
      </trkpt>
      <trkpt lat="48.97614" lon="2.04656">
        <ele>56.8</ele>
        <time>2022-06-28T11:09:47Z</time>
      </trkpt>
      <trkpt lat="48.97615" lon="2.04644">
        <ele>57.8</ele>
        <time>2022-06-28T11:09:48Z</time>
      </trkpt>
      <trkpt lat="48.97616" lon="2.04631">
        <ele>58.3</ele>
        <time>2022-06-28T11:09:49Z</time>
      </trkpt>
      <trkpt lat="48.97617" lon="2.0462">
        <ele>58.7</ele>
        <time>2022-06-28T11:09:50Z</time>
      </trkpt>
      <trkpt lat="48.97618" lon="2.04609">
        <ele>59</ele>
        <time>2022-06-28T11:09:51Z</time>
      </trkpt>
      <trkpt lat="48.97619" lon="2.046">
        <ele>59.6</ele>
        <time>2022-06-28T11:09:52Z</time>
      </trkpt>
      <trkpt lat="48.9762" lon="2.04592">
        <ele>60.3</ele>
        <time>2022-06-28T11:09:53Z</time>
      </trkpt>
      <trkpt lat="48.9762" lon="2.04583">
        <ele>60.4</ele>
        <time>2022-06-28T11:09:55Z</time>
      </trkpt>
      <trkpt lat="48.97621" lon="2.04576">
        <ele>61.4</ele>
        <time>2022-06-28T11:09:56Z</time>
      </trkpt>
      <trkpt lat="48.97622" lon="2.04569">
        <ele>60.6</ele>
        <time>2022-06-28T11:09:57Z</time>
      </trkpt>
      <trkpt lat="48.97622" lon="2.0456">
        <ele>61.7</ele>
        <time>2022-06-28T11:09:58Z</time>
      </trkpt>
      <trkpt lat="48.97623" lon="2.04552">
        <ele>62.1</ele>
        <time>2022-06-28T11:09:59Z</time>
      </trkpt>
      <trkpt lat="48.97624" lon="2.04545">
        <ele>62.6</ele>
        <time>2022-06-28T11:10:00Z</time>
      </trkpt>
      <trkpt lat="48.97625" lon="2.04537">
        <ele>62.7</ele>
        <time>2022-06-28T11:10:02Z</time>
      </trkpt>
      <trkpt lat="48.97626" lon="2.04529">
        <ele>63</ele>
        <time>2022-06-28T11:10:04Z</time>
      </trkpt>
      <trkpt lat="48.97627" lon="2.04522">
        <ele>61.7</ele>
        <time>2022-06-28T11:10:05Z</time>
      </trkpt>
      <trkpt lat="48.97628" lon="2.04514">
        <ele>61.2</ele>
        <time>2022-06-28T11:10:06Z</time>
      </trkpt>
      <trkpt lat="48.97629" lon="2.04504">
        <ele>62</ele>
        <time>2022-06-28T11:10:07Z</time>
      </trkpt>
      <trkpt lat="48.9763" lon="2.04492">
        <ele>61.9</ele>
        <time>2022-06-28T11:10:08Z</time>
      </trkpt>
      <trkpt lat="48.97631" lon="2.0448">
        <ele>62.2</ele>
        <time>2022-06-28T11:10:09Z</time>
      </trkpt>
      <trkpt lat="48.97631" lon="2.04468">
        <ele>61.4</ele>
        <time>2022-06-28T11:10:10Z</time>
      </trkpt>
      <trkpt lat="48.9763" lon="2.04455">
        <ele>61.5</ele>
        <time>2022-06-28T11:10:11Z</time>
      </trkpt>
      <trkpt lat="48.97627" lon="2.04443">
        <ele>61.8</ele>
        <time>2022-06-28T11:10:12Z</time>
      </trkpt>
      <trkpt lat="48.97623" lon="2.04432">
        <ele>62.5</ele>
        <time>2022-06-28T11:10:13Z</time>
      </trkpt>
      <trkpt lat="48.97618" lon="2.04421">
        <ele>63.4</ele>
        <time>2022-06-28T11:10:14Z</time>
      </trkpt>
      <trkpt lat="48.97614" lon="2.04411">
        <ele>62.7</ele>
        <time>2022-06-28T11:10:15Z</time>
      </trkpt>
      <trkpt lat="48.9761" lon="2.04402">
        <ele>62.4</ele>
        <time>2022-06-28T11:10:16Z</time>
      </trkpt>
      <trkpt lat="48.97608" lon="2.04393">
        <ele>61.2</ele>
        <time>2022-06-28T11:10:17Z</time>
      </trkpt>
      <trkpt lat="48.97608" lon="2.04386">
        <ele>62.2</ele>
        <time>2022-06-28T11:10:18Z</time>
      </trkpt>
      <trkpt lat="48.9761" lon="2.04379">
        <ele>63.6</ele>
        <time>2022-06-28T11:10:20Z</time>
      </trkpt>
      <trkpt lat="48.97615" lon="2.04374">
        <ele>58.7</ele>
        <time>2022-06-28T11:10:25Z</time>
      </trkpt>
      <trkpt lat="48.97622" lon="2.04367">
        <ele>61.3</ele>
        <time>2022-06-28T11:10:27Z</time>
      </trkpt>
      <trkpt lat="48.97625" lon="2.04361">
        <ele>61.2</ele>
        <time>2022-06-28T11:10:28Z</time>
      </trkpt>
      <trkpt lat="48.97626" lon="2.04353">
        <ele>59.8</ele>
        <time>2022-06-28T11:10:29Z</time>
      </trkpt>
      <trkpt lat="48.97626" lon="2.04344">
        <ele>59.7</ele>
        <time>2022-06-28T11:10:30Z</time>
      </trkpt>
      <trkpt lat="48.97624" lon="2.04334">
        <ele>58.7</ele>
        <time>2022-06-28T11:10:31Z</time>
      </trkpt>
      <trkpt lat="48.97623" lon="2.04323">
        <ele>58.3</ele>
        <time>2022-06-28T11:10:32Z</time>
      </trkpt>
      <trkpt lat="48.97624" lon="2.04312">
        <ele>59.1</ele>
        <time>2022-06-28T11:10:33Z</time>
      </trkpt>
      <trkpt lat="48.97626" lon="2.043">
        <ele>59.3</ele>
        <time>2022-06-28T11:10:34Z</time>
      </trkpt>
      <trkpt lat="48.97628" lon="2.04287">
        <ele>59.6</ele>
        <time>2022-06-28T11:10:35Z</time>
      </trkpt>
      <trkpt lat="48.97628" lon="2.04273">
        <ele>59.6</ele>
        <time>2022-06-28T11:10:36Z</time>
      </trkpt>
      <trkpt lat="48.97628" lon="2.04259">
        <ele>61.2</ele>
        <time>2022-06-28T11:10:37Z</time>
      </trkpt>
      <trkpt lat="48.97628" lon="2.04244">
        <ele>61.5</ele>
        <time>2022-06-28T11:10:38Z</time>
      </trkpt>
      <trkpt lat="48.97628" lon="2.0423">
        <ele>61.9</ele>
        <time>2022-06-28T11:10:39Z</time>
      </trkpt>
      <trkpt lat="48.97628" lon="2.04215">
        <ele>61.2</ele>
        <time>2022-06-28T11:10:40Z</time>
      </trkpt>
      <trkpt lat="48.97628" lon="2.04201">
        <ele>61.5</ele>
        <time>2022-06-28T11:10:41Z</time>
      </trkpt>
      <trkpt lat="48.97627" lon="2.04187">
        <ele>61.8</ele>
        <time>2022-06-28T11:10:42Z</time>
      </trkpt>
      <trkpt lat="48.97627" lon="2.04173">
        <ele>61.8</ele>
        <time>2022-06-28T11:10:43Z</time>
      </trkpt>
      <trkpt lat="48.97626" lon="2.0416">
        <ele>62.4</ele>
        <time>2022-06-28T11:10:44Z</time>
      </trkpt>
      <trkpt lat="48.97625" lon="2.04147">
        <ele>62.6</ele>
        <time>2022-06-28T11:10:45Z</time>
      </trkpt>
      <trkpt lat="48.97625" lon="2.04135">
        <ele>63.3</ele>
        <time>2022-06-28T11:10:46Z</time>
      </trkpt>
      <trkpt lat="48.97624" lon="2.04124">
        <ele>63.7</ele>
        <time>2022-06-28T11:10:47Z</time>
      </trkpt>
      <trkpt lat="48.97623" lon="2.04115">
        <ele>63.7</ele>
        <time>2022-06-28T11:10:48Z</time>
      </trkpt>
      <trkpt lat="48.97623" lon="2.04108">
        <ele>64.2</ele>
        <time>2022-06-28T11:10:49Z</time>
      </trkpt>
      <trkpt lat="48.97622" lon="2.04097">
        <ele>63.7</ele>
        <time>2022-06-28T11:10:51Z</time>
      </trkpt>
      <trkpt lat="48.97622" lon="2.04085">
        <ele>60.9</ele>
        <time>2022-06-28T11:10:55Z</time>
      </trkpt>
      <trkpt lat="48.97622" lon="2.04077">
        <ele>60.5</ele>
        <time>2022-06-28T11:10:56Z</time>
      </trkpt>
      <trkpt lat="48.97621" lon="2.04067">
        <ele>59.9</ele>
        <time>2022-06-28T11:10:57Z</time>
      </trkpt>
      <trkpt lat="48.97621" lon="2.04056">
        <ele>61.4</ele>
        <time>2022-06-28T11:10:58Z</time>
      </trkpt>
      <trkpt lat="48.9762" lon="2.04043">
        <ele>61.6</ele>
        <time>2022-06-28T11:10:59Z</time>
      </trkpt>
      <trkpt lat="48.9762" lon="2.04029">
        <ele>62.4</ele>
        <time>2022-06-28T11:11:00Z</time>
      </trkpt>
      <trkpt lat="48.97619" lon="2.04014">
        <ele>62.7</ele>
        <time>2022-06-28T11:11:01Z</time>
      </trkpt>
      <trkpt lat="48.97618" lon="2.03999">
        <ele>63.2</ele>
        <time>2022-06-28T11:11:02Z</time>
      </trkpt>
      <trkpt lat="48.97618" lon="2.03983">
        <ele>63.3</ele>
        <time>2022-06-28T11:11:03Z</time>
      </trkpt>
      <trkpt lat="48.97617" lon="2.03967">
        <ele>62.8</ele>
        <time>2022-06-28T11:11:04Z</time>
      </trkpt>
      <trkpt lat="48.97616" lon="2.03951">
        <ele>64.3</ele>
        <time>2022-06-28T11:11:05Z</time>
      </trkpt>
      <trkpt lat="48.97616" lon="2.03934">
        <ele>64.5</ele>
        <time>2022-06-28T11:11:06Z</time>
      </trkpt>
      <trkpt lat="48.97615" lon="2.03918">
        <ele>64.9</ele>
        <time>2022-06-28T11:11:07Z</time>
      </trkpt>
      <trkpt lat="48.97614" lon="2.03903">
        <ele>65.8</ele>
        <time>2022-06-28T11:11:08Z</time>
      </trkpt>
      <trkpt lat="48.97613" lon="2.03888">
        <ele>66.8</ele>
        <time>2022-06-28T11:11:09Z</time>
      </trkpt>
      <trkpt lat="48.97612" lon="2.03874">
        <ele>67</ele>
        <time>2022-06-28T11:11:10Z</time>
      </trkpt>
      <trkpt lat="48.97611" lon="2.03859">
        <ele>67.1</ele>
        <time>2022-06-28T11:11:11Z</time>
      </trkpt>
      <trkpt lat="48.97609" lon="2.03844">
        <ele>66.9</ele>
        <time>2022-06-28T11:11:12Z</time>
      </trkpt>
      <trkpt lat="48.97608" lon="2.03829">
        <ele>66.7</ele>
        <time>2022-06-28T11:11:13Z</time>
      </trkpt>
      <trkpt lat="48.97606" lon="2.03815">
        <ele>67</ele>
        <time>2022-06-28T11:11:14Z</time>
      </trkpt>
      <trkpt lat="48.97604" lon="2.03802">
        <ele>67.7</ele>
        <time>2022-06-28T11:11:15Z</time>
      </trkpt>
      <trkpt lat="48.97602" lon="2.03789">
        <ele>67.4</ele>
        <time>2022-06-28T11:11:16Z</time>
      </trkpt>
      <trkpt lat="48.97601" lon="2.03777">
        <ele>66.9</ele>
        <time>2022-06-28T11:11:17Z</time>
      </trkpt>
      <trkpt lat="48.97599" lon="2.03767">
        <ele>66.3</ele>
        <time>2022-06-28T11:11:18Z</time>
      </trkpt>
      <trkpt lat="48.97598" lon="2.03758">
        <ele>66.3</ele>
        <time>2022-06-28T11:11:19Z</time>
      </trkpt>
      <trkpt lat="48.97597" lon="2.0375">
        <ele>64.7</ele>
        <time>2022-06-28T11:11:21Z</time>
      </trkpt>
      <trkpt lat="48.97596" lon="2.03742">
        <ele>63.4</ele>
        <time>2022-06-28T11:11:24Z</time>
      </trkpt>
      <trkpt lat="48.97595" lon="2.03734">
        <ele>63.3</ele>
        <time>2022-06-28T11:11:25Z</time>
      </trkpt>
      <trkpt lat="48.97594" lon="2.03725">
        <ele>63.6</ele>
        <time>2022-06-28T11:11:26Z</time>
      </trkpt>
      <trkpt lat="48.97593" lon="2.03713">
        <ele>63.4</ele>
        <time>2022-06-28T11:11:27Z</time>
      </trkpt>
      <trkpt lat="48.97591" lon="2.03701">
        <ele>62.7</ele>
        <time>2022-06-28T11:11:28Z</time>
      </trkpt>
      <trkpt lat="48.9759" lon="2.03687">
        <ele>63</ele>
        <time>2022-06-28T11:11:29Z</time>
      </trkpt>
      <trkpt lat="48.97588" lon="2.03673">
        <ele>62.2</ele>
        <time>2022-06-28T11:11:30Z</time>
      </trkpt>
      <trkpt lat="48.97586" lon="2.03659">
        <ele>61.6</ele>
        <time>2022-06-28T11:11:31Z</time>
      </trkpt>
      <trkpt lat="48.97585" lon="2.03644">
        <ele>61.6</ele>
        <time>2022-06-28T11:11:32Z</time>
      </trkpt>
      <trkpt lat="48.97583" lon="2.0363">
        <ele>61</ele>
        <time>2022-06-28T11:11:33Z</time>
      </trkpt>
      <trkpt lat="48.97581" lon="2.03616">
        <ele>61</ele>
        <time>2022-06-28T11:11:34Z</time>
      </trkpt>
      <trkpt lat="48.97579" lon="2.03602">
        <ele>60.3</ele>
        <time>2022-06-28T11:11:35Z</time>
      </trkpt>
      <trkpt lat="48.97578" lon="2.03588">
        <ele>58.8</ele>
        <time>2022-06-28T11:11:36Z</time>
      </trkpt>
      <trkpt lat="48.97576" lon="2.03574">
        <ele>58.5</ele>
        <time>2022-06-28T11:11:37Z</time>
      </trkpt>
      <trkpt lat="48.97574" lon="2.03559">
        <ele>59.1</ele>
        <time>2022-06-28T11:11:38Z</time>
      </trkpt>
      <trkpt lat="48.97573" lon="2.03544">
        <ele>58.3</ele>
        <time>2022-06-28T11:11:39Z</time>
      </trkpt>
      <trkpt lat="48.97571" lon="2.03528">
        <ele>58</ele>
        <time>2022-06-28T11:11:40Z</time>
      </trkpt>
      <trkpt lat="48.97569" lon="2.03512">
        <ele>58.3</ele>
        <time>2022-06-28T11:11:41Z</time>
      </trkpt>
      <trkpt lat="48.97567" lon="2.03496">
        <ele>56.9</ele>
        <time>2022-06-28T11:11:42Z</time>
      </trkpt>
      <trkpt lat="48.97565" lon="2.0348">
        <ele>58</ele>
        <time>2022-06-28T11:11:43Z</time>
      </trkpt>
      <trkpt lat="48.97563" lon="2.03464">
        <ele>57.5</ele>
        <time>2022-06-28T11:11:44Z</time>
      </trkpt>
      <trkpt lat="48.97561" lon="2.03449">
        <ele>57.5</ele>
        <time>2022-06-28T11:11:45Z</time>
      </trkpt>
      <trkpt lat="48.9756" lon="2.03434">
        <ele>57.2</ele>
        <time>2022-06-28T11:11:46Z</time>
      </trkpt>
      <trkpt lat="48.97558" lon="2.03418">
        <ele>56.7</ele>
        <time>2022-06-28T11:11:47Z</time>
      </trkpt>
      <trkpt lat="48.97557" lon="2.03403">
        <ele>58.4</ele>
        <time>2022-06-28T11:11:48Z</time>
      </trkpt>
      <trkpt lat="48.97555" lon="2.03387">
        <ele>58.9</ele>
        <time>2022-06-28T11:11:49Z</time>
      </trkpt>
      <trkpt lat="48.97553" lon="2.0337">
        <ele>59.8</ele>
        <time>2022-06-28T11:11:50Z</time>
      </trkpt>
      <trkpt lat="48.97552" lon="2.03354">
        <ele>60</ele>
        <time>2022-06-28T11:11:51Z</time>
      </trkpt>
      <trkpt lat="48.9755" lon="2.03339">
        <ele>59.8</ele>
        <time>2022-06-28T11:11:52Z</time>
      </trkpt>
      <trkpt lat="48.97548" lon="2.03325">
        <ele>60.2</ele>
        <time>2022-06-28T11:11:53Z</time>
      </trkpt>
      <trkpt lat="48.97547" lon="2.03312">
        <ele>60.3</ele>
        <time>2022-06-28T11:11:54Z</time>
      </trkpt>
      <trkpt lat="48.97546" lon="2.03298">
        <ele>58.5</ele>
        <time>2022-06-28T11:11:55Z</time>
      </trkpt>
      <trkpt lat="48.97545" lon="2.03286">
        <ele>57.8</ele>
        <time>2022-06-28T11:11:56Z</time>
      </trkpt>
      <trkpt lat="48.97544" lon="2.03274">
        <ele>57.6</ele>
        <time>2022-06-28T11:11:57Z</time>
      </trkpt>
      <trkpt lat="48.97543" lon="2.03263">
        <ele>57.7</ele>
        <time>2022-06-28T11:11:58Z</time>
      </trkpt>
      <trkpt lat="48.97542" lon="2.03253">
        <ele>58.1</ele>
        <time>2022-06-28T11:11:59Z</time>
      </trkpt>
      <trkpt lat="48.97542" lon="2.03244">
        <ele>58.2</ele>
        <time>2022-06-28T11:12:00Z</time>
      </trkpt>
      <trkpt lat="48.97542" lon="2.03237">
        <ele>58.2</ele>
        <time>2022-06-28T11:12:01Z</time>
      </trkpt>
      <trkpt lat="48.97541" lon="2.03226">
        <ele>59.6</ele>
        <time>2022-06-28T11:12:03Z</time>
      </trkpt>
      <trkpt lat="48.97538" lon="2.0322">
        <ele>66.2</ele>
        <time>2022-06-28T11:12:30Z</time>
      </trkpt>
      <trkpt lat="48.97537" lon="2.03213">
        <ele>66.9</ele>
        <time>2022-06-28T11:12:42Z</time>
      </trkpt>
      <trkpt lat="48.97536" lon="2.03205">
        <ele>67.2</ele>
        <time>2022-06-28T11:12:43Z</time>
      </trkpt>
      <trkpt lat="48.97535" lon="2.0319">
        <ele>68.1</ele>
        <time>2022-06-28T11:12:45Z</time>
      </trkpt>
      <trkpt lat="48.97533" lon="2.0318">
        <ele>68.3</ele>
        <time>2022-06-28T11:12:46Z</time>
      </trkpt>
      <trkpt lat="48.97532" lon="2.0317">
        <ele>68.6</ele>
        <time>2022-06-28T11:12:47Z</time>
      </trkpt>
      <trkpt lat="48.9753" lon="2.03158">
        <ele>68.5</ele>
        <time>2022-06-28T11:12:48Z</time>
      </trkpt>
      <trkpt lat="48.97529" lon="2.03145">
        <ele>68.7</ele>
        <time>2022-06-28T11:12:49Z</time>
      </trkpt>
      <trkpt lat="48.97529" lon="2.03131">
        <ele>68.7</ele>
        <time>2022-06-28T11:12:50Z</time>
      </trkpt>
      <trkpt lat="48.97528" lon="2.03118">
        <ele>68.9</ele>
        <time>2022-06-28T11:12:51Z</time>
      </trkpt>
      <trkpt lat="48.97527" lon="2.03105">
        <ele>69</ele>
        <time>2022-06-28T11:12:52Z</time>
      </trkpt>
      <trkpt lat="48.97527" lon="2.03092">
        <ele>68.9</ele>
        <time>2022-06-28T11:12:53Z</time>
      </trkpt>
      <trkpt lat="48.97526" lon="2.0308">
        <ele>68.8</ele>
        <time>2022-06-28T11:12:54Z</time>
      </trkpt>
      <trkpt lat="48.97525" lon="2.03069">
        <ele>68.3</ele>
        <time>2022-06-28T11:12:55Z</time>
      </trkpt>
      <trkpt lat="48.97525" lon="2.03059">
        <ele>67.7</ele>
        <time>2022-06-28T11:12:56Z</time>
      </trkpt>
      <trkpt lat="48.97524" lon="2.03044">
        <ele>68.3</ele>
        <time>2022-06-28T11:12:58Z</time>
      </trkpt>
      <trkpt lat="48.97524" lon="2.03037">
        <ele>68.9</ele>
        <time>2022-06-28T11:13:00Z</time>
      </trkpt>
      <trkpt lat="48.97524" lon="2.03029">
        <ele>68.9</ele>
        <time>2022-06-28T11:13:03Z</time>
      </trkpt>
      <trkpt lat="48.97523" lon="2.03015">
        <ele>67.6</ele>
        <time>2022-06-28T11:13:05Z</time>
      </trkpt>
      <trkpt lat="48.97522" lon="2.03005">
        <ele>67.3</ele>
        <time>2022-06-28T11:13:06Z</time>
      </trkpt>
      <trkpt lat="48.97522" lon="2.02993">
        <ele>67.1</ele>
        <time>2022-06-28T11:13:07Z</time>
      </trkpt>
      <trkpt lat="48.97522" lon="2.0298">
        <ele>66.6</ele>
        <time>2022-06-28T11:13:08Z</time>
      </trkpt>
      <trkpt lat="48.97522" lon="2.02964">
        <ele>66.6</ele>
        <time>2022-06-28T11:13:09Z</time>
      </trkpt>
      <trkpt lat="48.97522" lon="2.02948">
        <ele>66.2</ele>
        <time>2022-06-28T11:13:10Z</time>
      </trkpt>
      <trkpt lat="48.97522" lon="2.02932">
        <ele>66.3</ele>
        <time>2022-06-28T11:13:11Z</time>
      </trkpt>
      <trkpt lat="48.97523" lon="2.02916">
        <ele>66.4</ele>
        <time>2022-06-28T11:13:12Z</time>
      </trkpt>
      <trkpt lat="48.97523" lon="2.029">
        <ele>65.9</ele>
        <time>2022-06-28T11:13:13Z</time>
      </trkpt>
      <trkpt lat="48.97523" lon="2.02884">
        <ele>65.8</ele>
        <time>2022-06-28T11:13:14Z</time>
      </trkpt>
      <trkpt lat="48.97523" lon="2.02869">
        <ele>65.4</ele>
        <time>2022-06-28T11:13:15Z</time>
      </trkpt>
      <trkpt lat="48.97523" lon="2.02853">
        <ele>65.4</ele>
        <time>2022-06-28T11:13:16Z</time>
      </trkpt>
      <trkpt lat="48.97523" lon="2.02839">
        <ele>65.2</ele>
        <time>2022-06-28T11:13:17Z</time>
      </trkpt>
      <trkpt lat="48.97523" lon="2.02825">
        <ele>64.8</ele>
        <time>2022-06-28T11:13:18Z</time>
      </trkpt>
      <trkpt lat="48.97523" lon="2.02811">
        <ele>65.4</ele>
        <time>2022-06-28T11:13:19Z</time>
      </trkpt>
      <trkpt lat="48.97523" lon="2.02796">
        <ele>65.8</ele>
        <time>2022-06-28T11:13:20Z</time>
      </trkpt>
      <trkpt lat="48.97522" lon="2.0278">
        <ele>66</ele>
        <time>2022-06-28T11:13:21Z</time>
      </trkpt>
      <trkpt lat="48.97522" lon="2.02764">
        <ele>64.1</ele>
        <time>2022-06-28T11:13:22Z</time>
      </trkpt>
      <trkpt lat="48.97522" lon="2.02747">
        <ele>64.6</ele>
        <time>2022-06-28T11:13:23Z</time>
      </trkpt>
      <trkpt lat="48.97521" lon="2.0273">
        <ele>63.9</ele>
        <time>2022-06-28T11:13:24Z</time>
      </trkpt>
      <trkpt lat="48.97521" lon="2.02713">
        <ele>63.6</ele>
        <time>2022-06-28T11:13:25Z</time>
      </trkpt>
      <trkpt lat="48.97521" lon="2.02696">
        <ele>64.2</ele>
        <time>2022-06-28T11:13:26Z</time>
      </trkpt>
      <trkpt lat="48.97521" lon="2.02679">
        <ele>64.8</ele>
        <time>2022-06-28T11:13:27Z</time>
      </trkpt>
      <trkpt lat="48.97523" lon="2.02661">
        <ele>64.2</ele>
        <time>2022-06-28T11:13:28Z</time>
      </trkpt>
      <trkpt lat="48.97524" lon="2.02642">
        <ele>64.3</ele>
        <time>2022-06-28T11:13:29Z</time>
      </trkpt>
      <trkpt lat="48.97526" lon="2.02624">
        <ele>65</ele>
        <time>2022-06-28T11:13:30Z</time>
      </trkpt>
      <trkpt lat="48.97527" lon="2.02606">
        <ele>65.3</ele>
        <time>2022-06-28T11:13:31Z</time>
      </trkpt>
      <trkpt lat="48.97528" lon="2.02587">
        <ele>64.6</ele>
        <time>2022-06-28T11:13:32Z</time>
      </trkpt>
      <trkpt lat="48.97529" lon="2.02569">
        <ele>63.3</ele>
        <time>2022-06-28T11:13:33Z</time>
      </trkpt>
      <trkpt lat="48.9753" lon="2.02551">
        <ele>63.7</ele>
        <time>2022-06-28T11:13:34Z</time>
      </trkpt>
      <trkpt lat="48.97531" lon="2.02533">
        <ele>62.5</ele>
        <time>2022-06-28T11:13:35Z</time>
      </trkpt>
      <trkpt lat="48.97532" lon="2.02516">
        <ele>63.2</ele>
        <time>2022-06-28T11:13:36Z</time>
      </trkpt>
      <trkpt lat="48.97533" lon="2.02499">
        <ele>63.4</ele>
        <time>2022-06-28T11:13:37Z</time>
      </trkpt>
      <trkpt lat="48.97534" lon="2.02482">
        <ele>62.6</ele>
        <time>2022-06-28T11:13:38Z</time>
      </trkpt>
      <trkpt lat="48.97535" lon="2.02466">
        <ele>62.8</ele>
        <time>2022-06-28T11:13:39Z</time>
      </trkpt>
      <trkpt lat="48.97536" lon="2.02451">
        <ele>62.1</ele>
        <time>2022-06-28T11:13:40Z</time>
      </trkpt>
      <trkpt lat="48.97536" lon="2.02437">
        <ele>62.9</ele>
        <time>2022-06-28T11:13:41Z</time>
      </trkpt>
      <trkpt lat="48.97537" lon="2.02424">
        <ele>62.5</ele>
        <time>2022-06-28T11:13:42Z</time>
      </trkpt>
      <trkpt lat="48.97538" lon="2.02415">
        <ele>62.5</ele>
        <time>2022-06-28T11:13:43Z</time>
      </trkpt>
      <trkpt lat="48.9754" lon="2.02407">
        <ele>64.5</ele>
        <time>2022-06-28T11:13:45Z</time>
      </trkpt>
      <trkpt lat="48.9754" lon="2.02398">
        <ele>64.9</ele>
        <time>2022-06-28T11:13:48Z</time>
      </trkpt>
      <trkpt lat="48.97539" lon="2.0239">
        <ele>64.8</ele>
        <time>2022-06-28T11:13:49Z</time>
      </trkpt>
      <trkpt lat="48.97538" lon="2.0238">
        <ele>66.3</ele>
        <time>2022-06-28T11:13:50Z</time>
      </trkpt>
      <trkpt lat="48.97538" lon="2.02368">
        <ele>65.8</ele>
        <time>2022-06-28T11:13:51Z</time>
      </trkpt>
      <trkpt lat="48.97538" lon="2.02354">
        <ele>65.8</ele>
        <time>2022-06-28T11:13:52Z</time>
      </trkpt>
      <trkpt lat="48.97538" lon="2.02338">
        <ele>65.2</ele>
        <time>2022-06-28T11:13:53Z</time>
      </trkpt>
      <trkpt lat="48.97538" lon="2.02322">
        <ele>66</ele>
        <time>2022-06-28T11:13:54Z</time>
      </trkpt>
      <trkpt lat="48.97537" lon="2.02303">
        <ele>65.5</ele>
        <time>2022-06-28T11:13:55Z</time>
      </trkpt>
      <trkpt lat="48.97537" lon="2.02284">
        <ele>64.4</ele>
        <time>2022-06-28T11:13:56Z</time>
      </trkpt>
      <trkpt lat="48.97536" lon="2.02263">
        <ele>64.7</ele>
        <time>2022-06-28T11:13:57Z</time>
      </trkpt>
      <trkpt lat="48.97535" lon="2.02241">
        <ele>64.4</ele>
        <time>2022-06-28T11:13:58Z</time>
      </trkpt>
      <trkpt lat="48.97535" lon="2.02218">
        <ele>64</ele>
        <time>2022-06-28T11:13:59Z</time>
      </trkpt>
      <trkpt lat="48.97534" lon="2.02195">
        <ele>63.9</ele>
        <time>2022-06-28T11:14:00Z</time>
      </trkpt>
      <trkpt lat="48.97533" lon="2.02172">
        <ele>63.6</ele>
        <time>2022-06-28T11:14:01Z</time>
      </trkpt>
      <trkpt lat="48.97532" lon="2.02148">
        <ele>63.3</ele>
        <time>2022-06-28T11:14:02Z</time>
      </trkpt>
      <trkpt lat="48.97531" lon="2.02124">
        <ele>63.6</ele>
        <time>2022-06-28T11:14:03Z</time>
      </trkpt>
      <trkpt lat="48.9753" lon="2.021">
        <ele>63.1</ele>
        <time>2022-06-28T11:14:04Z</time>
      </trkpt>
      <trkpt lat="48.97529" lon="2.02077">
        <ele>62.9</ele>
        <time>2022-06-28T11:14:05Z</time>
      </trkpt>
      <trkpt lat="48.97528" lon="2.02054">
        <ele>62.6</ele>
        <time>2022-06-28T11:14:06Z</time>
      </trkpt>
      <trkpt lat="48.97527" lon="2.02032">
        <ele>62</ele>
        <time>2022-06-28T11:14:07Z</time>
      </trkpt>
      <trkpt lat="48.97526" lon="2.0201">
        <ele>62.2</ele>
        <time>2022-06-28T11:14:08Z</time>
      </trkpt>
      <trkpt lat="48.97526" lon="2.01988">
        <ele>61.3</ele>
        <time>2022-06-28T11:14:09Z</time>
      </trkpt>
      <trkpt lat="48.97526" lon="2.01966">
        <ele>61</ele>
        <time>2022-06-28T11:14:10Z</time>
      </trkpt>
      <trkpt lat="48.97525" lon="2.01945">
        <ele>60.6</ele>
        <time>2022-06-28T11:14:11Z</time>
      </trkpt>
      <trkpt lat="48.97525" lon="2.01924">
        <ele>60.5</ele>
        <time>2022-06-28T11:14:12Z</time>
      </trkpt>
      <trkpt lat="48.97526" lon="2.01904">
        <ele>60.1</ele>
        <time>2022-06-28T11:14:13Z</time>
      </trkpt>
      <trkpt lat="48.97526" lon="2.01883">
        <ele>59.4</ele>
        <time>2022-06-28T11:14:14Z</time>
      </trkpt>
      <trkpt lat="48.97527" lon="2.01863">
        <ele>58.9</ele>
        <time>2022-06-28T11:14:15Z</time>
      </trkpt>
      <trkpt lat="48.97527" lon="2.01843">
        <ele>58.7</ele>
        <time>2022-06-28T11:14:16Z</time>
      </trkpt>
      <trkpt lat="48.97528" lon="2.01823">
        <ele>57.7</ele>
        <time>2022-06-28T11:14:17Z</time>
      </trkpt>
      <trkpt lat="48.97528" lon="2.01804">
        <ele>57.8</ele>
        <time>2022-06-28T11:14:18Z</time>
      </trkpt>
      <trkpt lat="48.97529" lon="2.01784">
        <ele>57.4</ele>
        <time>2022-06-28T11:14:19Z</time>
      </trkpt>
      <trkpt lat="48.9753" lon="2.01765">
        <ele>57.4</ele>
        <time>2022-06-28T11:14:20Z</time>
      </trkpt>
      <trkpt lat="48.97531" lon="2.01745">
        <ele>57.7</ele>
        <time>2022-06-28T11:14:21Z</time>
      </trkpt>
      <trkpt lat="48.97532" lon="2.01726">
        <ele>57.8</ele>
        <time>2022-06-28T11:14:22Z</time>
      </trkpt>
      <trkpt lat="48.97533" lon="2.01709">
        <ele>57.7</ele>
        <time>2022-06-28T11:14:23Z</time>
      </trkpt>
      <trkpt lat="48.97534" lon="2.01694">
        <ele>57</ele>
        <time>2022-06-28T11:14:24Z</time>
      </trkpt>
      <trkpt lat="48.97535" lon="2.01682">
        <ele>56.6</ele>
        <time>2022-06-28T11:14:25Z</time>
      </trkpt>
      <trkpt lat="48.97536" lon="2.01674">
        <ele>56.8</ele>
        <time>2022-06-28T11:14:26Z</time>
      </trkpt>
      <trkpt lat="48.97537" lon="2.01663">
        <ele>57.4</ele>
        <time>2022-06-28T11:14:28Z</time>
      </trkpt>
      <trkpt lat="48.97539" lon="2.01648">
        <ele>57.8</ele>
        <time>2022-06-28T11:14:30Z</time>
      </trkpt>
      <trkpt lat="48.9754" lon="2.0164">
        <ele>57.4</ele>
        <time>2022-06-28T11:14:31Z</time>
      </trkpt>
      <trkpt lat="48.97541" lon="2.01631">
        <ele>56.7</ele>
        <time>2022-06-28T11:14:32Z</time>
      </trkpt>
      <trkpt lat="48.97543" lon="2.0162">
        <ele>56.4</ele>
        <time>2022-06-28T11:14:33Z</time>
      </trkpt>
      <trkpt lat="48.97544" lon="2.01609">
        <ele>56</ele>
        <time>2022-06-28T11:14:34Z</time>
      </trkpt>
      <trkpt lat="48.97546" lon="2.01598">
        <ele>56.7</ele>
        <time>2022-06-28T11:14:35Z</time>
      </trkpt>
      <trkpt lat="48.97548" lon="2.01587">
        <ele>56.9</ele>
        <time>2022-06-28T11:14:36Z</time>
      </trkpt>
      <trkpt lat="48.9755" lon="2.01577">
        <ele>58.1</ele>
        <time>2022-06-28T11:14:37Z</time>
      </trkpt>
      <trkpt lat="48.97552" lon="2.01569">
        <ele>57.6</ele>
        <time>2022-06-28T11:14:38Z</time>
      </trkpt>
      <trkpt lat="48.97553" lon="2.01561">
        <ele>57.9</ele>
        <time>2022-06-28T11:14:40Z</time>
      </trkpt>
      <trkpt lat="48.97555" lon="2.01553">
        <ele>58.1</ele>
        <time>2022-06-28T11:14:42Z</time>
      </trkpt>
      <trkpt lat="48.97557" lon="2.01546">
        <ele>58</ele>
        <time>2022-06-28T11:14:43Z</time>
      </trkpt>
      <trkpt lat="48.97559" lon="2.01538">
        <ele>57.5</ele>
        <time>2022-06-28T11:14:44Z</time>
      </trkpt>
      <trkpt lat="48.9756" lon="2.0153">
        <ele>57.4</ele>
        <time>2022-06-28T11:14:45Z</time>
      </trkpt>
      <trkpt lat="48.97561" lon="2.01522">
        <ele>57</ele>
        <time>2022-06-28T11:14:46Z</time>
      </trkpt>
      <trkpt lat="48.97562" lon="2.01513">
        <ele>56.6</ele>
        <time>2022-06-28T11:14:48Z</time>
      </trkpt>
      <trkpt lat="48.97563" lon="2.01502">
        <ele>56.4</ele>
        <time>2022-06-28T11:14:50Z</time>
      </trkpt>
      <trkpt lat="48.97565" lon="2.01494">
        <ele>56.1</ele>
        <time>2022-06-28T11:14:51Z</time>
      </trkpt>
      <trkpt lat="48.97566" lon="2.01485">
        <ele>55.6</ele>
        <time>2022-06-28T11:14:52Z</time>
      </trkpt>
      <trkpt lat="48.97567" lon="2.01474">
        <ele>55.6</ele>
        <time>2022-06-28T11:14:53Z</time>
      </trkpt>
      <trkpt lat="48.97568" lon="2.01462">
        <ele>54.9</ele>
        <time>2022-06-28T11:14:54Z</time>
      </trkpt>
      <trkpt lat="48.97569" lon="2.01448">
        <ele>54.8</ele>
        <time>2022-06-28T11:14:55Z</time>
      </trkpt>
      <trkpt lat="48.9757" lon="2.01434">
        <ele>54.5</ele>
        <time>2022-06-28T11:14:56Z</time>
      </trkpt>
      <trkpt lat="48.9757" lon="2.01419">
        <ele>54.1</ele>
        <time>2022-06-28T11:14:57Z</time>
      </trkpt>
      <trkpt lat="48.97571" lon="2.01404">
        <ele>52.4</ele>
        <time>2022-06-28T11:14:58Z</time>
      </trkpt>
      <trkpt lat="48.97571" lon="2.01387">
        <ele>51.6</ele>
        <time>2022-06-28T11:14:59Z</time>
      </trkpt>
      <trkpt lat="48.97572" lon="2.01371">
        <ele>50.9</ele>
        <time>2022-06-28T11:15:00Z</time>
      </trkpt>
      <trkpt lat="48.97573" lon="2.01354">
        <ele>50</ele>
        <time>2022-06-28T11:15:01Z</time>
      </trkpt>
      <trkpt lat="48.97573" lon="2.01339">
        <ele>49.9</ele>
        <time>2022-06-28T11:15:02Z</time>
      </trkpt>
      <trkpt lat="48.97574" lon="2.01324">
        <ele>49.4</ele>
        <time>2022-06-28T11:15:03Z</time>
      </trkpt>
      <trkpt lat="48.97575" lon="2.0131">
        <ele>48.8</ele>
        <time>2022-06-28T11:15:04Z</time>
      </trkpt>
      <trkpt lat="48.97575" lon="2.013">
        <ele>48.7</ele>
        <time>2022-06-28T11:15:05Z</time>
      </trkpt>
      <trkpt lat="48.97575" lon="2.01292">
        <ele>48</ele>
        <time>2022-06-28T11:15:06Z</time>
      </trkpt>
      <trkpt lat="48.97576" lon="2.01278">
        <ele>47.9</ele>
        <time>2022-06-28T11:15:08Z</time>
      </trkpt>
      <trkpt lat="48.97576" lon="2.01271">
        <ele>48</ele>
        <time>2022-06-28T11:15:09Z</time>
      </trkpt>
      <trkpt lat="48.97576" lon="2.01261">
        <ele>48</ele>
        <time>2022-06-28T11:15:10Z</time>
      </trkpt>
      <trkpt lat="48.97576" lon="2.0125">
        <ele>48.2</ele>
        <time>2022-06-28T11:15:11Z</time>
      </trkpt>
      <trkpt lat="48.97577" lon="2.01238">
        <ele>47.3</ele>
        <time>2022-06-28T11:15:12Z</time>
      </trkpt>
      <trkpt lat="48.97577" lon="2.01225">
        <ele>45.8</ele>
        <time>2022-06-28T11:15:13Z</time>
      </trkpt>
      <trkpt lat="48.97578" lon="2.0121">
        <ele>45.5</ele>
        <time>2022-06-28T11:15:14Z</time>
      </trkpt>
      <trkpt lat="48.97579" lon="2.01196">
        <ele>45.1</ele>
        <time>2022-06-28T11:15:15Z</time>
      </trkpt>
      <trkpt lat="48.9758" lon="2.0118">
        <ele>44.4</ele>
        <time>2022-06-28T11:15:16Z</time>
      </trkpt>
      <trkpt lat="48.97582" lon="2.01165">
        <ele>44.4</ele>
        <time>2022-06-28T11:15:17Z</time>
      </trkpt>
      <trkpt lat="48.97583" lon="2.0115">
        <ele>42.3</ele>
        <time>2022-06-28T11:15:18Z</time>
      </trkpt>
      <trkpt lat="48.97585" lon="2.01137">
        <ele>41.5</ele>
        <time>2022-06-28T11:15:19Z</time>
      </trkpt>
      <trkpt lat="48.97588" lon="2.01125">
        <ele>41.1</ele>
        <time>2022-06-28T11:15:20Z</time>
      </trkpt>
      <trkpt lat="48.9759" lon="2.01116">
        <ele>37</ele>
        <time>2022-06-28T11:15:21Z</time>
      </trkpt>
      <trkpt lat="48.97591" lon="2.01109">
        <ele>37.4</ele>
        <time>2022-06-28T11:15:22Z</time>
      </trkpt>
      <trkpt lat="48.97591" lon="2.01101">
        <ele>38.4</ele>
        <time>2022-06-28T11:15:23Z</time>
      </trkpt>
      <trkpt lat="48.97591" lon="2.01093">
        <ele>38</ele>
        <time>2022-06-28T11:15:24Z</time>
      </trkpt>
      <trkpt lat="48.97592" lon="2.01085">
        <ele>37.9</ele>
        <time>2022-06-28T11:15:25Z</time>
      </trkpt>
      <trkpt lat="48.97594" lon="2.01076">
        <ele>38.3</ele>
        <time>2022-06-28T11:15:26Z</time>
      </trkpt>
      <trkpt lat="48.97597" lon="2.01067">
        <ele>37</ele>
        <time>2022-06-28T11:15:27Z</time>
      </trkpt>
      <trkpt lat="48.976" lon="2.01057">
        <ele>36.6</ele>
        <time>2022-06-28T11:15:28Z</time>
      </trkpt>
      <trkpt lat="48.97603" lon="2.01047">
        <ele>36.4</ele>
        <time>2022-06-28T11:15:29Z</time>
      </trkpt>
      <trkpt lat="48.97607" lon="2.01038">
        <ele>36.8</ele>
        <time>2022-06-28T11:15:30Z</time>
      </trkpt>
      <trkpt lat="48.9761" lon="2.01028">
        <ele>37.4</ele>
        <time>2022-06-28T11:15:31Z</time>
      </trkpt>
      <trkpt lat="48.97614" lon="2.01017">
        <ele>37.8</ele>
        <time>2022-06-28T11:15:32Z</time>
      </trkpt>
      <trkpt lat="48.97618" lon="2.01006">
        <ele>38.1</ele>
        <time>2022-06-28T11:15:33Z</time>
      </trkpt>
      <trkpt lat="48.97623" lon="2.00995">
        <ele>38.6</ele>
        <time>2022-06-28T11:15:34Z</time>
      </trkpt>
      <trkpt lat="48.9763" lon="2.00986">
        <ele>39.4</ele>
        <time>2022-06-28T11:15:35Z</time>
      </trkpt>
      <trkpt lat="48.97637" lon="2.00978">
        <ele>40.3</ele>
        <time>2022-06-28T11:15:36Z</time>
      </trkpt>
      <trkpt lat="48.97645" lon="2.00971">
        <ele>41</ele>
        <time>2022-06-28T11:15:37Z</time>
      </trkpt>
      <trkpt lat="48.97653" lon="2.00965">
        <ele>41.2</ele>
        <time>2022-06-28T11:15:38Z</time>
      </trkpt>
      <trkpt lat="48.9766" lon="2.0096">
        <ele>41.4</ele>
        <time>2022-06-28T11:15:39Z</time>
      </trkpt>
      <trkpt lat="48.97667" lon="2.00956">
        <ele>41.8</ele>
        <time>2022-06-28T11:15:40Z</time>
      </trkpt>
      <trkpt lat="48.97673" lon="2.00952">
        <ele>41.9</ele>
        <time>2022-06-28T11:15:41Z</time>
      </trkpt>
      <trkpt lat="48.9768" lon="2.00947">
        <ele>45.2</ele>
        <time>2022-06-28T11:15:43Z</time>
      </trkpt>
      <trkpt lat="48.97682" lon="2.00941">
        <ele>44.6</ele>
        <time>2022-06-28T11:15:46Z</time>
      </trkpt>
      <trkpt lat="48.9768" lon="2.00927">
        <ele>44.3</ele>
        <time>2022-06-28T11:15:48Z</time>
      </trkpt>
      <trkpt lat="48.97677" lon="2.00919">
        <ele>44.7</ele>
        <time>2022-06-28T11:15:49Z</time>
      </trkpt>
      <trkpt lat="48.97674" lon="2.00908">
        <ele>46.6</ele>
        <time>2022-06-28T11:15:50Z</time>
      </trkpt>
      <trkpt lat="48.97665" lon="2.00872">
        <ele>44.5</ele>
        <time>2022-06-28T11:15:53Z</time>
      </trkpt>
      <trkpt lat="48.97663" lon="2.00859">
        <ele>44.1</ele>
        <time>2022-06-28T11:15:54Z</time>
      </trkpt>
      <trkpt lat="48.97663" lon="2.00846">
        <ele>43.4</ele>
        <time>2022-06-28T11:15:55Z</time>
      </trkpt>
      <trkpt lat="48.97665" lon="2.00832">
        <ele>43.8</ele>
        <time>2022-06-28T11:15:56Z</time>
      </trkpt>
      <trkpt lat="48.97668" lon="2.00819">
        <ele>42.2</ele>
        <time>2022-06-28T11:15:57Z</time>
      </trkpt>
      <trkpt lat="48.97672" lon="2.00809">
        <ele>41.8</ele>
        <time>2022-06-28T11:15:58Z</time>
      </trkpt>
      <trkpt lat="48.97675" lon="2.008">
        <ele>41.1</ele>
        <time>2022-06-28T11:15:59Z</time>
      </trkpt>
      <trkpt lat="48.97676" lon="2.00793">
        <ele>40.8</ele>
        <time>2022-06-28T11:16:00Z</time>
      </trkpt>
      <trkpt lat="48.97671" lon="2.00784">
        <ele>39.9</ele>
        <time>2022-06-28T11:16:02Z</time>
      </trkpt>
      <trkpt lat="48.97662" lon="2.00782">
        <ele>40.1</ele>
        <time>2022-06-28T11:16:04Z</time>
      </trkpt>
      <trkpt lat="48.97657" lon="2.0078">
        <ele>40.2</ele>
        <time>2022-06-28T11:16:05Z</time>
      </trkpt>
      <trkpt lat="48.97649" lon="2.00779">
        <ele>39.4</ele>
        <time>2022-06-28T11:16:06Z</time>
      </trkpt>
      <trkpt lat="48.97639" lon="2.00777">
        <ele>39.2</ele>
        <time>2022-06-28T11:16:07Z</time>
      </trkpt>
      <trkpt lat="48.97628" lon="2.00774">
        <ele>39.1</ele>
        <time>2022-06-28T11:16:08Z</time>
      </trkpt>
      <trkpt lat="48.97618" lon="2.00772">
        <ele>38.7</ele>
        <time>2022-06-28T11:16:09Z</time>
      </trkpt>
      <trkpt lat="48.97608" lon="2.0077">
        <ele>39.3</ele>
        <time>2022-06-28T11:16:10Z</time>
      </trkpt>
      <trkpt lat="48.97599" lon="2.0077">
        <ele>39.6</ele>
        <time>2022-06-28T11:16:11Z</time>
      </trkpt>
      <trkpt lat="48.97591" lon="2.00772">
        <ele>39.6</ele>
        <time>2022-06-28T11:16:12Z</time>
      </trkpt>
      <trkpt lat="48.97583" lon="2.00777">
        <ele>39.2</ele>
        <time>2022-06-28T11:16:13Z</time>
      </trkpt>
      <trkpt lat="48.97574" lon="2.00782">
        <ele>37.9</ele>
        <time>2022-06-28T11:16:14Z</time>
      </trkpt>
      <trkpt lat="48.97565" lon="2.00788">
        <ele>37.2</ele>
        <time>2022-06-28T11:16:15Z</time>
      </trkpt>
      <trkpt lat="48.97556" lon="2.00794">
        <ele>37.1</ele>
        <time>2022-06-28T11:16:16Z</time>
      </trkpt>
      <trkpt lat="48.97547" lon="2.00799">
        <ele>37.3</ele>
        <time>2022-06-28T11:16:17Z</time>
      </trkpt>
      <trkpt lat="48.97539" lon="2.00804">
        <ele>37.9</ele>
        <time>2022-06-28T11:16:18Z</time>
      </trkpt>
      <trkpt lat="48.97531" lon="2.00809">
        <ele>37.8</ele>
        <time>2022-06-28T11:16:19Z</time>
      </trkpt>
      <trkpt lat="48.97524" lon="2.00812">
        <ele>37.5</ele>
        <time>2022-06-28T11:16:20Z</time>
      </trkpt>
      <trkpt lat="48.97519" lon="2.00815">
        <ele>37.7</ele>
        <time>2022-06-28T11:16:21Z</time>
      </trkpt>
      <trkpt lat="48.97512" lon="2.00817">
        <ele>38.6</ele>
        <time>2022-06-28T11:16:23Z</time>
      </trkpt>
      <trkpt lat="48.97506" lon="2.00814">
        <ele>38.7</ele>
        <time>2022-06-28T11:16:26Z</time>
      </trkpt>
      <trkpt lat="48.97502" lon="2.00803">
        <ele>37.2</ele>
        <time>2022-06-28T11:16:28Z</time>
      </trkpt>
      <trkpt lat="48.975" lon="2.00795">
        <ele>35.5</ele>
        <time>2022-06-28T11:16:29Z</time>
      </trkpt>
      <trkpt lat="48.97497" lon="2.00786">
        <ele>35.6</ele>
        <time>2022-06-28T11:16:30Z</time>
      </trkpt>
      <trkpt lat="48.97492" lon="2.00773">
        <ele>36.6</ele>
        <time>2022-06-28T11:16:31Z</time>
      </trkpt>
      <trkpt lat="48.97487" lon="2.0076">
        <ele>36.2</ele>
        <time>2022-06-28T11:16:32Z</time>
      </trkpt>
      <trkpt lat="48.97483" lon="2.0075">
        <ele>34.9</ele>
        <time>2022-06-28T11:16:33Z</time>
      </trkpt>
      <trkpt lat="48.9748" lon="2.00741">
        <ele>33.6</ele>
        <time>2022-06-28T11:16:34Z</time>
      </trkpt>
      <trkpt lat="48.97478" lon="2.00734">
        <ele>32.5</ele>
        <time>2022-06-28T11:16:35Z</time>
      </trkpt>
      <trkpt lat="48.97476" lon="2.00725">
        <ele>31.1</ele>
        <time>2022-06-28T11:16:37Z</time>
      </trkpt>
      <trkpt lat="48.97473" lon="2.00716">
        <ele>29.4</ele>
        <time>2022-06-28T11:16:49Z</time>
      </trkpt>
      <trkpt lat="48.97469" lon="2.00704">
        <ele>28.6</ele>
        <time>2022-06-28T11:16:51Z</time>
      </trkpt>
      <trkpt lat="48.97465" lon="2.00691">
        <ele>25.4</ele>
        <time>2022-06-28T11:16:53Z</time>
      </trkpt>
      <trkpt lat="48.97465" lon="2.00685">
        <ele>25.1</ele>
        <time>2022-06-28T11:16:54Z</time>
      </trkpt>
      <trkpt lat="48.97467" lon="2.00678">
        <ele>24.9</ele>
        <time>2022-06-28T11:16:55Z</time>
      </trkpt>
      <trkpt lat="48.97472" lon="2.00673">
        <ele>24.4</ele>
        <time>2022-06-28T11:16:56Z</time>
      </trkpt>
      <trkpt lat="48.97478" lon="2.00672">
        <ele>24.8</ele>
        <time>2022-06-28T11:16:57Z</time>
      </trkpt>
      <trkpt lat="48.97485" lon="2.00673">
        <ele>24.9</ele>
        <time>2022-06-28T11:16:58Z</time>
      </trkpt>
      <trkpt lat="48.97493" lon="2.00673">
        <ele>24.7</ele>
        <time>2022-06-28T11:16:59Z</time>
      </trkpt>
      <trkpt lat="48.97502" lon="2.00672">
        <ele>25.1</ele>
        <time>2022-06-28T11:17:00Z</time>
      </trkpt>
      <trkpt lat="48.97511" lon="2.00671">
        <ele>24.8</ele>
        <time>2022-06-28T11:17:01Z</time>
      </trkpt>
      <trkpt lat="48.9752" lon="2.00669">
        <ele>24.3</ele>
        <time>2022-06-28T11:17:02Z</time>
      </trkpt>
      <trkpt lat="48.9753" lon="2.00668">
        <ele>24.6</ele>
        <time>2022-06-28T11:17:03Z</time>
      </trkpt>
      <trkpt lat="48.9754" lon="2.00666">
        <ele>24.2</ele>
        <time>2022-06-28T11:17:04Z</time>
      </trkpt>
      <trkpt lat="48.97551" lon="2.00665">
        <ele>22.7</ele>
        <time>2022-06-28T11:17:05Z</time>
      </trkpt>
      <trkpt lat="48.97561" lon="2.00663">
        <ele>22.4</ele>
        <time>2022-06-28T11:17:06Z</time>
      </trkpt>
      <trkpt lat="48.97571" lon="2.00661">
        <ele>22.6</ele>
        <time>2022-06-28T11:17:07Z</time>
      </trkpt>
      <trkpt lat="48.9758" lon="2.00658">
        <ele>22.8</ele>
        <time>2022-06-28T11:17:08Z</time>
      </trkpt>
      <trkpt lat="48.97588" lon="2.00655">
        <ele>23.1</ele>
        <time>2022-06-28T11:17:09Z</time>
      </trkpt>
      <trkpt lat="48.97595" lon="2.00651">
        <ele>23.1</ele>
        <time>2022-06-28T11:17:10Z</time>
      </trkpt>
      <trkpt lat="48.97601" lon="2.00648">
        <ele>23.1</ele>
        <time>2022-06-28T11:17:11Z</time>
      </trkpt>
      <trkpt lat="48.97606" lon="2.00644">
        <ele>23.3</ele>
        <time>2022-06-28T11:17:12Z</time>
      </trkpt>
      <trkpt lat="48.97611" lon="2.00641">
        <ele>24.4</ele>
        <time>2022-06-28T11:17:13Z</time>
      </trkpt>
      <trkpt lat="48.97616" lon="2.00639">
        <ele>24.5</ele>
        <time>2022-06-28T11:17:14Z</time>
      </trkpt>
      <trkpt lat="48.9762" lon="2.00637">
        <ele>25.1</ele>
        <time>2022-06-28T11:17:16Z</time>
      </trkpt>
      <trkpt lat="48.97624" lon="2.00632">
        <ele>29.4</ele>
        <time>2022-06-28T11:18:40Z</time>
      </trkpt>
      <trkpt lat="48.97629" lon="2.00628">
        <ele>29.4</ele>
        <time>2022-06-28T11:18:42Z</time>
      </trkpt>
      <trkpt lat="48.97633" lon="2.00625">
        <ele>29.4</ele>
        <time>2022-06-28T11:19:37Z</time>
      </trkpt>
      <trkpt lat="48.97638" lon="2.00619">
        <ele>30</ele>
        <time>2022-06-28T11:19:40Z</time>
      </trkpt>
      <trkpt lat="48.97644" lon="2.0062">
        <ele>30.7</ele>
        <time>2022-06-28T11:19:42Z</time>
      </trkpt>
      <trkpt lat="48.97649" lon="2.00631">
        <ele>31</ele>
        <time>2022-06-28T11:19:44Z</time>
      </trkpt>
      <trkpt lat="48.9765" lon="2.00639">
        <ele>31.4</ele>
        <time>2022-06-28T11:19:45Z</time>
      </trkpt>
      <trkpt lat="48.97652" lon="2.00647">
        <ele>32</ele>
        <time>2022-06-28T11:19:46Z</time>
      </trkpt>
      <trkpt lat="48.97654" lon="2.00656">
        <ele>32.7</ele>
        <time>2022-06-28T11:19:47Z</time>
      </trkpt>
      <trkpt lat="48.97656" lon="2.00665">
        <ele>33.6</ele>
        <time>2022-06-28T11:19:48Z</time>
      </trkpt>
      <trkpt lat="48.97659" lon="2.00675">
        <ele>34.1</ele>
        <time>2022-06-28T11:19:49Z</time>
      </trkpt>
      <trkpt lat="48.97661" lon="2.00686">
        <ele>35.2</ele>
        <time>2022-06-28T11:19:50Z</time>
      </trkpt>
      <trkpt lat="48.97664" lon="2.00697">
        <ele>36.1</ele>
        <time>2022-06-28T11:19:51Z</time>
      </trkpt>
      <trkpt lat="48.97667" lon="2.00708">
        <ele>36.7</ele>
        <time>2022-06-28T11:19:52Z</time>
      </trkpt>
      <trkpt lat="48.9767" lon="2.00719">
        <ele>37.6</ele>
        <time>2022-06-28T11:19:53Z</time>
      </trkpt>
      <trkpt lat="48.97673" lon="2.0073">
        <ele>38.7</ele>
        <time>2022-06-28T11:19:54Z</time>
      </trkpt>
      <trkpt lat="48.97676" lon="2.00741">
        <ele>39.6</ele>
        <time>2022-06-28T11:19:55Z</time>
      </trkpt>
      <trkpt lat="48.97678" lon="2.00753">
        <ele>40.6</ele>
        <time>2022-06-28T11:19:56Z</time>
      </trkpt>
      <trkpt lat="48.97678" lon="2.00765">
        <ele>41.3</ele>
        <time>2022-06-28T11:19:57Z</time>
      </trkpt>
      <trkpt lat="48.97676" lon="2.00776">
        <ele>42.1</ele>
        <time>2022-06-28T11:19:58Z</time>
      </trkpt>
      <trkpt lat="48.97674" lon="2.00788">
        <ele>42.1</ele>
        <time>2022-06-28T11:19:59Z</time>
      </trkpt>
      <trkpt lat="48.9767" lon="2.00799">
        <ele>43</ele>
        <time>2022-06-28T11:20:00Z</time>
      </trkpt>
      <trkpt lat="48.97667" lon="2.00809">
        <ele>42.9</ele>
        <time>2022-06-28T11:20:01Z</time>
      </trkpt>
      <trkpt lat="48.97663" lon="2.00819">
        <ele>42.3</ele>
        <time>2022-06-28T11:20:02Z</time>
      </trkpt>
      <trkpt lat="48.97661" lon="2.00828">
        <ele>43.1</ele>
        <time>2022-06-28T11:20:03Z</time>
      </trkpt>
      <trkpt lat="48.97658" lon="2.00837">
        <ele>43</ele>
        <time>2022-06-28T11:20:04Z</time>
      </trkpt>
      <trkpt lat="48.97657" lon="2.00845">
        <ele>42.9</ele>
        <time>2022-06-28T11:20:05Z</time>
      </trkpt>
      <trkpt lat="48.97656" lon="2.00854">
        <ele>43.4</ele>
        <time>2022-06-28T11:20:06Z</time>
      </trkpt>
      <trkpt lat="48.97658" lon="2.00864">
        <ele>43.7</ele>
        <time>2022-06-28T11:20:07Z</time>
      </trkpt>
      <trkpt lat="48.9766" lon="2.00873">
        <ele>43.9</ele>
        <time>2022-06-28T11:20:08Z</time>
      </trkpt>
      <trkpt lat="48.97664" lon="2.00884">
        <ele>44.5</ele>
        <time>2022-06-28T11:20:09Z</time>
      </trkpt>
      <trkpt lat="48.97667" lon="2.00896">
        <ele>45.3</ele>
        <time>2022-06-28T11:20:10Z</time>
      </trkpt>
      <trkpt lat="48.97677" lon="2.00928">
        <ele>46.5</ele>
        <time>2022-06-28T11:20:13Z</time>
      </trkpt>
      <trkpt lat="48.97682" lon="2.00936">
        <ele>47.2</ele>
        <time>2022-06-28T11:20:14Z</time>
      </trkpt>
      <trkpt lat="48.97687" lon="2.00941">
        <ele>47.4</ele>
        <time>2022-06-28T11:20:15Z</time>
      </trkpt>
      <trkpt lat="48.97693" lon="2.00945">
        <ele>48.3</ele>
        <time>2022-06-28T11:20:16Z</time>
      </trkpt>
      <trkpt lat="48.97699" lon="2.00948">
        <ele>49.5</ele>
        <time>2022-06-28T11:20:17Z</time>
      </trkpt>
      <trkpt lat="48.97706" lon="2.00953">
        <ele>50.4</ele>
        <time>2022-06-28T11:20:18Z</time>
      </trkpt>
      <trkpt lat="48.9771" lon="2.00961">
        <ele>50.5</ele>
        <time>2022-06-28T11:20:19Z</time>
      </trkpt>
      <trkpt lat="48.97713" lon="2.00972">
        <ele>51.7</ele>
        <time>2022-06-28T11:20:20Z</time>
      </trkpt>
      <trkpt lat="48.97714" lon="2.00985">
        <ele>51.4</ele>
        <time>2022-06-28T11:20:21Z</time>
      </trkpt>
      <trkpt lat="48.97715" lon="2.00998">
        <ele>50.8</ele>
        <time>2022-06-28T11:20:22Z</time>
      </trkpt>
      <trkpt lat="48.97715" lon="2.01013">
        <ele>51.5</ele>
        <time>2022-06-28T11:20:23Z</time>
      </trkpt>
      <trkpt lat="48.97715" lon="2.01028">
        <ele>52.1</ele>
        <time>2022-06-28T11:20:24Z</time>
      </trkpt>
      <trkpt lat="48.97716" lon="2.01042">
        <ele>53</ele>
        <time>2022-06-28T11:20:25Z</time>
      </trkpt>
      <trkpt lat="48.97717" lon="2.01057">
        <ele>53.6</ele>
        <time>2022-06-28T11:20:26Z</time>
      </trkpt>
      <trkpt lat="48.9772" lon="2.01071">
        <ele>54.6</ele>
        <time>2022-06-28T11:20:27Z</time>
      </trkpt>
      <trkpt lat="48.97722" lon="2.01085">
        <ele>54.6</ele>
        <time>2022-06-28T11:20:28Z</time>
      </trkpt>
      <trkpt lat="48.97725" lon="2.011">
        <ele>55.1</ele>
        <time>2022-06-28T11:20:29Z</time>
      </trkpt>
      <trkpt lat="48.97728" lon="2.01115">
        <ele>55.5</ele>
        <time>2022-06-28T11:20:30Z</time>
      </trkpt>
      <trkpt lat="48.97731" lon="2.0113">
        <ele>55.8</ele>
        <time>2022-06-28T11:20:31Z</time>
      </trkpt>
      <trkpt lat="48.97733" lon="2.01144">
        <ele>57</ele>
        <time>2022-06-28T11:20:32Z</time>
      </trkpt>
      <trkpt lat="48.97734" lon="2.01157">
        <ele>57.6</ele>
        <time>2022-06-28T11:20:33Z</time>
      </trkpt>
      <trkpt lat="48.97736" lon="2.01168">
        <ele>57.2</ele>
        <time>2022-06-28T11:20:34Z</time>
      </trkpt>
      <trkpt lat="48.97738" lon="2.01178">
        <ele>58.3</ele>
        <time>2022-06-28T11:20:35Z</time>
      </trkpt>
      <trkpt lat="48.97739" lon="2.01185">
        <ele>58.8</ele>
        <time>2022-06-28T11:20:36Z</time>
      </trkpt>
      <trkpt lat="48.97741" lon="2.01193">
        <ele>58.5</ele>
        <time>2022-06-28T11:20:38Z</time>
      </trkpt>
      <trkpt lat="48.97742" lon="2.01201">
        <ele>59.6</ele>
        <time>2022-06-28T11:20:41Z</time>
      </trkpt>
      <trkpt lat="48.97745" lon="2.01215">
        <ele>60.1</ele>
        <time>2022-06-28T11:20:43Z</time>
      </trkpt>
      <trkpt lat="48.97746" lon="2.01224">
        <ele>60.8</ele>
        <time>2022-06-28T11:20:44Z</time>
      </trkpt>
      <trkpt lat="48.97748" lon="2.01234">
        <ele>61.8</ele>
        <time>2022-06-28T11:20:45Z</time>
      </trkpt>
      <trkpt lat="48.9775" lon="2.01244">
        <ele>62.5</ele>
        <time>2022-06-28T11:20:46Z</time>
      </trkpt>
      <trkpt lat="48.97752" lon="2.01254">
        <ele>63.3</ele>
        <time>2022-06-28T11:20:47Z</time>
      </trkpt>
      <trkpt lat="48.97756" lon="2.01263">
        <ele>64.1</ele>
        <time>2022-06-28T11:20:48Z</time>
      </trkpt>
      <trkpt lat="48.97761" lon="2.01271">
        <ele>64.9</ele>
        <time>2022-06-28T11:20:49Z</time>
      </trkpt>
      <trkpt lat="48.97766" lon="2.01278">
        <ele>65.1</ele>
        <time>2022-06-28T11:20:50Z</time>
      </trkpt>
      <trkpt lat="48.97773" lon="2.01284">
        <ele>64.6</ele>
        <time>2022-06-28T11:20:51Z</time>
      </trkpt>
      <trkpt lat="48.97781" lon="2.0129">
        <ele>65.6</ele>
        <time>2022-06-28T11:20:52Z</time>
      </trkpt>
      <trkpt lat="48.97788" lon="2.01296">
        <ele>65.8</ele>
        <time>2022-06-28T11:20:53Z</time>
      </trkpt>
      <trkpt lat="48.97795" lon="2.01303">
        <ele>66.5</ele>
        <time>2022-06-28T11:20:54Z</time>
      </trkpt>
      <trkpt lat="48.97803" lon="2.01309">
        <ele>67.2</ele>
        <time>2022-06-28T11:20:55Z</time>
      </trkpt>
      <trkpt lat="48.9781" lon="2.01316">
        <ele>67.3</ele>
        <time>2022-06-28T11:20:56Z</time>
      </trkpt>
      <trkpt lat="48.97817" lon="2.01322">
        <ele>67</ele>
        <time>2022-06-28T11:20:57Z</time>
      </trkpt>
      <trkpt lat="48.97822" lon="2.01328">
        <ele>67.3</ele>
        <time>2022-06-28T11:20:58Z</time>
      </trkpt>
      <trkpt lat="48.97827" lon="2.01332">
        <ele>67.9</ele>
        <time>2022-06-28T11:20:59Z</time>
      </trkpt>
      <trkpt lat="48.97832" lon="2.01337">
        <ele>67.8</ele>
        <time>2022-06-28T11:21:00Z</time>
      </trkpt>
      <trkpt lat="48.97836" lon="2.01341">
        <ele>68.7</ele>
        <time>2022-06-28T11:21:01Z</time>
      </trkpt>
      <trkpt lat="48.97841" lon="2.01345">
        <ele>69.2</ele>
        <time>2022-06-28T11:21:02Z</time>
      </trkpt>
      <trkpt lat="48.97845" lon="2.01348">
        <ele>69.7</ele>
        <time>2022-06-28T11:21:03Z</time>
      </trkpt>
      <trkpt lat="48.97851" lon="2.0135">
        <ele>70.1</ele>
        <time>2022-06-28T11:21:04Z</time>
      </trkpt>
      <trkpt lat="48.97858" lon="2.01351">
        <ele>70.4</ele>
        <time>2022-06-28T11:21:05Z</time>
      </trkpt>
      <trkpt lat="48.97865" lon="2.01352">
        <ele>71.2</ele>
        <time>2022-06-28T11:21:06Z</time>
      </trkpt>
      <trkpt lat="48.97873" lon="2.01354">
        <ele>71.6</ele>
        <time>2022-06-28T11:21:07Z</time>
      </trkpt>
      <trkpt lat="48.97881" lon="2.01355">
        <ele>72.3</ele>
        <time>2022-06-28T11:21:08Z</time>
      </trkpt>
      <trkpt lat="48.97889" lon="2.01357">
        <ele>73</ele>
        <time>2022-06-28T11:21:09Z</time>
      </trkpt>
      <trkpt lat="48.97895" lon="2.01359">
        <ele>73.8</ele>
        <time>2022-06-28T11:21:10Z</time>
      </trkpt>
      <trkpt lat="48.97901" lon="2.0136">
        <ele>74.2</ele>
        <time>2022-06-28T11:21:11Z</time>
      </trkpt>
      <trkpt lat="48.97906" lon="2.01361">
        <ele>74.5</ele>
        <time>2022-06-28T11:21:12Z</time>
      </trkpt>
      <trkpt lat="48.97911" lon="2.01365">
        <ele>74.9</ele>
        <time>2022-06-28T11:21:14Z</time>
      </trkpt>
      <trkpt lat="48.97909" lon="2.01375">
        <ele>75.1</ele>
        <time>2022-06-28T11:21:17Z</time>
      </trkpt>
      <trkpt lat="48.97902" lon="2.01386">
        <ele>71.1</ele>
        <time>2022-06-28T11:21:19Z</time>
      </trkpt>
      <trkpt lat="48.97897" lon="2.01392">
        <ele>71.1</ele>
        <time>2022-06-28T11:21:21Z</time>
      </trkpt>
      <trkpt lat="48.97889" lon="2.01391">
        <ele>71.1</ele>
        <time>2022-06-28T11:21:23Z</time>
      </trkpt>
      <trkpt lat="48.97881" lon="2.01389">
        <ele>71.1</ele>
        <time>2022-06-28T11:21:25Z</time>
      </trkpt>
      <trkpt lat="48.97876" lon="2.01391">
        <ele>71.1</ele>
        <time>2022-06-28T11:21:26Z</time>
      </trkpt>
      <trkpt lat="48.97872" lon="2.01394">
        <ele>71.1</ele>
        <time>2022-06-28T11:21:27Z</time>
      </trkpt>
      <trkpt lat="48.97868" lon="2.01398">
        <ele>71.1</ele>
        <time>2022-06-28T11:21:28Z</time>
      </trkpt>
      <trkpt lat="48.97862" lon="2.01404">
        <ele>71.1</ele>
        <time>2022-06-28T11:21:30Z</time>
      </trkpt>
      <trkpt lat="48.97858" lon="2.0141">
        <ele>71.1</ele>
        <time>2022-06-28T11:21:33Z</time>
      </trkpt>
      <trkpt lat="48.97859" lon="2.01416">
        <ele>71.1</ele>
        <time>2022-06-28T11:21:37Z</time>
      </trkpt>
    </trkseg>
  </trk>
</gpx>